<?xml version="1.0" encoding="UTF-8" standalone="no" ?>
<gpx xmlns="http://www.topografix.com/GPX/1/1" xmlns:xsi="http://www.w3.org/2001/XMLSchema-instance" xsi:schemaLocation="http://www.topografix.com/GPX/1/1 http://www.topografix.com/GPX/1/1/gpx.xsd" version="1.1" creator="VisuGPX - https://www.visugpx.com">
  <metadata>
    <name>nieul 2016</name>
    <desc><![CDATA[balade roulante avec des chemins et paysages variés. quelques beaux points de vue.]]></desc>
  </metadata>
  <trk>
    <name><![CDATA[NIEUL2016]]></name>
    <trkseg>
      <trkpt lat="45.92195" lon="1.17003">
        <ele>314</ele>
        <time>2016-10-02T06:54:17.000Z</time>
      </trkpt>
      <trkpt lat="45.92211" lon="1.17019">
        <ele>319</ele>
        <time>2016-10-02T06:59:46.000Z</time>
      </trkpt>
      <trkpt lat="45.92248" lon="1.17046">
        <ele>318</ele>
        <time>2016-10-02T06:59:55.000Z</time>
      </trkpt>
      <trkpt lat="45.92251" lon="1.17051">
        <ele>318</ele>
        <time>2016-10-02T06:59:56.000Z</time>
      </trkpt>
      <trkpt lat="45.92262" lon="1.17065">
        <ele>317</ele>
        <time>2016-10-02T06:59:59.000Z</time>
      </trkpt>
      <trkpt lat="45.92277" lon="1.17069">
        <ele>317</ele>
        <time>2016-10-02T07:00:02.000Z</time>
      </trkpt>
      <trkpt lat="45.92326" lon="1.17089">
        <ele>316</ele>
        <time>2016-10-02T07:00:10.000Z</time>
      </trkpt>
      <trkpt lat="45.92332" lon="1.17092">
        <ele>315</ele>
        <time>2016-10-02T07:00:11.000Z</time>
      </trkpt>
      <trkpt lat="45.92379" lon="1.1711">
        <ele>314</ele>
        <time>2016-10-02T07:00:18.000Z</time>
      </trkpt>
      <trkpt lat="45.92385" lon="1.17113">
        <ele>314</ele>
        <time>2016-10-02T07:00:19.000Z</time>
      </trkpt>
      <trkpt lat="45.9242" lon="1.17131">
        <ele>316</ele>
        <time>2016-10-02T07:00:25.000Z</time>
      </trkpt>
      <trkpt lat="45.92428" lon="1.17143">
        <ele>316</ele>
        <time>2016-10-02T07:00:29.000Z</time>
      </trkpt>
      <trkpt lat="45.92422" lon="1.17153">
        <ele>314</ele>
        <time>2016-10-02T07:00:35.000Z</time>
      </trkpt>
      <trkpt lat="45.9242" lon="1.1716">
        <ele>313</ele>
        <time>2016-10-02T07:00:38.000Z</time>
      </trkpt>
      <trkpt lat="45.92415" lon="1.17157">
        <ele>311</ele>
        <time>2016-10-02T07:00:43.000Z</time>
      </trkpt>
      <trkpt lat="45.92408" lon="1.17154">
        <ele>309</ele>
        <time>2016-10-02T07:00:48.000Z</time>
      </trkpt>
      <trkpt lat="45.92395" lon="1.17157">
        <ele>309</ele>
        <time>2016-10-02T07:00:52.000Z</time>
      </trkpt>
      <trkpt lat="45.92387" lon="1.17153">
        <ele>309</ele>
        <time>2016-10-02T07:00:55.000Z</time>
      </trkpt>
      <trkpt lat="45.9238" lon="1.1715">
        <ele>309</ele>
        <time>2016-10-02T07:00:58.000Z</time>
      </trkpt>
      <trkpt lat="45.92375" lon="1.17153">
        <ele>309</ele>
        <time>2016-10-02T07:01:20.000Z</time>
      </trkpt>
      <trkpt lat="45.92385" lon="1.17145">
        <ele>299</ele>
        <time>2016-10-02T07:03:10.000Z</time>
      </trkpt>
      <trkpt lat="45.92374" lon="1.17146">
        <ele>289</ele>
        <time>2016-10-02T07:03:48.000Z</time>
      </trkpt>
      <trkpt lat="45.92376" lon="1.17155">
        <ele>301</ele>
        <time>2016-10-02T07:04:07.000Z</time>
      </trkpt>
      <trkpt lat="45.92374" lon="1.17163">
        <ele>303</ele>
        <time>2016-10-02T07:04:21.000Z</time>
      </trkpt>
      <trkpt lat="45.92382" lon="1.17176">
        <ele>301</ele>
        <time>2016-10-02T07:04:31.000Z</time>
      </trkpt>
      <trkpt lat="45.92385" lon="1.17195">
        <ele>302</ele>
        <time>2016-10-02T07:04:36.000Z</time>
      </trkpt>
      <trkpt lat="45.92382" lon="1.17196">
        <ele>309</ele>
        <time>2016-10-02T07:05:16.000Z</time>
      </trkpt>
      <trkpt lat="45.92379" lon="1.17187">
        <ele>329</ele>
        <time>2016-10-02T07:06:59.000Z</time>
      </trkpt>
      <trkpt lat="45.92378" lon="1.1718">
        <ele>326</ele>
        <time>2016-10-02T07:08:14.000Z</time>
      </trkpt>
      <trkpt lat="45.92379" lon="1.17171">
        <ele>322</ele>
        <time>2016-10-02T07:08:21.000Z</time>
      </trkpt>
      <trkpt lat="45.92381" lon="1.17162">
        <ele>320</ele>
        <time>2016-10-02T07:08:25.000Z</time>
      </trkpt>
      <trkpt lat="45.92387" lon="1.17156">
        <ele>319</ele>
        <time>2016-10-02T07:08:29.000Z</time>
      </trkpt>
      <trkpt lat="45.92394" lon="1.17153">
        <ele>318</ele>
        <time>2016-10-02T07:08:32.000Z</time>
      </trkpt>
      <trkpt lat="45.92403" lon="1.17154">
        <ele>316</ele>
        <time>2016-10-02T07:08:36.000Z</time>
      </trkpt>
      <trkpt lat="45.92411" lon="1.17156">
        <ele>308</ele>
        <time>2016-10-02T07:08:44.000Z</time>
      </trkpt>
      <trkpt lat="45.92417" lon="1.17154">
        <ele>308</ele>
        <time>2016-10-02T07:08:47.000Z</time>
      </trkpt>
      <trkpt lat="45.92421" lon="1.17143">
        <ele>308</ele>
        <time>2016-10-02T07:08:51.000Z</time>
      </trkpt>
      <trkpt lat="45.92428" lon="1.17132">
        <ele>308</ele>
        <time>2016-10-02T07:08:55.000Z</time>
      </trkpt>
      <trkpt lat="45.92432" lon="1.17128">
        <ele>308</ele>
        <time>2016-10-02T07:08:57.000Z</time>
      </trkpt>
      <trkpt lat="45.9244" lon="1.1712">
        <ele>307</ele>
        <time>2016-10-02T07:09:00.000Z</time>
      </trkpt>
      <trkpt lat="45.92443" lon="1.17112">
        <ele>307</ele>
        <time>2016-10-02T07:09:02.000Z</time>
      </trkpt>
      <trkpt lat="45.9244" lon="1.17078">
        <ele>304</ele>
        <time>2016-10-02T07:09:10.000Z</time>
      </trkpt>
      <trkpt lat="45.9243" lon="1.17011">
        <ele>300</ele>
        <time>2016-10-02T07:09:20.000Z</time>
      </trkpt>
      <trkpt lat="45.92429" lon="1.17002">
        <ele>300</ele>
        <time>2016-10-02T07:09:21.000Z</time>
      </trkpt>
      <trkpt lat="45.9242" lon="1.16937">
        <ele>298</ele>
        <time>2016-10-02T07:09:28.000Z</time>
      </trkpt>
      <trkpt lat="45.92419" lon="1.16928">
        <ele>298</ele>
        <time>2016-10-02T07:09:29.000Z</time>
      </trkpt>
      <trkpt lat="45.92418" lon="1.16892">
        <ele>297</ele>
        <time>2016-10-02T07:09:33.000Z</time>
      </trkpt>
      <trkpt lat="45.92426" lon="1.16865">
        <ele>297</ele>
        <time>2016-10-02T07:09:37.000Z</time>
      </trkpt>
      <trkpt lat="45.92445" lon="1.1682">
        <ele>298</ele>
        <time>2016-10-02T07:09:45.000Z</time>
      </trkpt>
      <trkpt lat="45.9247" lon="1.16759">
        <ele>299</ele>
        <time>2016-10-02T07:09:55.000Z</time>
      </trkpt>
      <trkpt lat="45.92472" lon="1.16753">
        <ele>299</ele>
        <time>2016-10-02T07:09:56.000Z</time>
      </trkpt>
      <trkpt lat="45.92482" lon="1.16716">
        <ele>298</ele>
        <time>2016-10-02T07:10:01.000Z</time>
      </trkpt>
      <trkpt lat="45.92484" lon="1.16692">
        <ele>298</ele>
        <time>2016-10-02T07:10:04.000Z</time>
      </trkpt>
      <trkpt lat="45.9248" lon="1.16653">
        <ele>297</ele>
        <time>2016-10-02T07:10:09.000Z</time>
      </trkpt>
      <trkpt lat="45.92473" lon="1.16631">
        <ele>296</ele>
        <time>2016-10-02T07:10:12.000Z</time>
      </trkpt>
      <trkpt lat="45.92446" lon="1.16578">
        <ele>294</ele>
        <time>2016-10-02T07:10:19.000Z</time>
      </trkpt>
      <trkpt lat="45.92441" lon="1.16569">
        <ele>294</ele>
        <time>2016-10-02T07:10:20.000Z</time>
      </trkpt>
      <trkpt lat="45.92419" lon="1.16534">
        <ele>293</ele>
        <time>2016-10-02T07:10:24.000Z</time>
      </trkpt>
      <trkpt lat="45.92378" lon="1.16501">
        <ele>291</ele>
        <time>2016-10-02T07:10:29.000Z</time>
      </trkpt>
      <trkpt lat="45.9237" lon="1.16494">
        <ele>291</ele>
        <time>2016-10-02T07:10:30.000Z</time>
      </trkpt>
      <trkpt lat="45.9235" lon="1.16469">
        <ele>292</ele>
        <time>2016-10-02T07:10:33.000Z</time>
      </trkpt>
      <trkpt lat="45.92343" lon="1.16447">
        <ele>293</ele>
        <time>2016-10-02T07:10:35.000Z</time>
      </trkpt>
      <trkpt lat="45.92339" lon="1.16378">
        <ele>294</ele>
        <time>2016-10-02T07:10:42.000Z</time>
      </trkpt>
      <trkpt lat="45.92337" lon="1.16369">
        <ele>294</ele>
        <time>2016-10-02T07:10:43.000Z</time>
      </trkpt>
      <trkpt lat="45.92332" lon="1.16351">
        <ele>295</ele>
        <time>2016-10-02T07:10:45.000Z</time>
      </trkpt>
      <trkpt lat="45.9232" lon="1.16329">
        <ele>295</ele>
        <time>2016-10-02T07:10:48.000Z</time>
      </trkpt>
      <trkpt lat="45.92281" lon="1.16289">
        <ele>294</ele>
        <time>2016-10-02T07:10:55.000Z</time>
      </trkpt>
      <trkpt lat="45.92276" lon="1.16284">
        <ele>294</ele>
        <time>2016-10-02T07:10:56.000Z</time>
      </trkpt>
      <trkpt lat="45.92239" lon="1.16246">
        <ele>292</ele>
        <time>2016-10-02T07:11:03.000Z</time>
      </trkpt>
      <trkpt lat="45.92234" lon="1.1624">
        <ele>291</ele>
        <time>2016-10-02T07:11:04.000Z</time>
      </trkpt>
      <trkpt lat="45.92226" lon="1.16225">
        <ele>291</ele>
        <time>2016-10-02T07:11:06.000Z</time>
      </trkpt>
      <trkpt lat="45.92219" lon="1.16199">
        <ele>290</ele>
        <time>2016-10-02T07:11:09.000Z</time>
      </trkpt>
      <trkpt lat="45.92214" lon="1.16179">
        <ele>290</ele>
        <time>2016-10-02T07:11:12.000Z</time>
      </trkpt>
      <trkpt lat="45.92212" lon="1.16161">
        <ele>291</ele>
        <time>2016-10-02T07:11:18.000Z</time>
      </trkpt>
      <trkpt lat="45.92215" lon="1.16147">
        <ele>292</ele>
        <time>2016-10-02T07:11:24.000Z</time>
      </trkpt>
      <trkpt lat="45.92235" lon="1.1611">
        <ele>293</ele>
        <time>2016-10-02T07:11:40.000Z</time>
      </trkpt>
      <trkpt lat="45.92232" lon="1.16102">
        <ele>294</ele>
        <time>2016-10-02T07:11:43.000Z</time>
      </trkpt>
      <trkpt lat="45.92225" lon="1.16098">
        <ele>295</ele>
        <time>2016-10-02T07:11:48.000Z</time>
      </trkpt>
      <trkpt lat="45.92218" lon="1.16099">
        <ele>295</ele>
        <time>2016-10-02T07:11:52.000Z</time>
      </trkpt>
      <trkpt lat="45.92212" lon="1.16102">
        <ele>297</ele>
        <time>2016-10-02T07:11:56.000Z</time>
      </trkpt>
      <trkpt lat="45.92195" lon="1.16106">
        <ele>304</ele>
        <time>2016-10-02T07:12:08.000Z</time>
      </trkpt>
      <trkpt lat="45.92181" lon="1.16108">
        <ele>308</ele>
        <time>2016-10-02T07:12:16.000Z</time>
      </trkpt>
      <trkpt lat="45.92153" lon="1.16104">
        <ele>312</ele>
        <time>2016-10-02T07:12:31.000Z</time>
      </trkpt>
      <trkpt lat="45.92108" lon="1.16098">
        <ele>313</ele>
        <time>2016-10-02T07:12:50.000Z</time>
      </trkpt>
      <trkpt lat="45.92105" lon="1.16098">
        <ele>313</ele>
        <time>2016-10-02T07:12:51.000Z</time>
      </trkpt>
      <trkpt lat="45.92074" lon="1.16088">
        <ele>314</ele>
        <time>2016-10-02T07:13:00.000Z</time>
      </trkpt>
      <trkpt lat="45.92046" lon="1.1607">
        <ele>312</ele>
        <time>2016-10-02T07:13:07.000Z</time>
      </trkpt>
      <trkpt lat="45.92006" lon="1.16038">
        <ele>309</ele>
        <time>2016-10-02T07:13:20.000Z</time>
      </trkpt>
      <trkpt lat="45.92004" lon="1.16036">
        <ele>309</ele>
        <time>2016-10-02T07:13:21.000Z</time>
      </trkpt>
      <trkpt lat="45.91974" lon="1.16027">
        <ele>311</ele>
        <time>2016-10-02T07:13:33.000Z</time>
      </trkpt>
      <trkpt lat="45.91928" lon="1.16031">
        <ele>315</ele>
        <time>2016-10-02T07:13:51.000Z</time>
      </trkpt>
      <trkpt lat="45.91925" lon="1.16031">
        <ele>315</ele>
        <time>2016-10-02T07:13:52.000Z</time>
      </trkpt>
      <trkpt lat="45.91888" lon="1.16024">
        <ele>321</ele>
        <time>2016-10-02T07:14:08.000Z</time>
      </trkpt>
      <trkpt lat="45.91872" lon="1.16021">
        <ele>322</ele>
        <time>2016-10-02T07:14:16.000Z</time>
      </trkpt>
      <trkpt lat="45.91845" lon="1.16023">
        <ele>325</ele>
        <time>2016-10-02T07:14:28.000Z</time>
      </trkpt>
      <trkpt lat="45.9183" lon="1.16022">
        <ele>327</ele>
        <time>2016-10-02T07:14:34.000Z</time>
      </trkpt>
      <trkpt lat="45.9182" lon="1.16017">
        <ele>326</ele>
        <time>2016-10-02T07:14:38.000Z</time>
      </trkpt>
      <trkpt lat="45.91803" lon="1.16004">
        <ele>325</ele>
        <time>2016-10-02T07:14:46.000Z</time>
      </trkpt>
      <trkpt lat="45.91764" lon="1.15971">
        <ele>328</ele>
        <time>2016-10-02T07:15:04.000Z</time>
      </trkpt>
      <trkpt lat="45.91761" lon="1.15969">
        <ele>329</ele>
        <time>2016-10-02T07:15:05.000Z</time>
      </trkpt>
      <trkpt lat="45.91756" lon="1.15962">
        <ele>329</ele>
        <time>2016-10-02T07:15:08.000Z</time>
      </trkpt>
      <trkpt lat="45.9175" lon="1.15953">
        <ele>331</ele>
        <time>2016-10-02T07:15:12.000Z</time>
      </trkpt>
      <trkpt lat="45.91741" lon="1.15936">
        <ele>332</ele>
        <time>2016-10-02T07:15:19.000Z</time>
      </trkpt>
      <trkpt lat="45.91735" lon="1.1593">
        <ele>332</ele>
        <time>2016-10-02T07:15:23.000Z</time>
      </trkpt>
      <trkpt lat="45.91717" lon="1.15921">
        <ele>332</ele>
        <time>2016-10-02T07:15:33.000Z</time>
      </trkpt>
      <trkpt lat="45.91695" lon="1.15922">
        <ele>332</ele>
        <time>2016-10-02T07:15:45.000Z</time>
      </trkpt>
      <trkpt lat="45.91659" lon="1.15927">
        <ele>332</ele>
        <time>2016-10-02T07:16:07.000Z</time>
      </trkpt>
      <trkpt lat="45.9164" lon="1.1595">
        <ele>334</ele>
        <time>2016-10-02T07:16:15.000Z</time>
      </trkpt>
      <trkpt lat="45.91622" lon="1.15967">
        <ele>336</ele>
        <time>2016-10-02T07:16:21.000Z</time>
      </trkpt>
      <trkpt lat="45.91594" lon="1.1598">
        <ele>335</ele>
        <time>2016-10-02T07:16:28.000Z</time>
      </trkpt>
      <trkpt lat="45.9158" lon="1.15985">
        <ele>335</ele>
        <time>2016-10-02T07:16:31.000Z</time>
      </trkpt>
      <trkpt lat="45.91573" lon="1.15995">
        <ele>335</ele>
        <time>2016-10-02T07:16:33.000Z</time>
      </trkpt>
      <trkpt lat="45.91565" lon="1.16015">
        <ele>335</ele>
        <time>2016-10-02T07:16:37.000Z</time>
      </trkpt>
      <trkpt lat="45.91571" lon="1.16029">
        <ele>334</ele>
        <time>2016-10-02T07:16:40.000Z</time>
      </trkpt>
      <trkpt lat="45.91586" lon="1.16058">
        <ele>333</ele>
        <time>2016-10-02T07:16:45.000Z</time>
      </trkpt>
      <trkpt lat="45.91609" lon="1.16108">
        <ele>330</ele>
        <time>2016-10-02T07:16:53.000Z</time>
      </trkpt>
      <trkpt lat="45.91605" lon="1.16116">
        <ele>329</ele>
        <time>2016-10-02T07:16:56.000Z</time>
      </trkpt>
      <trkpt lat="45.91598" lon="1.16119">
        <ele>328</ele>
        <time>2016-10-02T07:16:58.000Z</time>
      </trkpt>
      <trkpt lat="45.91592" lon="1.16121">
        <ele>328</ele>
        <time>2016-10-02T07:17:00.000Z</time>
      </trkpt>
      <trkpt lat="45.91584" lon="1.16125">
        <ele>328</ele>
        <time>2016-10-02T07:17:02.000Z</time>
      </trkpt>
      <trkpt lat="45.91574" lon="1.16128">
        <ele>329</ele>
        <time>2016-10-02T07:17:06.000Z</time>
      </trkpt>
      <trkpt lat="45.91571" lon="1.16139">
        <ele>331</ele>
        <time>2016-10-02T07:17:10.000Z</time>
      </trkpt>
      <trkpt lat="45.91561" lon="1.16149">
        <ele>333</ele>
        <time>2016-10-02T07:17:15.000Z</time>
      </trkpt>
      <trkpt lat="45.91543" lon="1.16152">
        <ele>334</ele>
        <time>2016-10-02T07:17:20.000Z</time>
      </trkpt>
      <trkpt lat="45.91533" lon="1.16165">
        <ele>336</ele>
        <time>2016-10-02T07:17:25.000Z</time>
      </trkpt>
      <trkpt lat="45.91526" lon="1.16178">
        <ele>337</ele>
        <time>2016-10-02T07:17:30.000Z</time>
      </trkpt>
      <trkpt lat="45.91521" lon="1.16187">
        <ele>338</ele>
        <time>2016-10-02T07:17:33.000Z</time>
      </trkpt>
      <trkpt lat="45.91512" lon="1.16204">
        <ele>341</ele>
        <time>2016-10-02T07:17:40.000Z</time>
      </trkpt>
      <trkpt lat="45.91507" lon="1.16216">
        <ele>341</ele>
        <time>2016-10-02T07:17:47.000Z</time>
      </trkpt>
      <trkpt lat="45.915" lon="1.16219">
        <ele>342</ele>
        <time>2016-10-02T07:17:52.000Z</time>
      </trkpt>
      <trkpt lat="45.91489" lon="1.16224">
        <ele>344</ele>
        <time>2016-10-02T07:17:57.000Z</time>
      </trkpt>
      <trkpt lat="45.91479" lon="1.16231">
        <ele>345</ele>
        <time>2016-10-02T07:18:02.000Z</time>
      </trkpt>
      <trkpt lat="45.91476" lon="1.16241">
        <ele>346</ele>
        <time>2016-10-02T07:18:06.000Z</time>
      </trkpt>
      <trkpt lat="45.9147" lon="1.16247">
        <ele>346</ele>
        <time>2016-10-02T07:18:10.000Z</time>
      </trkpt>
      <trkpt lat="45.91469" lon="1.16255">
        <ele>346</ele>
        <time>2016-10-02T07:18:14.000Z</time>
      </trkpt>
      <trkpt lat="45.91459" lon="1.16273">
        <ele>344</ele>
        <time>2016-10-02T07:18:21.000Z</time>
      </trkpt>
      <trkpt lat="45.91452" lon="1.16277">
        <ele>343</ele>
        <time>2016-10-02T07:18:24.000Z</time>
      </trkpt>
      <trkpt lat="45.91444" lon="1.1628">
        <ele>341</ele>
        <time>2016-10-02T07:18:27.000Z</time>
      </trkpt>
      <trkpt lat="45.91417" lon="1.16312">
        <ele>338</ele>
        <time>2016-10-02T07:18:34.000Z</time>
      </trkpt>
      <trkpt lat="45.91406" lon="1.16314">
        <ele>338</ele>
        <time>2016-10-02T07:18:36.000Z</time>
      </trkpt>
      <trkpt lat="45.91376" lon="1.16305">
        <ele>337</ele>
        <time>2016-10-02T07:18:41.000Z</time>
      </trkpt>
      <trkpt lat="45.91362" lon="1.16294">
        <ele>337</ele>
        <time>2016-10-02T07:18:44.000Z</time>
      </trkpt>
      <trkpt lat="45.91339" lon="1.16277">
        <ele>339</ele>
        <time>2016-10-02T07:18:50.000Z</time>
      </trkpt>
      <trkpt lat="45.91314" lon="1.16271">
        <ele>342</ele>
        <time>2016-10-02T07:18:57.000Z</time>
      </trkpt>
      <trkpt lat="45.91291" lon="1.16266">
        <ele>346</ele>
        <time>2016-10-02T07:19:06.000Z</time>
      </trkpt>
      <trkpt lat="45.91249" lon="1.1624">
        <ele>356</ele>
        <time>2016-10-02T07:19:26.000Z</time>
      </trkpt>
      <trkpt lat="45.91246" lon="1.16239">
        <ele>357</ele>
        <time>2016-10-02T07:19:27.000Z</time>
      </trkpt>
      <trkpt lat="45.91204" lon="1.16214">
        <ele>356</ele>
        <time>2016-10-02T07:19:49.000Z</time>
      </trkpt>
      <trkpt lat="45.91201" lon="1.16212">
        <ele>356</ele>
        <time>2016-10-02T07:19:50.000Z</time>
      </trkpt>
      <trkpt lat="45.91185" lon="1.162">
        <ele>356</ele>
        <time>2016-10-02T07:19:59.000Z</time>
      </trkpt>
      <trkpt lat="45.91151" lon="1.16196">
        <ele>357</ele>
        <time>2016-10-02T07:20:08.000Z</time>
      </trkpt>
      <trkpt lat="45.91106" lon="1.16192">
        <ele>356</ele>
        <time>2016-10-02T07:20:20.000Z</time>
      </trkpt>
      <trkpt lat="45.91102" lon="1.16191">
        <ele>356</ele>
        <time>2016-10-02T07:20:21.000Z</time>
      </trkpt>
      <trkpt lat="45.91093" lon="1.16193">
        <ele>356</ele>
        <time>2016-10-02T07:20:23.000Z</time>
      </trkpt>
      <trkpt lat="45.91063" lon="1.16203">
        <ele>355</ele>
        <time>2016-10-02T07:20:30.000Z</time>
      </trkpt>
      <trkpt lat="45.91056" lon="1.16209">
        <ele>355</ele>
        <time>2016-10-02T07:20:32.000Z</time>
      </trkpt>
      <trkpt lat="45.91045" lon="1.16217">
        <ele>355</ele>
        <time>2016-10-02T07:20:35.000Z</time>
      </trkpt>
      <trkpt lat="45.91029" lon="1.16212">
        <ele>354</ele>
        <time>2016-10-02T07:20:38.000Z</time>
      </trkpt>
      <trkpt lat="45.91011" lon="1.16205">
        <ele>353</ele>
        <time>2016-10-02T07:20:42.000Z</time>
      </trkpt>
      <trkpt lat="45.91" lon="1.1621">
        <ele>353</ele>
        <time>2016-10-02T07:20:45.000Z</time>
      </trkpt>
      <trkpt lat="45.90968" lon="1.16241">
        <ele>355</ele>
        <time>2016-10-02T07:20:56.000Z</time>
      </trkpt>
      <trkpt lat="45.90957" lon="1.16242">
        <ele>355</ele>
        <time>2016-10-02T07:20:59.000Z</time>
      </trkpt>
      <trkpt lat="45.90934" lon="1.16231">
        <ele>354</ele>
        <time>2016-10-02T07:21:05.000Z</time>
      </trkpt>
      <trkpt lat="45.90907" lon="1.16213">
        <ele>355</ele>
        <time>2016-10-02T07:21:13.000Z</time>
      </trkpt>
      <trkpt lat="45.90868" lon="1.16197">
        <ele>360</ele>
        <time>2016-10-02T07:21:25.000Z</time>
      </trkpt>
      <trkpt lat="45.90866" lon="1.16189">
        <ele>361</ele>
        <time>2016-10-02T07:21:27.000Z</time>
      </trkpt>
      <trkpt lat="45.90864" lon="1.16123">
        <ele>363</ele>
        <time>2016-10-02T07:21:38.000Z</time>
      </trkpt>
      <trkpt lat="45.90863" lon="1.16116">
        <ele>363</ele>
        <time>2016-10-02T07:21:39.000Z</time>
      </trkpt>
      <trkpt lat="45.90861" lon="1.16104">
        <ele>363</ele>
        <time>2016-10-02T07:21:41.000Z</time>
      </trkpt>
      <trkpt lat="45.9086" lon="1.16084">
        <ele>363</ele>
        <time>2016-10-02T07:21:45.000Z</time>
      </trkpt>
      <trkpt lat="45.9087" lon="1.16071">
        <ele>362</ele>
        <time>2016-10-02T07:21:48.000Z</time>
      </trkpt>
      <trkpt lat="45.90884" lon="1.16061">
        <ele>361</ele>
        <time>2016-10-02T07:21:51.000Z</time>
      </trkpt>
      <trkpt lat="45.90907" lon="1.1605">
        <ele>362</ele>
        <time>2016-10-02T07:21:56.000Z</time>
      </trkpt>
      <trkpt lat="45.90919" lon="1.16044">
        <ele>362</ele>
        <time>2016-10-02T07:21:59.000Z</time>
      </trkpt>
      <trkpt lat="45.90924" lon="1.16034">
        <ele>362</ele>
        <time>2016-10-02T07:22:01.000Z</time>
      </trkpt>
      <trkpt lat="45.90925" lon="1.16021">
        <ele>361</ele>
        <time>2016-10-02T07:22:03.000Z</time>
      </trkpt>
      <trkpt lat="45.90923" lon="1.16006">
        <ele>361</ele>
        <time>2016-10-02T07:22:05.000Z</time>
      </trkpt>
      <trkpt lat="45.90915" lon="1.15988">
        <ele>360</ele>
        <time>2016-10-02T07:22:08.000Z</time>
      </trkpt>
      <trkpt lat="45.90901" lon="1.15974">
        <ele>359</ele>
        <time>2016-10-02T07:22:11.000Z</time>
      </trkpt>
      <trkpt lat="45.90877" lon="1.15961">
        <ele>358</ele>
        <time>2016-10-02T07:22:15.000Z</time>
      </trkpt>
      <trkpt lat="45.90837" lon="1.15931">
        <ele>358</ele>
        <time>2016-10-02T07:22:23.000Z</time>
      </trkpt>
      <trkpt lat="45.90832" lon="1.15928">
        <ele>358</ele>
        <time>2016-10-02T07:22:24.000Z</time>
      </trkpt>
      <trkpt lat="45.90823" lon="1.15923">
        <ele>358</ele>
        <time>2016-10-02T07:22:26.000Z</time>
      </trkpt>
      <trkpt lat="45.90779" lon="1.15902">
        <ele>358</ele>
        <time>2016-10-02T07:22:34.000Z</time>
      </trkpt>
      <trkpt lat="45.90776" lon="1.159">
        <ele>358</ele>
        <time>2016-10-02T07:22:35.000Z</time>
      </trkpt>
      <trkpt lat="45.90752" lon="1.15885">
        <ele>358</ele>
        <time>2016-10-02T07:22:41.000Z</time>
      </trkpt>
      <trkpt lat="45.90751" lon="1.15874">
        <ele>357</ele>
        <time>2016-10-02T07:22:43.000Z</time>
      </trkpt>
      <trkpt lat="45.90759" lon="1.15809">
        <ele>358</ele>
        <time>2016-10-02T07:22:51.000Z</time>
      </trkpt>
      <trkpt lat="45.9076" lon="1.15801">
        <ele>358</ele>
        <time>2016-10-02T07:22:52.000Z</time>
      </trkpt>
      <trkpt lat="45.90765" lon="1.15728">
        <ele>357</ele>
        <time>2016-10-02T07:22:59.000Z</time>
      </trkpt>
      <trkpt lat="45.90764" lon="1.15718">
        <ele>357</ele>
        <time>2016-10-02T07:23:00.000Z</time>
      </trkpt>
      <trkpt lat="45.90754" lon="1.15693">
        <ele>355</ele>
        <time>2016-10-02T07:23:03.000Z</time>
      </trkpt>
      <trkpt lat="45.90739" lon="1.15663">
        <ele>353</ele>
        <time>2016-10-02T07:23:07.000Z</time>
      </trkpt>
      <trkpt lat="45.90723" lon="1.15628">
        <ele>353</ele>
        <time>2016-10-02T07:23:12.000Z</time>
      </trkpt>
      <trkpt lat="45.90713" lon="1.15579">
        <ele>355</ele>
        <time>2016-10-02T07:23:22.000Z</time>
      </trkpt>
      <trkpt lat="45.90709" lon="1.15564">
        <ele>356</ele>
        <time>2016-10-02T07:23:27.000Z</time>
      </trkpt>
      <trkpt lat="45.90706" lon="1.15547">
        <ele>359</ele>
        <time>2016-10-02T07:23:33.000Z</time>
      </trkpt>
      <trkpt lat="45.90705" lon="1.15529">
        <ele>362</ele>
        <time>2016-10-02T07:23:39.000Z</time>
      </trkpt>
      <trkpt lat="45.90708" lon="1.15505">
        <ele>367</ele>
        <time>2016-10-02T07:23:49.000Z</time>
      </trkpt>
      <trkpt lat="45.90714" lon="1.15498">
        <ele>368</ele>
        <time>2016-10-02T07:23:52.000Z</time>
      </trkpt>
      <trkpt lat="45.90731" lon="1.15487">
        <ele>368</ele>
        <time>2016-10-02T07:23:57.000Z</time>
      </trkpt>
      <trkpt lat="45.90771" lon="1.15473">
        <ele>369</ele>
        <time>2016-10-02T07:24:06.000Z</time>
      </trkpt>
      <trkpt lat="45.90776" lon="1.15472">
        <ele>369</ele>
        <time>2016-10-02T07:24:07.000Z</time>
      </trkpt>
      <trkpt lat="45.90824" lon="1.15471">
        <ele>369</ele>
        <time>2016-10-02T07:24:16.000Z</time>
      </trkpt>
      <trkpt lat="45.90829" lon="1.15471">
        <ele>369</ele>
        <time>2016-10-02T07:24:17.000Z</time>
      </trkpt>
      <trkpt lat="45.90875" lon="1.15474">
        <ele>368</ele>
        <time>2016-10-02T07:24:25.000Z</time>
      </trkpt>
      <trkpt lat="45.90881" lon="1.15474">
        <ele>368</ele>
        <time>2016-10-02T07:24:26.000Z</time>
      </trkpt>
      <trkpt lat="45.90924" lon="1.15468">
        <ele>368</ele>
        <time>2016-10-02T07:24:33.000Z</time>
      </trkpt>
      <trkpt lat="45.90929" lon="1.15463">
        <ele>368</ele>
        <time>2016-10-02T07:24:34.000Z</time>
      </trkpt>
      <trkpt lat="45.90935" lon="1.15456">
        <ele>368</ele>
        <time>2016-10-02T07:24:35.000Z</time>
      </trkpt>
      <trkpt lat="45.90948" lon="1.1543">
        <ele>366</ele>
        <time>2016-10-02T07:24:38.000Z</time>
      </trkpt>
      <trkpt lat="45.9097" lon="1.15363">
        <ele>364</ele>
        <time>2016-10-02T07:24:44.000Z</time>
      </trkpt>
      <trkpt lat="45.90975" lon="1.15353">
        <ele>363</ele>
        <time>2016-10-02T07:24:45.000Z</time>
      </trkpt>
      <trkpt lat="45.90987" lon="1.1534">
        <ele>363</ele>
        <time>2016-10-02T07:24:47.000Z</time>
      </trkpt>
      <trkpt lat="45.91002" lon="1.15336">
        <ele>362</ele>
        <time>2016-10-02T07:24:49.000Z</time>
      </trkpt>
      <trkpt lat="45.91049" lon="1.15338">
        <ele>359</ele>
        <time>2016-10-02T07:24:55.000Z</time>
      </trkpt>
      <trkpt lat="45.91058" lon="1.15336">
        <ele>359</ele>
        <time>2016-10-02T07:24:56.000Z</time>
      </trkpt>
      <trkpt lat="45.91067" lon="1.15334">
        <ele>358</ele>
        <time>2016-10-02T07:24:57.000Z</time>
      </trkpt>
      <trkpt lat="45.91102" lon="1.15313">
        <ele>356</ele>
        <time>2016-10-02T07:25:01.000Z</time>
      </trkpt>
      <trkpt lat="45.91109" lon="1.15307">
        <ele>355</ele>
        <time>2016-10-02T07:25:02.000Z</time>
      </trkpt>
      <trkpt lat="45.91153" lon="1.15279">
        <ele>353</ele>
        <time>2016-10-02T07:25:08.000Z</time>
      </trkpt>
      <trkpt lat="45.91158" lon="1.15275">
        <ele>353</ele>
        <time>2016-10-02T07:25:09.000Z</time>
      </trkpt>
      <trkpt lat="45.91167" lon="1.15265">
        <ele>352</ele>
        <time>2016-10-02T07:25:11.000Z</time>
      </trkpt>
      <trkpt lat="45.91187" lon="1.15237">
        <ele>351</ele>
        <time>2016-10-02T07:25:16.000Z</time>
      </trkpt>
      <trkpt lat="45.91205" lon="1.15209">
        <ele>350</ele>
        <time>2016-10-02T07:25:22.000Z</time>
      </trkpt>
      <trkpt lat="45.91219" lon="1.15187">
        <ele>349</ele>
        <time>2016-10-02T07:25:26.000Z</time>
      </trkpt>
      <trkpt lat="45.9124" lon="1.15129">
        <ele>347</ele>
        <time>2016-10-02T07:25:33.000Z</time>
      </trkpt>
      <trkpt lat="45.91244" lon="1.15121">
        <ele>346</ele>
        <time>2016-10-02T07:25:34.000Z</time>
      </trkpt>
      <trkpt lat="45.9126" lon="1.15097">
        <ele>344</ele>
        <time>2016-10-02T07:25:38.000Z</time>
      </trkpt>
      <trkpt lat="45.9129" lon="1.15066">
        <ele>342</ele>
        <time>2016-10-02T07:25:44.000Z</time>
      </trkpt>
      <trkpt lat="45.91305" lon="1.15038">
        <ele>339</ele>
        <time>2016-10-02T07:25:48.000Z</time>
      </trkpt>
      <trkpt lat="45.91307" lon="1.15014">
        <ele>336</ele>
        <time>2016-10-02T07:25:52.000Z</time>
      </trkpt>
      <trkpt lat="45.91304" lon="1.14999">
        <ele>332</ele>
        <time>2016-10-02T07:25:55.000Z</time>
      </trkpt>
      <trkpt lat="45.91279" lon="1.1495">
        <ele>328</ele>
        <time>2016-10-02T07:26:03.000Z</time>
      </trkpt>
      <trkpt lat="45.91277" lon="1.14944">
        <ele>327</ele>
        <time>2016-10-02T07:26:04.000Z</time>
      </trkpt>
      <trkpt lat="45.91276" lon="1.14938">
        <ele>327</ele>
        <time>2016-10-02T07:26:05.000Z</time>
      </trkpt>
      <trkpt lat="45.91272" lon="1.14929">
        <ele>327</ele>
        <time>2016-10-02T07:26:07.000Z</time>
      </trkpt>
      <trkpt lat="45.91261" lon="1.14914">
        <ele>327</ele>
        <time>2016-10-02T07:26:11.000Z</time>
      </trkpt>
      <trkpt lat="45.91228" lon="1.14884">
        <ele>327</ele>
        <time>2016-10-02T07:26:19.000Z</time>
      </trkpt>
      <trkpt lat="45.91228" lon="1.14876">
        <ele>327</ele>
        <time>2016-10-02T07:26:22.000Z</time>
      </trkpt>
      <trkpt lat="45.91235" lon="1.14879">
        <ele>328</ele>
        <time>2016-10-02T07:26:27.000Z</time>
      </trkpt>
      <trkpt lat="45.91272" lon="1.14873">
        <ele>328</ele>
        <time>2016-10-02T07:26:34.000Z</time>
      </trkpt>
      <trkpt lat="45.91306" lon="1.14839">
        <ele>325</ele>
        <time>2016-10-02T07:26:41.000Z</time>
      </trkpt>
      <trkpt lat="45.9131" lon="1.14832">
        <ele>325</ele>
        <time>2016-10-02T07:26:42.000Z</time>
      </trkpt>
      <trkpt lat="45.91331" lon="1.14805">
        <ele>323</ele>
        <time>2016-10-02T07:26:47.000Z</time>
      </trkpt>
      <trkpt lat="45.91339" lon="1.14803">
        <ele>321</ele>
        <time>2016-10-02T07:26:50.000Z</time>
      </trkpt>
      <trkpt lat="45.91353" lon="1.14801">
        <ele>322</ele>
        <time>2016-10-02T07:26:57.000Z</time>
      </trkpt>
      <trkpt lat="45.91373" lon="1.14791">
        <ele>326</ele>
        <time>2016-10-02T07:27:09.000Z</time>
      </trkpt>
      <trkpt lat="45.9139" lon="1.14775">
        <ele>328</ele>
        <time>2016-10-02T07:27:19.000Z</time>
      </trkpt>
      <trkpt lat="45.91398" lon="1.14762">
        <ele>328</ele>
        <time>2016-10-02T07:27:24.000Z</time>
      </trkpt>
      <trkpt lat="45.91406" lon="1.14747">
        <ele>327</ele>
        <time>2016-10-02T07:27:30.000Z</time>
      </trkpt>
      <trkpt lat="45.91436" lon="1.14706">
        <ele>325</ele>
        <time>2016-10-02T07:27:40.000Z</time>
      </trkpt>
      <trkpt lat="45.91437" lon="1.147">
        <ele>325</ele>
        <time>2016-10-02T07:27:41.000Z</time>
      </trkpt>
      <trkpt lat="45.91439" lon="1.14685">
        <ele>325</ele>
        <time>2016-10-02T07:27:43.000Z</time>
      </trkpt>
      <trkpt lat="45.91435" lon="1.14673">
        <ele>325</ele>
        <time>2016-10-02T07:27:45.000Z</time>
      </trkpt>
      <trkpt lat="45.91427" lon="1.14659">
        <ele>325</ele>
        <time>2016-10-02T07:27:48.000Z</time>
      </trkpt>
      <trkpt lat="45.91418" lon="1.14645">
        <ele>324</ele>
        <time>2016-10-02T07:27:51.000Z</time>
      </trkpt>
      <trkpt lat="45.91386" lon="1.14599">
        <ele>322</ele>
        <time>2016-10-02T07:28:00.000Z</time>
      </trkpt>
      <trkpt lat="45.91381" lon="1.14593">
        <ele>322</ele>
        <time>2016-10-02T07:28:01.000Z</time>
      </trkpt>
      <trkpt lat="45.91371" lon="1.14574">
        <ele>322</ele>
        <time>2016-10-02T07:28:04.000Z</time>
      </trkpt>
      <trkpt lat="45.91366" lon="1.1456">
        <ele>322</ele>
        <time>2016-10-02T07:28:07.000Z</time>
      </trkpt>
      <trkpt lat="45.91365" lon="1.14551">
        <ele>322</ele>
        <time>2016-10-02T07:28:10.000Z</time>
      </trkpt>
      <trkpt lat="45.91379" lon="1.14516">
        <ele>324</ele>
        <time>2016-10-02T07:28:19.000Z</time>
      </trkpt>
      <trkpt lat="45.91378" lon="1.14506">
        <ele>324</ele>
        <time>2016-10-02T07:28:21.000Z</time>
      </trkpt>
      <trkpt lat="45.91372" lon="1.14497">
        <ele>325</ele>
        <time>2016-10-02T07:28:23.000Z</time>
      </trkpt>
      <trkpt lat="45.91365" lon="1.14494">
        <ele>325</ele>
        <time>2016-10-02T07:28:25.000Z</time>
      </trkpt>
      <trkpt lat="45.91356" lon="1.14498">
        <ele>326</ele>
        <time>2016-10-02T07:28:28.000Z</time>
      </trkpt>
      <trkpt lat="45.91332" lon="1.14512">
        <ele>328</ele>
        <time>2016-10-02T07:28:36.000Z</time>
      </trkpt>
      <trkpt lat="45.91323" lon="1.1451">
        <ele>329</ele>
        <time>2016-10-02T07:28:39.000Z</time>
      </trkpt>
      <trkpt lat="45.91278" lon="1.14493">
        <ele>328</ele>
        <time>2016-10-02T07:28:48.000Z</time>
      </trkpt>
      <trkpt lat="45.91272" lon="1.14492">
        <ele>328</ele>
        <time>2016-10-02T07:28:49.000Z</time>
      </trkpt>
      <trkpt lat="45.91266" lon="1.14492">
        <ele>328</ele>
        <time>2016-10-02T07:28:50.000Z</time>
      </trkpt>
      <trkpt lat="45.91221" lon="1.14499">
        <ele>330</ele>
        <time>2016-10-02T07:28:59.000Z</time>
      </trkpt>
      <trkpt lat="45.91216" lon="1.14499">
        <ele>330</ele>
        <time>2016-10-02T07:29:00.000Z</time>
      </trkpt>
      <trkpt lat="45.91192" lon="1.14504">
        <ele>331</ele>
        <time>2016-10-02T07:29:07.000Z</time>
      </trkpt>
      <trkpt lat="45.91167" lon="1.14522">
        <ele>334</ele>
        <time>2016-10-02T07:29:18.000Z</time>
      </trkpt>
      <trkpt lat="45.91168" lon="1.14529">
        <ele>337</ele>
        <time>2016-10-02T07:29:23.000Z</time>
      </trkpt>
      <trkpt lat="45.91188" lon="1.14532">
        <ele>337</ele>
        <time>2016-10-02T07:29:30.000Z</time>
      </trkpt>
      <trkpt lat="45.91222" lon="1.14538">
        <ele>335</ele>
        <time>2016-10-02T07:29:39.000Z</time>
      </trkpt>
      <trkpt lat="45.91234" lon="1.14549">
        <ele>335</ele>
        <time>2016-10-02T07:29:43.000Z</time>
      </trkpt>
      <trkpt lat="45.91247" lon="1.14567">
        <ele>336</ele>
        <time>2016-10-02T07:29:49.000Z</time>
      </trkpt>
      <trkpt lat="45.91248" lon="1.14575">
        <ele>336</ele>
        <time>2016-10-02T07:29:51.000Z</time>
      </trkpt>
      <trkpt lat="45.91248" lon="1.14585">
        <ele>336</ele>
        <time>2016-10-02T07:29:54.000Z</time>
      </trkpt>
      <trkpt lat="45.91242" lon="1.14593">
        <ele>337</ele>
        <time>2016-10-02T07:29:58.000Z</time>
      </trkpt>
      <trkpt lat="45.91236" lon="1.146">
        <ele>338</ele>
        <time>2016-10-02T07:30:02.000Z</time>
      </trkpt>
      <trkpt lat="45.91228" lon="1.14602">
        <ele>339</ele>
        <time>2016-10-02T07:30:06.000Z</time>
      </trkpt>
      <trkpt lat="45.91216" lon="1.146">
        <ele>340</ele>
        <time>2016-10-02T07:30:12.000Z</time>
      </trkpt>
      <trkpt lat="45.91171" lon="1.14592">
        <ele>343</ele>
        <time>2016-10-02T07:30:34.000Z</time>
      </trkpt>
      <trkpt lat="45.91169" lon="1.14591">
        <ele>344</ele>
        <time>2016-10-02T07:30:35.000Z</time>
      </trkpt>
      <trkpt lat="45.91129" lon="1.14582">
        <ele>350</ele>
        <time>2016-10-02T07:30:50.000Z</time>
      </trkpt>
      <trkpt lat="45.91092" lon="1.1459">
        <ele>356</ele>
        <time>2016-10-02T07:31:05.000Z</time>
      </trkpt>
      <trkpt lat="45.91045" lon="1.14595">
        <ele>355</ele>
        <time>2016-10-02T07:31:18.000Z</time>
      </trkpt>
      <trkpt lat="45.9104" lon="1.14596">
        <ele>355</ele>
        <time>2016-10-02T07:31:19.000Z</time>
      </trkpt>
      <trkpt lat="45.91003" lon="1.14599">
        <ele>354</ele>
        <time>2016-10-02T07:31:27.000Z</time>
      </trkpt>
      <trkpt lat="45.90956" lon="1.14604">
        <ele>355</ele>
        <time>2016-10-02T07:31:39.000Z</time>
      </trkpt>
      <trkpt lat="45.90952" lon="1.14601">
        <ele>355</ele>
        <time>2016-10-02T07:31:40.000Z</time>
      </trkpt>
      <trkpt lat="45.90948" lon="1.14597">
        <ele>354</ele>
        <time>2016-10-02T07:31:41.000Z</time>
      </trkpt>
      <trkpt lat="45.90938" lon="1.1458">
        <ele>354</ele>
        <time>2016-10-02T07:31:44.000Z</time>
      </trkpt>
      <trkpt lat="45.90929" lon="1.1455">
        <ele>353</ele>
        <time>2016-10-02T07:31:48.000Z</time>
      </trkpt>
      <trkpt lat="45.90916" lon="1.14515">
        <ele>353</ele>
        <time>2016-10-02T07:31:53.000Z</time>
      </trkpt>
      <trkpt lat="45.90907" lon="1.14511">
        <ele>353</ele>
        <time>2016-10-02T07:31:55.000Z</time>
      </trkpt>
      <trkpt lat="45.90861" lon="1.14519">
        <ele>355</ele>
        <time>2016-10-02T07:32:07.000Z</time>
      </trkpt>
      <trkpt lat="45.90857" lon="1.14519">
        <ele>356</ele>
        <time>2016-10-02T07:32:08.000Z</time>
      </trkpt>
      <trkpt lat="45.90842" lon="1.14518">
        <ele>357</ele>
        <time>2016-10-02T07:32:12.000Z</time>
      </trkpt>
      <trkpt lat="45.90835" lon="1.14514">
        <ele>358</ele>
        <time>2016-10-02T07:32:14.000Z</time>
      </trkpt>
      <trkpt lat="45.90825" lon="1.14504">
        <ele>358</ele>
        <time>2016-10-02T07:32:17.000Z</time>
      </trkpt>
      <trkpt lat="45.90817" lon="1.14491">
        <ele>359</ele>
        <time>2016-10-02T07:32:20.000Z</time>
      </trkpt>
      <trkpt lat="45.90789" lon="1.14438">
        <ele>361</ele>
        <time>2016-10-02T07:32:32.000Z</time>
      </trkpt>
      <trkpt lat="45.90788" lon="1.14434">
        <ele>361</ele>
        <time>2016-10-02T07:32:33.000Z</time>
      </trkpt>
      <trkpt lat="45.90781" lon="1.14427">
        <ele>360</ele>
        <time>2016-10-02T07:32:35.000Z</time>
      </trkpt>
      <trkpt lat="45.90773" lon="1.14425">
        <ele>360</ele>
        <time>2016-10-02T07:32:37.000Z</time>
      </trkpt>
      <trkpt lat="45.90725" lon="1.14435">
        <ele>361</ele>
        <time>2016-10-02T07:32:47.000Z</time>
      </trkpt>
      <trkpt lat="45.9072" lon="1.14436">
        <ele>361</ele>
        <time>2016-10-02T07:32:48.000Z</time>
      </trkpt>
      <trkpt lat="45.90673" lon="1.14448">
        <ele>362</ele>
        <time>2016-10-02T07:32:58.000Z</time>
      </trkpt>
      <trkpt lat="45.90668" lon="1.14448">
        <ele>362</ele>
        <time>2016-10-02T07:32:59.000Z</time>
      </trkpt>
      <trkpt lat="45.90644" lon="1.14447">
        <ele>362</ele>
        <time>2016-10-02T07:33:04.000Z</time>
      </trkpt>
      <trkpt lat="45.9063" lon="1.14443">
        <ele>363</ele>
        <time>2016-10-02T07:33:07.000Z</time>
      </trkpt>
      <trkpt lat="45.9058" lon="1.14452">
        <ele>363</ele>
        <time>2016-10-02T07:33:17.000Z</time>
      </trkpt>
      <trkpt lat="45.90575" lon="1.14453">
        <ele>363</ele>
        <time>2016-10-02T07:33:18.000Z</time>
      </trkpt>
      <trkpt lat="45.90549" lon="1.14462">
        <ele>363</ele>
        <time>2016-10-02T07:33:23.000Z</time>
      </trkpt>
      <trkpt lat="45.90501" lon="1.14477">
        <ele>363</ele>
        <time>2016-10-02T07:33:31.000Z</time>
      </trkpt>
      <trkpt lat="45.90495" lon="1.14477">
        <ele>363</ele>
        <time>2016-10-02T07:33:32.000Z</time>
      </trkpt>
      <trkpt lat="45.90451" lon="1.14467">
        <ele>363</ele>
        <time>2016-10-02T07:33:39.000Z</time>
      </trkpt>
      <trkpt lat="45.90445" lon="1.14464">
        <ele>363</ele>
        <time>2016-10-02T07:33:40.000Z</time>
      </trkpt>
      <trkpt lat="45.90399" lon="1.14449">
        <ele>362</ele>
        <time>2016-10-02T07:33:47.000Z</time>
      </trkpt>
      <trkpt lat="45.90392" lon="1.14447">
        <ele>362</ele>
        <time>2016-10-02T07:33:48.000Z</time>
      </trkpt>
      <trkpt lat="45.90343" lon="1.14429">
        <ele>361</ele>
        <time>2016-10-02T07:33:55.000Z</time>
      </trkpt>
      <trkpt lat="45.90336" lon="1.14427">
        <ele>361</ele>
        <time>2016-10-02T07:33:56.000Z</time>
      </trkpt>
      <trkpt lat="45.90287" lon="1.1441">
        <ele>360</ele>
        <time>2016-10-02T07:34:03.000Z</time>
      </trkpt>
      <trkpt lat="45.90281" lon="1.14408">
        <ele>360</ele>
        <time>2016-10-02T07:34:04.000Z</time>
      </trkpt>
      <trkpt lat="45.9026" lon="1.14397">
        <ele>360</ele>
        <time>2016-10-02T07:34:08.000Z</time>
      </trkpt>
      <trkpt lat="45.90256" lon="1.14386">
        <ele>360</ele>
        <time>2016-10-02T07:34:10.000Z</time>
      </trkpt>
      <trkpt lat="45.90251" lon="1.1435">
        <ele>361</ele>
        <time>2016-10-02T07:34:15.000Z</time>
      </trkpt>
      <trkpt lat="45.9024" lon="1.14284">
        <ele>359</ele>
        <time>2016-10-02T07:34:23.000Z</time>
      </trkpt>
      <trkpt lat="45.90239" lon="1.14275">
        <ele>359</ele>
        <time>2016-10-02T07:34:24.000Z</time>
      </trkpt>
      <trkpt lat="45.90229" lon="1.14209">
        <ele>355</ele>
        <time>2016-10-02T07:34:31.000Z</time>
      </trkpt>
      <trkpt lat="45.90228" lon="1.142">
        <ele>354</ele>
        <time>2016-10-02T07:34:32.000Z</time>
      </trkpt>
      <trkpt lat="45.90218" lon="1.14135">
        <ele>350</ele>
        <time>2016-10-02T07:34:39.000Z</time>
      </trkpt>
      <trkpt lat="45.90216" lon="1.14124">
        <ele>350</ele>
        <time>2016-10-02T07:34:40.000Z</time>
      </trkpt>
      <trkpt lat="45.90206" lon="1.14055">
        <ele>349</ele>
        <time>2016-10-02T07:34:47.000Z</time>
      </trkpt>
      <trkpt lat="45.90205" lon="1.14045">
        <ele>349</ele>
        <time>2016-10-02T07:34:48.000Z</time>
      </trkpt>
      <trkpt lat="45.90196" lon="1.13975">
        <ele>350</ele>
        <time>2016-10-02T07:34:55.000Z</time>
      </trkpt>
      <trkpt lat="45.90195" lon="1.13966">
        <ele>350</ele>
        <time>2016-10-02T07:34:56.000Z</time>
      </trkpt>
      <trkpt lat="45.90186" lon="1.13896">
        <ele>352</ele>
        <time>2016-10-02T07:35:03.000Z</time>
      </trkpt>
      <trkpt lat="45.90185" lon="1.13886">
        <ele>353</ele>
        <time>2016-10-02T07:35:04.000Z</time>
      </trkpt>
      <trkpt lat="45.90172" lon="1.13818">
        <ele>353</ele>
        <time>2016-10-02T07:35:11.000Z</time>
      </trkpt>
      <trkpt lat="45.90171" lon="1.13807">
        <ele>352</ele>
        <time>2016-10-02T07:35:12.000Z</time>
      </trkpt>
      <trkpt lat="45.90161" lon="1.13742">
        <ele>349</ele>
        <time>2016-10-02T07:35:18.000Z</time>
      </trkpt>
      <trkpt lat="45.9016" lon="1.13731">
        <ele>348</ele>
        <time>2016-10-02T07:35:19.000Z</time>
      </trkpt>
      <trkpt lat="45.90151" lon="1.1369">
        <ele>347</ele>
        <time>2016-10-02T07:35:23.000Z</time>
      </trkpt>
      <trkpt lat="45.90136" lon="1.13645">
        <ele>345</ele>
        <time>2016-10-02T07:35:28.000Z</time>
      </trkpt>
      <trkpt lat="45.90124" lon="1.13577">
        <ele>339</ele>
        <time>2016-10-02T07:35:35.000Z</time>
      </trkpt>
      <trkpt lat="45.90122" lon="1.13568">
        <ele>339</ele>
        <time>2016-10-02T07:35:36.000Z</time>
      </trkpt>
      <trkpt lat="45.90114" lon="1.13508">
        <ele>335</ele>
        <time>2016-10-02T07:35:42.000Z</time>
      </trkpt>
      <trkpt lat="45.90112" lon="1.135">
        <ele>335</ele>
        <time>2016-10-02T07:35:43.000Z</time>
      </trkpt>
      <trkpt lat="45.90096" lon="1.13432">
        <ele>334</ele>
        <time>2016-10-02T07:35:52.000Z</time>
      </trkpt>
      <trkpt lat="45.90093" lon="1.13423">
        <ele>334</ele>
        <time>2016-10-02T07:35:53.000Z</time>
      </trkpt>
      <trkpt lat="45.9009" lon="1.13415">
        <ele>334</ele>
        <time>2016-10-02T07:35:54.000Z</time>
      </trkpt>
      <trkpt lat="45.90065" lon="1.13355">
        <ele>334</ele>
        <time>2016-10-02T07:36:01.000Z</time>
      </trkpt>
      <trkpt lat="45.90062" lon="1.13346">
        <ele>335</ele>
        <time>2016-10-02T07:36:02.000Z</time>
      </trkpt>
      <trkpt lat="45.90038" lon="1.13279">
        <ele>335</ele>
        <time>2016-10-02T07:36:09.000Z</time>
      </trkpt>
      <trkpt lat="45.90037" lon="1.13269">
        <ele>334</ele>
        <time>2016-10-02T07:36:10.000Z</time>
      </trkpt>
      <trkpt lat="45.90037" lon="1.13259">
        <ele>334</ele>
        <time>2016-10-02T07:36:11.000Z</time>
      </trkpt>
      <trkpt lat="45.90042" lon="1.13191">
        <ele>334</ele>
        <time>2016-10-02T07:36:18.000Z</time>
      </trkpt>
      <trkpt lat="45.90042" lon="1.13181">
        <ele>334</ele>
        <time>2016-10-02T07:36:19.000Z</time>
      </trkpt>
      <trkpt lat="45.90052" lon="1.13116">
        <ele>332</ele>
        <time>2016-10-02T07:36:26.000Z</time>
      </trkpt>
      <trkpt lat="45.90055" lon="1.13107">
        <ele>332</ele>
        <time>2016-10-02T07:36:27.000Z</time>
      </trkpt>
      <trkpt lat="45.90073" lon="1.13048">
        <ele>333</ele>
        <time>2016-10-02T07:36:34.000Z</time>
      </trkpt>
      <trkpt lat="45.90075" lon="1.13038">
        <ele>333</ele>
        <time>2016-10-02T07:36:35.000Z</time>
      </trkpt>
      <trkpt lat="45.90098" lon="1.12973">
        <ele>332</ele>
        <time>2016-10-02T07:36:42.000Z</time>
      </trkpt>
      <trkpt lat="45.90101" lon="1.12964">
        <ele>332</ele>
        <time>2016-10-02T07:36:43.000Z</time>
      </trkpt>
      <trkpt lat="45.90126" lon="1.12907">
        <ele>331</ele>
        <time>2016-10-02T07:36:50.000Z</time>
      </trkpt>
      <trkpt lat="45.90129" lon="1.12899">
        <ele>331</ele>
        <time>2016-10-02T07:36:51.000Z</time>
      </trkpt>
      <trkpt lat="45.90136" lon="1.12869">
        <ele>331</ele>
        <time>2016-10-02T07:36:55.000Z</time>
      </trkpt>
      <trkpt lat="45.90144" lon="1.12804">
        <ele>331</ele>
        <time>2016-10-02T07:37:02.000Z</time>
      </trkpt>
      <trkpt lat="45.90146" lon="1.12794">
        <ele>330</ele>
        <time>2016-10-02T07:37:03.000Z</time>
      </trkpt>
      <trkpt lat="45.90154" lon="1.12748">
        <ele>329</ele>
        <time>2016-10-02T07:37:08.000Z</time>
      </trkpt>
      <trkpt lat="45.9016" lon="1.12676">
        <ele>327</ele>
        <time>2016-10-02T07:37:15.000Z</time>
      </trkpt>
      <trkpt lat="45.9016" lon="1.12665">
        <ele>327</ele>
        <time>2016-10-02T07:37:16.000Z</time>
      </trkpt>
      <trkpt lat="45.90168" lon="1.12591">
        <ele>326</ele>
        <time>2016-10-02T07:37:23.000Z</time>
      </trkpt>
      <trkpt lat="45.90169" lon="1.12581">
        <ele>326</ele>
        <time>2016-10-02T07:37:24.000Z</time>
      </trkpt>
      <trkpt lat="45.90176" lon="1.12512">
        <ele>326</ele>
        <time>2016-10-02T07:37:31.000Z</time>
      </trkpt>
      <trkpt lat="45.90176" lon="1.12502">
        <ele>326</ele>
        <time>2016-10-02T07:37:32.000Z</time>
      </trkpt>
      <trkpt lat="45.90179" lon="1.12471">
        <ele>326</ele>
        <time>2016-10-02T07:37:35.000Z</time>
      </trkpt>
      <trkpt lat="45.90187" lon="1.12403">
        <ele>327</ele>
        <time>2016-10-02T07:37:42.000Z</time>
      </trkpt>
      <trkpt lat="45.90188" lon="1.12393">
        <ele>327</ele>
        <time>2016-10-02T07:37:43.000Z</time>
      </trkpt>
      <trkpt lat="45.90194" lon="1.12328">
        <ele>329</ele>
        <time>2016-10-02T07:37:51.000Z</time>
      </trkpt>
      <trkpt lat="45.90194" lon="1.1232">
        <ele>329</ele>
        <time>2016-10-02T07:37:52.000Z</time>
      </trkpt>
      <trkpt lat="45.90193" lon="1.12306">
        <ele>328</ele>
        <time>2016-10-02T07:37:54.000Z</time>
      </trkpt>
      <trkpt lat="45.90194" lon="1.12295">
        <ele>328</ele>
        <time>2016-10-02T07:37:56.000Z</time>
      </trkpt>
      <trkpt lat="45.90205" lon="1.12227">
        <ele>326</ele>
        <time>2016-10-02T07:38:05.000Z</time>
      </trkpt>
      <trkpt lat="45.90207" lon="1.12218">
        <ele>325</ele>
        <time>2016-10-02T07:38:06.000Z</time>
      </trkpt>
      <trkpt lat="45.90221" lon="1.12153">
        <ele>325</ele>
        <time>2016-10-02T07:38:13.000Z</time>
      </trkpt>
      <trkpt lat="45.90223" lon="1.12144">
        <ele>325</ele>
        <time>2016-10-02T07:38:14.000Z</time>
      </trkpt>
      <trkpt lat="45.90236" lon="1.12079">
        <ele>323</ele>
        <time>2016-10-02T07:38:21.000Z</time>
      </trkpt>
      <trkpt lat="45.90237" lon="1.12072">
        <ele>323</ele>
        <time>2016-10-02T07:38:22.000Z</time>
      </trkpt>
      <trkpt lat="45.90243" lon="1.12014">
        <ele>320</ele>
        <time>2016-10-02T07:38:29.000Z</time>
      </trkpt>
      <trkpt lat="45.90243" lon="1.12004">
        <ele>320</ele>
        <time>2016-10-02T07:38:30.000Z</time>
      </trkpt>
      <trkpt lat="45.9024" lon="1.11937">
        <ele>319</ele>
        <time>2016-10-02T07:38:37.000Z</time>
      </trkpt>
      <trkpt lat="45.9024" lon="1.1193">
        <ele>319</ele>
        <time>2016-10-02T07:38:38.000Z</time>
      </trkpt>
      <trkpt lat="45.90241" lon="1.11923">
        <ele>319</ele>
        <time>2016-10-02T07:38:39.000Z</time>
      </trkpt>
      <trkpt lat="45.90246" lon="1.11916">
        <ele>319</ele>
        <time>2016-10-02T07:38:41.000Z</time>
      </trkpt>
      <trkpt lat="45.90296" lon="1.11907">
        <ele>317</ele>
        <time>2016-10-02T07:38:49.000Z</time>
      </trkpt>
      <trkpt lat="45.90303" lon="1.11906">
        <ele>317</ele>
        <time>2016-10-02T07:38:50.000Z</time>
      </trkpt>
      <trkpt lat="45.9035" lon="1.11895">
        <ele>316</ele>
        <time>2016-10-02T07:38:57.000Z</time>
      </trkpt>
      <trkpt lat="45.90356" lon="1.11894">
        <ele>316</ele>
        <time>2016-10-02T07:38:58.000Z</time>
      </trkpt>
      <trkpt lat="45.90403" lon="1.11886">
        <ele>316</ele>
        <time>2016-10-02T07:39:05.000Z</time>
      </trkpt>
      <trkpt lat="45.90408" lon="1.11886">
        <ele>317</ele>
        <time>2016-10-02T07:39:06.000Z</time>
      </trkpt>
      <trkpt lat="45.90458" lon="1.1188">
        <ele>317</ele>
        <time>2016-10-02T07:39:15.000Z</time>
      </trkpt>
      <trkpt lat="45.90464" lon="1.11879">
        <ele>317</ele>
        <time>2016-10-02T07:39:16.000Z</time>
      </trkpt>
      <trkpt lat="45.90511" lon="1.11872">
        <ele>316</ele>
        <time>2016-10-02T07:39:23.000Z</time>
      </trkpt>
      <trkpt lat="45.90518" lon="1.11871">
        <ele>315</ele>
        <time>2016-10-02T07:39:24.000Z</time>
      </trkpt>
      <trkpt lat="45.90564" lon="1.11864">
        <ele>313</ele>
        <time>2016-10-02T07:39:30.000Z</time>
      </trkpt>
      <trkpt lat="45.90571" lon="1.11862">
        <ele>313</ele>
        <time>2016-10-02T07:39:31.000Z</time>
      </trkpt>
      <trkpt lat="45.90617" lon="1.11855">
        <ele>310</ele>
        <time>2016-10-02T07:39:37.000Z</time>
      </trkpt>
      <trkpt lat="45.90623" lon="1.11854">
        <ele>310</ele>
        <time>2016-10-02T07:39:38.000Z</time>
      </trkpt>
      <trkpt lat="45.90672" lon="1.11847">
        <ele>310</ele>
        <time>2016-10-02T07:39:46.000Z</time>
      </trkpt>
      <trkpt lat="45.90677" lon="1.11846">
        <ele>311</ele>
        <time>2016-10-02T07:39:47.000Z</time>
      </trkpt>
      <trkpt lat="45.90726" lon="1.11835">
        <ele>311</ele>
        <time>2016-10-02T07:39:56.000Z</time>
      </trkpt>
      <trkpt lat="45.90731" lon="1.11831">
        <ele>311</ele>
        <time>2016-10-02T07:39:57.000Z</time>
      </trkpt>
      <trkpt lat="45.90748" lon="1.1181">
        <ele>312</ele>
        <time>2016-10-02T07:40:01.000Z</time>
      </trkpt>
      <trkpt lat="45.90759" lon="1.11781">
        <ele>313</ele>
        <time>2016-10-02T07:40:05.000Z</time>
      </trkpt>
      <trkpt lat="45.90774" lon="1.1172">
        <ele>314</ele>
        <time>2016-10-02T07:40:14.000Z</time>
      </trkpt>
      <trkpt lat="45.90776" lon="1.11713">
        <ele>314</ele>
        <time>2016-10-02T07:40:15.000Z</time>
      </trkpt>
      <trkpt lat="45.90791" lon="1.11647">
        <ele>314</ele>
        <time>2016-10-02T07:40:23.000Z</time>
      </trkpt>
      <trkpt lat="45.90792" lon="1.11639">
        <ele>314</ele>
        <time>2016-10-02T07:40:24.000Z</time>
      </trkpt>
      <trkpt lat="45.90808" lon="1.11576">
        <ele>314</ele>
        <time>2016-10-02T07:40:33.000Z</time>
      </trkpt>
      <trkpt lat="45.90812" lon="1.1157">
        <ele>314</ele>
        <time>2016-10-02T07:40:34.000Z</time>
      </trkpt>
      <trkpt lat="45.90817" lon="1.11556">
        <ele>314</ele>
        <time>2016-10-02T07:40:36.000Z</time>
      </trkpt>
      <trkpt lat="45.90831" lon="1.11486">
        <ele>314</ele>
        <time>2016-10-02T07:40:44.000Z</time>
      </trkpt>
      <trkpt lat="45.90833" lon="1.11477">
        <ele>314</ele>
        <time>2016-10-02T07:40:45.000Z</time>
      </trkpt>
      <trkpt lat="45.90837" lon="1.11469">
        <ele>313</ele>
        <time>2016-10-02T07:40:46.000Z</time>
      </trkpt>
      <trkpt lat="45.90845" lon="1.11459">
        <ele>313</ele>
        <time>2016-10-02T07:40:48.000Z</time>
      </trkpt>
      <trkpt lat="45.90863" lon="1.11449">
        <ele>312</ele>
        <time>2016-10-02T07:40:51.000Z</time>
      </trkpt>
      <trkpt lat="45.90911" lon="1.1144">
        <ele>310</ele>
        <time>2016-10-02T07:40:58.000Z</time>
      </trkpt>
      <trkpt lat="45.90918" lon="1.11439">
        <ele>310</ele>
        <time>2016-10-02T07:40:59.000Z</time>
      </trkpt>
      <trkpt lat="45.90967" lon="1.11432">
        <ele>308</ele>
        <time>2016-10-02T07:41:05.000Z</time>
      </trkpt>
      <trkpt lat="45.90976" lon="1.11431">
        <ele>307</ele>
        <time>2016-10-02T07:41:06.000Z</time>
      </trkpt>
      <trkpt lat="45.91026" lon="1.11424">
        <ele>305</ele>
        <time>2016-10-02T07:41:13.000Z</time>
      </trkpt>
      <trkpt lat="45.91032" lon="1.11424">
        <ele>304</ele>
        <time>2016-10-02T07:41:14.000Z</time>
      </trkpt>
      <trkpt lat="45.91062" lon="1.11415">
        <ele>304</ele>
        <time>2016-10-02T07:41:19.000Z</time>
      </trkpt>
      <trkpt lat="45.91096" lon="1.11401">
        <ele>303</ele>
        <time>2016-10-02T07:41:24.000Z</time>
      </trkpt>
      <trkpt lat="45.91143" lon="1.11398">
        <ele>302</ele>
        <time>2016-10-02T07:41:30.000Z</time>
      </trkpt>
      <trkpt lat="45.91151" lon="1.114">
        <ele>302</ele>
        <time>2016-10-02T07:41:31.000Z</time>
      </trkpt>
      <trkpt lat="45.91198" lon="1.11409">
        <ele>300</ele>
        <time>2016-10-02T07:41:38.000Z</time>
      </trkpt>
      <trkpt lat="45.91205" lon="1.1141">
        <ele>300</ele>
        <time>2016-10-02T07:41:39.000Z</time>
      </trkpt>
      <trkpt lat="45.91239" lon="1.11413">
        <ele>298</ele>
        <time>2016-10-02T07:41:44.000Z</time>
      </trkpt>
      <trkpt lat="45.91247" lon="1.11405">
        <ele>297</ele>
        <time>2016-10-02T07:41:46.000Z</time>
      </trkpt>
      <trkpt lat="45.91264" lon="1.11378">
        <ele>295</ele>
        <time>2016-10-02T07:41:52.000Z</time>
      </trkpt>
      <trkpt lat="45.91281" lon="1.11371">
        <ele>295</ele>
        <time>2016-10-02T07:41:58.000Z</time>
      </trkpt>
      <trkpt lat="45.91286" lon="1.11376">
        <ele>294</ele>
        <time>2016-10-02T07:42:00.000Z</time>
      </trkpt>
      <trkpt lat="45.91304" lon="1.11393">
        <ele>293</ele>
        <time>2016-10-02T07:42:06.000Z</time>
      </trkpt>
      <trkpt lat="45.9132" lon="1.11399">
        <ele>294</ele>
        <time>2016-10-02T07:42:10.000Z</time>
      </trkpt>
      <trkpt lat="45.91361" lon="1.11407">
        <ele>297</ele>
        <time>2016-10-02T07:42:19.000Z</time>
      </trkpt>
      <trkpt lat="45.91375" lon="1.11413">
        <ele>298</ele>
        <time>2016-10-02T07:42:23.000Z</time>
      </trkpt>
      <trkpt lat="45.91396" lon="1.11414">
        <ele>299</ele>
        <time>2016-10-02T07:42:28.000Z</time>
      </trkpt>
      <trkpt lat="45.91442" lon="1.11426">
        <ele>298</ele>
        <time>2016-10-02T07:42:38.000Z</time>
      </trkpt>
      <trkpt lat="45.91446" lon="1.11425">
        <ele>297</ele>
        <time>2016-10-02T07:42:39.000Z</time>
      </trkpt>
      <trkpt lat="45.91451" lon="1.11418">
        <ele>296</ele>
        <time>2016-10-02T07:42:42.000Z</time>
      </trkpt>
      <trkpt lat="45.9146" lon="1.1139">
        <ele>294</ele>
        <time>2016-10-02T07:42:52.000Z</time>
      </trkpt>
      <trkpt lat="45.91462" lon="1.11351">
        <ele>297</ele>
        <time>2016-10-02T07:43:03.000Z</time>
      </trkpt>
      <trkpt lat="45.91465" lon="1.11304">
        <ele>302</ele>
        <time>2016-10-02T07:43:16.000Z</time>
      </trkpt>
      <trkpt lat="45.91468" lon="1.11283">
        <ele>304</ele>
        <time>2016-10-02T07:43:22.000Z</time>
      </trkpt>
      <trkpt lat="45.91469" lon="1.11271">
        <ele>305</ele>
        <time>2016-10-02T07:43:25.000Z</time>
      </trkpt>
      <trkpt lat="45.91471" lon="1.1126">
        <ele>306</ele>
        <time>2016-10-02T07:43:28.000Z</time>
      </trkpt>
      <trkpt lat="45.91475" lon="1.11255">
        <ele>307</ele>
        <time>2016-10-02T07:43:30.000Z</time>
      </trkpt>
      <trkpt lat="45.9151" lon="1.11265">
        <ele>309</ele>
        <time>2016-10-02T07:43:42.000Z</time>
      </trkpt>
      <trkpt lat="45.91528" lon="1.11269">
        <ele>309</ele>
        <time>2016-10-02T07:43:48.000Z</time>
      </trkpt>
      <trkpt lat="45.91533" lon="1.11262">
        <ele>309</ele>
        <time>2016-10-02T07:43:51.000Z</time>
      </trkpt>
      <trkpt lat="45.91549" lon="1.11204">
        <ele>312</ele>
        <time>2016-10-02T07:44:10.000Z</time>
      </trkpt>
      <trkpt lat="45.9155" lon="1.11201">
        <ele>312</ele>
        <time>2016-10-02T07:44:11.000Z</time>
      </trkpt>
      <trkpt lat="45.91566" lon="1.11138">
        <ele>313</ele>
        <time>2016-10-02T07:44:33.000Z</time>
      </trkpt>
      <trkpt lat="45.91567" lon="1.11135">
        <ele>313</ele>
        <time>2016-10-02T07:44:34.000Z</time>
      </trkpt>
      <trkpt lat="45.91583" lon="1.11073">
        <ele>318</ele>
        <time>2016-10-02T07:44:53.000Z</time>
      </trkpt>
      <trkpt lat="45.91584" lon="1.1107">
        <ele>318</ele>
        <time>2016-10-02T07:44:54.000Z</time>
      </trkpt>
      <trkpt lat="45.91602" lon="1.11007">
        <ele>323</ele>
        <time>2016-10-02T07:45:14.000Z</time>
      </trkpt>
      <trkpt lat="45.91603" lon="1.11004">
        <ele>323</ele>
        <time>2016-10-02T07:45:15.000Z</time>
      </trkpt>
      <trkpt lat="45.91606" lon="1.10997">
        <ele>324</ele>
        <time>2016-10-02T07:45:17.000Z</time>
      </trkpt>
      <trkpt lat="45.91609" lon="1.1099">
        <ele>324</ele>
        <time>2016-10-02T07:45:19.000Z</time>
      </trkpt>
      <trkpt lat="45.91629" lon="1.10931">
        <ele>325</ele>
        <time>2016-10-02T07:45:33.000Z</time>
      </trkpt>
      <trkpt lat="45.91631" lon="1.10927">
        <ele>325</ele>
        <time>2016-10-02T07:45:34.000Z</time>
      </trkpt>
      <trkpt lat="45.9164" lon="1.10894">
        <ele>325</ele>
        <time>2016-10-02T07:45:40.000Z</time>
      </trkpt>
      <trkpt lat="45.91651" lon="1.10829">
        <ele>323</ele>
        <time>2016-10-02T07:45:49.000Z</time>
      </trkpt>
      <trkpt lat="45.91652" lon="1.10821">
        <ele>323</ele>
        <time>2016-10-02T07:45:50.000Z</time>
      </trkpt>
      <trkpt lat="45.91662" lon="1.10755">
        <ele>322</ele>
        <time>2016-10-02T07:45:59.000Z</time>
      </trkpt>
      <trkpt lat="45.91663" lon="1.1075">
        <ele>322</ele>
        <time>2016-10-02T07:46:00.000Z</time>
      </trkpt>
      <trkpt lat="45.91666" lon="1.10747">
        <ele>322</ele>
        <time>2016-10-02T07:46:01.000Z</time>
      </trkpt>
      <trkpt lat="45.91671" lon="1.10749">
        <ele>321</ele>
        <time>2016-10-02T07:46:03.000Z</time>
      </trkpt>
      <trkpt lat="45.91694" lon="1.10775">
        <ele>320</ele>
        <time>2016-10-02T07:46:09.000Z</time>
      </trkpt>
      <trkpt lat="45.91743" lon="1.10795">
        <ele>317</ele>
        <time>2016-10-02T07:46:16.000Z</time>
      </trkpt>
      <trkpt lat="45.91751" lon="1.10799">
        <ele>317</ele>
        <time>2016-10-02T07:46:17.000Z</time>
      </trkpt>
      <trkpt lat="45.91798" lon="1.10815">
        <ele>313</ele>
        <time>2016-10-02T07:46:22.000Z</time>
      </trkpt>
      <trkpt lat="45.91807" lon="1.10817">
        <ele>312</ele>
        <time>2016-10-02T07:46:23.000Z</time>
      </trkpt>
      <trkpt lat="45.91857" lon="1.10822">
        <ele>307</ele>
        <time>2016-10-02T07:46:29.000Z</time>
      </trkpt>
      <trkpt lat="45.91863" lon="1.1082">
        <ele>306</ele>
        <time>2016-10-02T07:46:30.000Z</time>
      </trkpt>
      <trkpt lat="45.91869" lon="1.10814">
        <ele>305</ele>
        <time>2016-10-02T07:46:31.000Z</time>
      </trkpt>
      <trkpt lat="45.9188" lon="1.10783">
        <ele>303</ele>
        <time>2016-10-02T07:46:34.000Z</time>
      </trkpt>
      <trkpt lat="45.91889" lon="1.10714">
        <ele>302</ele>
        <time>2016-10-02T07:46:40.000Z</time>
      </trkpt>
      <trkpt lat="45.9189" lon="1.10704">
        <ele>302</ele>
        <time>2016-10-02T07:46:41.000Z</time>
      </trkpt>
      <trkpt lat="45.91897" lon="1.10633">
        <ele>301</ele>
        <time>2016-10-02T07:46:48.000Z</time>
      </trkpt>
      <trkpt lat="45.91897" lon="1.10622">
        <ele>301</ele>
        <time>2016-10-02T07:46:49.000Z</time>
      </trkpt>
      <trkpt lat="45.91893" lon="1.10553">
        <ele>299</ele>
        <time>2016-10-02T07:46:55.000Z</time>
      </trkpt>
      <trkpt lat="45.91891" lon="1.10542">
        <ele>299</ele>
        <time>2016-10-02T07:46:56.000Z</time>
      </trkpt>
      <trkpt lat="45.91887" lon="1.10477">
        <ele>299</ele>
        <time>2016-10-02T07:47:02.000Z</time>
      </trkpt>
      <trkpt lat="45.91886" lon="1.10467">
        <ele>299</ele>
        <time>2016-10-02T07:47:03.000Z</time>
      </trkpt>
      <trkpt lat="45.91877" lon="1.10397">
        <ele>300</ele>
        <time>2016-10-02T07:47:10.000Z</time>
      </trkpt>
      <trkpt lat="45.91876" lon="1.10387">
        <ele>300</ele>
        <time>2016-10-02T07:47:11.000Z</time>
      </trkpt>
      <trkpt lat="45.9187" lon="1.10347">
        <ele>301</ele>
        <time>2016-10-02T07:47:15.000Z</time>
      </trkpt>
      <trkpt lat="45.9186" lon="1.10277">
        <ele>300</ele>
        <time>2016-10-02T07:47:22.000Z</time>
      </trkpt>
      <trkpt lat="45.91859" lon="1.10266">
        <ele>300</ele>
        <time>2016-10-02T07:47:23.000Z</time>
      </trkpt>
      <trkpt lat="45.91853" lon="1.102">
        <ele>299</ele>
        <time>2016-10-02T07:47:29.000Z</time>
      </trkpt>
      <trkpt lat="45.91852" lon="1.10189">
        <ele>299</ele>
        <time>2016-10-02T07:47:30.000Z</time>
      </trkpt>
      <trkpt lat="45.91851" lon="1.10138">
        <ele>299</ele>
        <time>2016-10-02T07:47:35.000Z</time>
      </trkpt>
      <trkpt lat="45.91848" lon="1.10072">
        <ele>299</ele>
        <time>2016-10-02T07:47:42.000Z</time>
      </trkpt>
      <trkpt lat="45.91848" lon="1.10062">
        <ele>299</ele>
        <time>2016-10-02T07:47:43.000Z</time>
      </trkpt>
      <trkpt lat="45.91848" lon="1.09993">
        <ele>298</ele>
        <time>2016-10-02T07:47:50.000Z</time>
      </trkpt>
      <trkpt lat="45.91848" lon="1.09983">
        <ele>298</ele>
        <time>2016-10-02T07:47:51.000Z</time>
      </trkpt>
      <trkpt lat="45.9185" lon="1.09965">
        <ele>298</ele>
        <time>2016-10-02T07:47:53.000Z</time>
      </trkpt>
      <trkpt lat="45.9186" lon="1.09942">
        <ele>298</ele>
        <time>2016-10-02T07:47:56.000Z</time>
      </trkpt>
      <trkpt lat="45.9189" lon="1.09893">
        <ele>297</ele>
        <time>2016-10-02T07:48:03.000Z</time>
      </trkpt>
      <trkpt lat="45.91895" lon="1.09886">
        <ele>297</ele>
        <time>2016-10-02T07:48:04.000Z</time>
      </trkpt>
      <trkpt lat="45.91928" lon="1.09839">
        <ele>296</ele>
        <time>2016-10-02T07:48:11.000Z</time>
      </trkpt>
      <trkpt lat="45.91934" lon="1.09832">
        <ele>296</ele>
        <time>2016-10-02T07:48:12.000Z</time>
      </trkpt>
      <trkpt lat="45.9197" lon="1.09795">
        <ele>296</ele>
        <time>2016-10-02T07:48:19.000Z</time>
      </trkpt>
      <trkpt lat="45.91974" lon="1.09792">
        <ele>296</ele>
        <time>2016-10-02T07:48:20.000Z</time>
      </trkpt>
      <trkpt lat="45.9201" lon="1.0975">
        <ele>295</ele>
        <time>2016-10-02T07:48:28.000Z</time>
      </trkpt>
      <trkpt lat="45.92015" lon="1.09745">
        <ele>295</ele>
        <time>2016-10-02T07:48:29.000Z</time>
      </trkpt>
      <trkpt lat="45.92053" lon="1.09708">
        <ele>294</ele>
        <time>2016-10-02T07:48:36.000Z</time>
      </trkpt>
      <trkpt lat="45.92057" lon="1.09701">
        <ele>294</ele>
        <time>2016-10-02T07:48:37.000Z</time>
      </trkpt>
      <trkpt lat="45.92082" lon="1.09665">
        <ele>291</ele>
        <time>2016-10-02T07:48:43.000Z</time>
      </trkpt>
      <trkpt lat="45.92101" lon="1.09629">
        <ele>289</ele>
        <time>2016-10-02T07:48:48.000Z</time>
      </trkpt>
      <trkpt lat="45.92124" lon="1.0961">
        <ele>287</ele>
        <time>2016-10-02T07:48:52.000Z</time>
      </trkpt>
      <trkpt lat="45.92164" lon="1.0957">
        <ele>287</ele>
        <time>2016-10-02T07:48:59.000Z</time>
      </trkpt>
      <trkpt lat="45.92169" lon="1.09563">
        <ele>287</ele>
        <time>2016-10-02T07:49:00.000Z</time>
      </trkpt>
      <trkpt lat="45.92183" lon="1.09549">
        <ele>287</ele>
        <time>2016-10-02T07:49:03.000Z</time>
      </trkpt>
      <trkpt lat="45.9222" lon="1.09541">
        <ele>287</ele>
        <time>2016-10-02T07:49:09.000Z</time>
      </trkpt>
      <trkpt lat="45.92228" lon="1.09528">
        <ele>288</ele>
        <time>2016-10-02T07:49:11.000Z</time>
      </trkpt>
      <trkpt lat="45.92229" lon="1.09514">
        <ele>289</ele>
        <time>2016-10-02T07:49:13.000Z</time>
      </trkpt>
      <trkpt lat="45.92225" lon="1.09488">
        <ele>294</ele>
        <time>2016-10-02T07:49:17.000Z</time>
      </trkpt>
      <trkpt lat="45.92211" lon="1.09454">
        <ele>299</ele>
        <time>2016-10-02T07:49:22.000Z</time>
      </trkpt>
      <trkpt lat="45.92199" lon="1.09437">
        <ele>300</ele>
        <time>2016-10-02T07:49:25.000Z</time>
      </trkpt>
      <trkpt lat="45.92161" lon="1.09397">
        <ele>301</ele>
        <time>2016-10-02T07:49:33.000Z</time>
      </trkpt>
      <trkpt lat="45.92156" lon="1.09391">
        <ele>301</ele>
        <time>2016-10-02T07:49:34.000Z</time>
      </trkpt>
      <trkpt lat="45.92123" lon="1.09343">
        <ele>299</ele>
        <time>2016-10-02T07:49:42.000Z</time>
      </trkpt>
      <trkpt lat="45.9212" lon="1.09336">
        <ele>299</ele>
        <time>2016-10-02T07:49:43.000Z</time>
      </trkpt>
      <trkpt lat="45.92112" lon="1.09315">
        <ele>297</ele>
        <time>2016-10-02T07:49:46.000Z</time>
      </trkpt>
      <trkpt lat="45.92111" lon="1.09295">
        <ele>296</ele>
        <time>2016-10-02T07:49:49.000Z</time>
      </trkpt>
      <trkpt lat="45.92116" lon="1.09286">
        <ele>296</ele>
        <time>2016-10-02T07:49:51.000Z</time>
      </trkpt>
      <trkpt lat="45.92158" lon="1.09263">
        <ele>295</ele>
        <time>2016-10-02T07:50:00.000Z</time>
      </trkpt>
      <trkpt lat="45.92163" lon="1.0926">
        <ele>295</ele>
        <time>2016-10-02T07:50:01.000Z</time>
      </trkpt>
      <trkpt lat="45.92172" lon="1.09255">
        <ele>295</ele>
        <time>2016-10-02T07:50:03.000Z</time>
      </trkpt>
      <trkpt lat="45.92219" lon="1.09233">
        <ele>296</ele>
        <time>2016-10-02T07:50:13.000Z</time>
      </trkpt>
      <trkpt lat="45.92225" lon="1.09231">
        <ele>295</ele>
        <time>2016-10-02T07:50:14.000Z</time>
      </trkpt>
      <trkpt lat="45.92273" lon="1.0922">
        <ele>296</ele>
        <time>2016-10-02T07:50:22.000Z</time>
      </trkpt>
      <trkpt lat="45.9228" lon="1.09218">
        <ele>296</ele>
        <time>2016-10-02T07:50:23.000Z</time>
      </trkpt>
      <trkpt lat="45.92319" lon="1.09214">
        <ele>294</ele>
        <time>2016-10-02T07:50:29.000Z</time>
      </trkpt>
      <trkpt lat="45.92365" lon="1.09221">
        <ele>290</ele>
        <time>2016-10-02T07:50:37.000Z</time>
      </trkpt>
      <trkpt lat="45.92371" lon="1.09222">
        <ele>290</ele>
        <time>2016-10-02T07:50:38.000Z</time>
      </trkpt>
      <trkpt lat="45.92419" lon="1.09222">
        <ele>287</ele>
        <time>2016-10-02T07:50:46.000Z</time>
      </trkpt>
      <trkpt lat="45.92425" lon="1.09223">
        <ele>286</ele>
        <time>2016-10-02T07:50:47.000Z</time>
      </trkpt>
      <trkpt lat="45.92476" lon="1.09222">
        <ele>284</ele>
        <time>2016-10-02T07:50:54.000Z</time>
      </trkpt>
      <trkpt lat="45.92484" lon="1.09221">
        <ele>284</ele>
        <time>2016-10-02T07:50:55.000Z</time>
      </trkpt>
      <trkpt lat="45.92529" lon="1.09195">
        <ele>280</ele>
        <time>2016-10-02T07:51:01.000Z</time>
      </trkpt>
      <trkpt lat="45.92537" lon="1.0919">
        <ele>280</ele>
        <time>2016-10-02T07:51:02.000Z</time>
      </trkpt>
      <trkpt lat="45.92582" lon="1.09159">
        <ele>279</ele>
        <time>2016-10-02T07:51:08.000Z</time>
      </trkpt>
      <trkpt lat="45.9259" lon="1.09153">
        <ele>279</ele>
        <time>2016-10-02T07:51:09.000Z</time>
      </trkpt>
      <trkpt lat="45.92627" lon="1.09127">
        <ele>279</ele>
        <time>2016-10-02T07:51:15.000Z</time>
      </trkpt>
      <trkpt lat="45.92632" lon="1.09127">
        <ele>279</ele>
        <time>2016-10-02T07:51:16.000Z</time>
      </trkpt>
      <trkpt lat="45.9264" lon="1.09129">
        <ele>279</ele>
        <time>2016-10-02T07:51:18.000Z</time>
      </trkpt>
      <trkpt lat="45.9265" lon="1.09131">
        <ele>279</ele>
        <time>2016-10-02T07:51:21.000Z</time>
      </trkpt>
      <trkpt lat="45.92657" lon="1.09131">
        <ele>279</ele>
        <time>2016-10-02T07:51:25.000Z</time>
      </trkpt>
      <trkpt lat="45.9267" lon="1.09136">
        <ele>282</ele>
        <time>2016-10-02T07:51:36.000Z</time>
      </trkpt>
      <trkpt lat="45.92675" lon="1.09137">
        <ele>288</ele>
        <time>2016-10-02T07:53:42.000Z</time>
      </trkpt>
      <trkpt lat="45.92677" lon="1.09128">
        <ele>287</ele>
        <time>2016-10-02T07:53:50.000Z</time>
      </trkpt>
      <trkpt lat="45.92682" lon="1.09097">
        <ele>287</ele>
        <time>2016-10-02T07:53:56.000Z</time>
      </trkpt>
      <trkpt lat="45.92696" lon="1.0903">
        <ele>286</ele>
        <time>2016-10-02T07:54:06.000Z</time>
      </trkpt>
      <trkpt lat="45.92697" lon="1.09023">
        <ele>286</ele>
        <time>2016-10-02T07:54:07.000Z</time>
      </trkpt>
      <trkpt lat="45.9271" lon="1.08959">
        <ele>287</ele>
        <time>2016-10-02T07:54:17.000Z</time>
      </trkpt>
      <trkpt lat="45.92711" lon="1.08953">
        <ele>287</ele>
        <time>2016-10-02T07:54:18.000Z</time>
      </trkpt>
      <trkpt lat="45.92724" lon="1.08885">
        <ele>285</ele>
        <time>2016-10-02T07:54:27.000Z</time>
      </trkpt>
      <trkpt lat="45.92727" lon="1.08876">
        <ele>285</ele>
        <time>2016-10-02T07:54:28.000Z</time>
      </trkpt>
      <trkpt lat="45.92743" lon="1.08814">
        <ele>283</ele>
        <time>2016-10-02T07:54:35.000Z</time>
      </trkpt>
      <trkpt lat="45.92746" lon="1.08805">
        <ele>282</ele>
        <time>2016-10-02T07:54:36.000Z</time>
      </trkpt>
      <trkpt lat="45.92762" lon="1.08744">
        <ele>281</ele>
        <time>2016-10-02T07:54:43.000Z</time>
      </trkpt>
      <trkpt lat="45.92765" lon="1.08735">
        <ele>281</ele>
        <time>2016-10-02T07:54:44.000Z</time>
      </trkpt>
      <trkpt lat="45.92784" lon="1.08671">
        <ele>278</ele>
        <time>2016-10-02T07:54:51.000Z</time>
      </trkpt>
      <trkpt lat="45.92789" lon="1.08667">
        <ele>278</ele>
        <time>2016-10-02T07:54:52.000Z</time>
      </trkpt>
      <trkpt lat="45.92795" lon="1.08666">
        <ele>277</ele>
        <time>2016-10-02T07:54:53.000Z</time>
      </trkpt>
      <trkpt lat="45.92845" lon="1.08659">
        <ele>275</ele>
        <time>2016-10-02T07:55:00.000Z</time>
      </trkpt>
      <trkpt lat="45.92853" lon="1.08658">
        <ele>275</ele>
        <time>2016-10-02T07:55:01.000Z</time>
      </trkpt>
      <trkpt lat="45.929" lon="1.0865">
        <ele>273</ele>
        <time>2016-10-02T07:55:07.000Z</time>
      </trkpt>
      <trkpt lat="45.92908" lon="1.08649">
        <ele>273</ele>
        <time>2016-10-02T07:55:08.000Z</time>
      </trkpt>
      <trkpt lat="45.92957" lon="1.0864">
        <ele>272</ele>
        <time>2016-10-02T07:55:14.000Z</time>
      </trkpt>
      <trkpt lat="45.92965" lon="1.08638">
        <ele>272</ele>
        <time>2016-10-02T07:55:15.000Z</time>
      </trkpt>
      <trkpt lat="45.93016" lon="1.08631">
        <ele>272</ele>
        <time>2016-10-02T07:55:22.000Z</time>
      </trkpt>
      <trkpt lat="45.93023" lon="1.08629">
        <ele>272</ele>
        <time>2016-10-02T07:55:23.000Z</time>
      </trkpt>
      <trkpt lat="45.93064" lon="1.08622">
        <ele>271</ele>
        <time>2016-10-02T07:55:29.000Z</time>
      </trkpt>
      <trkpt lat="45.93071" lon="1.08624">
        <ele>271</ele>
        <time>2016-10-02T07:55:30.000Z</time>
      </trkpt>
      <trkpt lat="45.93092" lon="1.08635">
        <ele>270</ele>
        <time>2016-10-02T07:55:33.000Z</time>
      </trkpt>
      <trkpt lat="45.93131" lon="1.08669">
        <ele>270</ele>
        <time>2016-10-02T07:55:39.000Z</time>
      </trkpt>
      <trkpt lat="45.93137" lon="1.08674">
        <ele>270</ele>
        <time>2016-10-02T07:55:40.000Z</time>
      </trkpt>
      <trkpt lat="45.93178" lon="1.08705">
        <ele>269</ele>
        <time>2016-10-02T07:55:47.000Z</time>
      </trkpt>
      <trkpt lat="45.93184" lon="1.08709">
        <ele>269</ele>
        <time>2016-10-02T07:55:48.000Z</time>
      </trkpt>
      <trkpt lat="45.93191" lon="1.08712">
        <ele>269</ele>
        <time>2016-10-02T07:55:49.000Z</time>
      </trkpt>
      <trkpt lat="45.93234" lon="1.08737">
        <ele>269</ele>
        <time>2016-10-02T07:55:56.000Z</time>
      </trkpt>
      <trkpt lat="45.9324" lon="1.08742">
        <ele>269</ele>
        <time>2016-10-02T07:55:57.000Z</time>
      </trkpt>
      <trkpt lat="45.93252" lon="1.08752">
        <ele>269</ele>
        <time>2016-10-02T07:55:59.000Z</time>
      </trkpt>
      <trkpt lat="45.93284" lon="1.08796">
        <ele>269</ele>
        <time>2016-10-02T07:56:06.000Z</time>
      </trkpt>
      <trkpt lat="45.93286" lon="1.08805">
        <ele>269</ele>
        <time>2016-10-02T07:56:07.000Z</time>
      </trkpt>
      <trkpt lat="45.93286" lon="1.08813">
        <ele>269</ele>
        <time>2016-10-02T07:56:08.000Z</time>
      </trkpt>
      <trkpt lat="45.93281" lon="1.08825">
        <ele>270</ele>
        <time>2016-10-02T07:56:10.000Z</time>
      </trkpt>
      <trkpt lat="45.93271" lon="1.08829">
        <ele>271</ele>
        <time>2016-10-02T07:56:12.000Z</time>
      </trkpt>
      <trkpt lat="45.93256" lon="1.08833">
        <ele>271</ele>
        <time>2016-10-02T07:56:15.000Z</time>
      </trkpt>
      <trkpt lat="45.93238" lon="1.08836">
        <ele>271</ele>
        <time>2016-10-02T07:56:18.000Z</time>
      </trkpt>
      <trkpt lat="45.93219" lon="1.08857">
        <ele>270</ele>
        <time>2016-10-02T07:56:22.000Z</time>
      </trkpt>
      <trkpt lat="45.932" lon="1.08895">
        <ele>270</ele>
        <time>2016-10-02T07:56:27.000Z</time>
      </trkpt>
      <trkpt lat="45.93179" lon="1.0896">
        <ele>269</ele>
        <time>2016-10-02T07:56:34.000Z</time>
      </trkpt>
      <trkpt lat="45.93176" lon="1.08969">
        <ele>268</ele>
        <time>2016-10-02T07:56:35.000Z</time>
      </trkpt>
      <trkpt lat="45.93169" lon="1.09001">
        <ele>267</ele>
        <time>2016-10-02T07:56:38.000Z</time>
      </trkpt>
      <trkpt lat="45.93174" lon="1.09036">
        <ele>265</ele>
        <time>2016-10-02T07:56:41.000Z</time>
      </trkpt>
      <trkpt lat="45.93187" lon="1.09055">
        <ele>264</ele>
        <time>2016-10-02T07:56:43.000Z</time>
      </trkpt>
      <trkpt lat="45.93208" lon="1.09085">
        <ele>262</ele>
        <time>2016-10-02T07:56:46.000Z</time>
      </trkpt>
      <trkpt lat="45.93222" lon="1.0915">
        <ele>258</ele>
        <time>2016-10-02T07:56:51.000Z</time>
      </trkpt>
      <trkpt lat="45.93224" lon="1.09163">
        <ele>258</ele>
        <time>2016-10-02T07:56:52.000Z</time>
      </trkpt>
      <trkpt lat="45.93235" lon="1.09223">
        <ele>257</ele>
        <time>2016-10-02T07:56:57.000Z</time>
      </trkpt>
      <trkpt lat="45.93236" lon="1.09234">
        <ele>257</ele>
        <time>2016-10-02T07:56:58.000Z</time>
      </trkpt>
      <trkpt lat="45.93238" lon="1.0928">
        <ele>258</ele>
        <time>2016-10-02T07:57:03.000Z</time>
      </trkpt>
      <trkpt lat="45.93231" lon="1.0934">
        <ele>260</ele>
        <time>2016-10-02T07:57:11.000Z</time>
      </trkpt>
      <trkpt lat="45.93231" lon="1.09347">
        <ele>261</ele>
        <time>2016-10-02T07:57:12.000Z</time>
      </trkpt>
      <trkpt lat="45.93231" lon="1.09367">
        <ele>261</ele>
        <time>2016-10-02T07:57:15.000Z</time>
      </trkpt>
      <trkpt lat="45.93235" lon="1.09392">
        <ele>263</ele>
        <time>2016-10-02T07:57:19.000Z</time>
      </trkpt>
      <trkpt lat="45.93254" lon="1.09432">
        <ele>267</ele>
        <time>2016-10-02T07:57:26.000Z</time>
      </trkpt>
      <trkpt lat="45.93272" lon="1.09459">
        <ele>272</ele>
        <time>2016-10-02T07:57:32.000Z</time>
      </trkpt>
      <trkpt lat="45.93316" lon="1.09483">
        <ele>276</ele>
        <time>2016-10-02T07:57:45.000Z</time>
      </trkpt>
      <trkpt lat="45.93319" lon="1.09485">
        <ele>276</ele>
        <time>2016-10-02T07:57:46.000Z</time>
      </trkpt>
      <trkpt lat="45.93337" lon="1.09498">
        <ele>276</ele>
        <time>2016-10-02T07:57:52.000Z</time>
      </trkpt>
      <trkpt lat="45.93383" lon="1.09527">
        <ele>276</ele>
        <time>2016-10-02T07:58:02.000Z</time>
      </trkpt>
      <trkpt lat="45.93388" lon="1.0953">
        <ele>276</ele>
        <time>2016-10-02T07:58:03.000Z</time>
      </trkpt>
      <trkpt lat="45.93431" lon="1.09559">
        <ele>274</ele>
        <time>2016-10-02T07:58:12.000Z</time>
      </trkpt>
      <trkpt lat="45.93436" lon="1.09563">
        <ele>274</ele>
        <time>2016-10-02T07:58:13.000Z</time>
      </trkpt>
      <trkpt lat="45.93478" lon="1.09596">
        <ele>271</ele>
        <time>2016-10-02T07:58:21.000Z</time>
      </trkpt>
      <trkpt lat="45.93484" lon="1.09599">
        <ele>271</ele>
        <time>2016-10-02T07:58:22.000Z</time>
      </trkpt>
      <trkpt lat="45.93491" lon="1.09601">
        <ele>271</ele>
        <time>2016-10-02T07:58:23.000Z</time>
      </trkpt>
      <trkpt lat="45.9351" lon="1.09603">
        <ele>269</ele>
        <time>2016-10-02T07:58:26.000Z</time>
      </trkpt>
      <trkpt lat="45.93522" lon="1.09598">
        <ele>268</ele>
        <time>2016-10-02T07:58:28.000Z</time>
      </trkpt>
      <trkpt lat="45.93537" lon="1.0958">
        <ele>268</ele>
        <time>2016-10-02T07:58:31.000Z</time>
      </trkpt>
      <trkpt lat="45.93562" lon="1.09535">
        <ele>266</ele>
        <time>2016-10-02T07:58:37.000Z</time>
      </trkpt>
      <trkpt lat="45.93566" lon="1.09527">
        <ele>265</ele>
        <time>2016-10-02T07:58:38.000Z</time>
      </trkpt>
      <trkpt lat="45.93582" lon="1.09511">
        <ele>264</ele>
        <time>2016-10-02T07:58:41.000Z</time>
      </trkpt>
      <trkpt lat="45.93628" lon="1.09497">
        <ele>263</ele>
        <time>2016-10-02T07:58:48.000Z</time>
      </trkpt>
      <trkpt lat="45.93635" lon="1.09495">
        <ele>263</ele>
        <time>2016-10-02T07:58:49.000Z</time>
      </trkpt>
      <trkpt lat="45.9368" lon="1.09482">
        <ele>265</ele>
        <time>2016-10-02T07:58:56.000Z</time>
      </trkpt>
      <trkpt lat="45.93686" lon="1.09478">
        <ele>266</ele>
        <time>2016-10-02T07:58:57.000Z</time>
      </trkpt>
      <trkpt lat="45.9371" lon="1.09469">
        <ele>267</ele>
        <time>2016-10-02T07:59:01.000Z</time>
      </trkpt>
      <trkpt lat="45.9376" lon="1.09483">
        <ele>267</ele>
        <time>2016-10-02T07:59:09.000Z</time>
      </trkpt>
      <trkpt lat="45.93766" lon="1.09485">
        <ele>267</ele>
        <time>2016-10-02T07:59:10.000Z</time>
      </trkpt>
      <trkpt lat="45.93811" lon="1.09497">
        <ele>266</ele>
        <time>2016-10-02T07:59:18.000Z</time>
      </trkpt>
      <trkpt lat="45.93817" lon="1.095">
        <ele>266</ele>
        <time>2016-10-02T07:59:19.000Z</time>
      </trkpt>
      <trkpt lat="45.93827" lon="1.09505">
        <ele>266</ele>
        <time>2016-10-02T07:59:21.000Z</time>
      </trkpt>
      <trkpt lat="45.93869" lon="1.09531">
        <ele>267</ele>
        <time>2016-10-02T07:59:30.000Z</time>
      </trkpt>
      <trkpt lat="45.93871" lon="1.09535">
        <ele>268</ele>
        <time>2016-10-02T07:59:31.000Z</time>
      </trkpt>
      <trkpt lat="45.93871" lon="1.0954">
        <ele>268</ele>
        <time>2016-10-02T07:59:32.000Z</time>
      </trkpt>
      <trkpt lat="45.93873" lon="1.09605">
        <ele>271</ele>
        <time>2016-10-02T07:59:42.000Z</time>
      </trkpt>
      <trkpt lat="45.93873" lon="1.09611">
        <ele>272</ele>
        <time>2016-10-02T07:59:43.000Z</time>
      </trkpt>
      <trkpt lat="45.93873" lon="1.09622">
        <ele>273</ele>
        <time>2016-10-02T07:59:45.000Z</time>
      </trkpt>
      <trkpt lat="45.93867" lon="1.09638">
        <ele>275</ele>
        <time>2016-10-02T07:59:49.000Z</time>
      </trkpt>
      <trkpt lat="45.93825" lon="1.09674">
        <ele>276</ele>
        <time>2016-10-02T07:59:58.000Z</time>
      </trkpt>
      <trkpt lat="45.93822" lon="1.09679">
        <ele>276</ele>
        <time>2016-10-02T07:59:59.000Z</time>
      </trkpt>
      <trkpt lat="45.93822" lon="1.09691">
        <ele>276</ele>
        <time>2016-10-02T08:00:01.000Z</time>
      </trkpt>
      <trkpt lat="45.93825" lon="1.09706">
        <ele>277</ele>
        <time>2016-10-02T08:00:03.000Z</time>
      </trkpt>
      <trkpt lat="45.93842" lon="1.09769">
        <ele>281</ele>
        <time>2016-10-02T08:00:11.000Z</time>
      </trkpt>
      <trkpt lat="45.93845" lon="1.09778">
        <ele>282</ele>
        <time>2016-10-02T08:00:12.000Z</time>
      </trkpt>
      <trkpt lat="45.93856" lon="1.09841">
        <ele>284</ele>
        <time>2016-10-02T08:00:19.000Z</time>
      </trkpt>
      <trkpt lat="45.93858" lon="1.0985">
        <ele>284</ele>
        <time>2016-10-02T08:00:20.000Z</time>
      </trkpt>
      <trkpt lat="45.93874" lon="1.09916">
        <ele>284</ele>
        <time>2016-10-02T08:00:28.000Z</time>
      </trkpt>
      <trkpt lat="45.93876" lon="1.09925">
        <ele>284</ele>
        <time>2016-10-02T08:00:29.000Z</time>
      </trkpt>
      <trkpt lat="45.93891" lon="1.09993">
        <ele>281</ele>
        <time>2016-10-02T08:00:36.000Z</time>
      </trkpt>
      <trkpt lat="45.93893" lon="1.10002">
        <ele>280</ele>
        <time>2016-10-02T08:00:37.000Z</time>
      </trkpt>
      <trkpt lat="45.93908" lon="1.10064">
        <ele>275</ele>
        <time>2016-10-02T08:00:44.000Z</time>
      </trkpt>
      <trkpt lat="45.9391" lon="1.10072">
        <ele>274</ele>
        <time>2016-10-02T08:00:45.000Z</time>
      </trkpt>
      <trkpt lat="45.93918" lon="1.10103">
        <ele>272</ele>
        <time>2016-10-02T08:00:49.000Z</time>
      </trkpt>
      <trkpt lat="45.93946" lon="1.10157">
        <ele>270</ele>
        <time>2016-10-02T08:00:58.000Z</time>
      </trkpt>
      <trkpt lat="45.9395" lon="1.10162">
        <ele>270</ele>
        <time>2016-10-02T08:00:59.000Z</time>
      </trkpt>
      <trkpt lat="45.93961" lon="1.10179">
        <ele>270</ele>
        <time>2016-10-02T08:01:02.000Z</time>
      </trkpt>
      <trkpt lat="45.93989" lon="1.10226">
        <ele>273</ele>
        <time>2016-10-02T08:01:12.000Z</time>
      </trkpt>
      <trkpt lat="45.93989" lon="1.10231">
        <ele>273</ele>
        <time>2016-10-02T08:01:13.000Z</time>
      </trkpt>
      <trkpt lat="45.93988" lon="1.10235">
        <ele>273</ele>
        <time>2016-10-02T08:01:14.000Z</time>
      </trkpt>
      <trkpt lat="45.93955" lon="1.10282">
        <ele>273</ele>
        <time>2016-10-02T08:01:24.000Z</time>
      </trkpt>
      <trkpt lat="45.93951" lon="1.10287">
        <ele>273</ele>
        <time>2016-10-02T08:01:25.000Z</time>
      </trkpt>
      <trkpt lat="45.93917" lon="1.10335">
        <ele>273</ele>
        <time>2016-10-02T08:01:33.000Z</time>
      </trkpt>
      <trkpt lat="45.93913" lon="1.10341">
        <ele>273</ele>
        <time>2016-10-02T08:01:34.000Z</time>
      </trkpt>
      <trkpt lat="45.93889" lon="1.10376">
        <ele>272</ele>
        <time>2016-10-02T08:01:40.000Z</time>
      </trkpt>
      <trkpt lat="45.93888" lon="1.10389">
        <ele>272</ele>
        <time>2016-10-02T08:01:42.000Z</time>
      </trkpt>
      <trkpt lat="45.93895" lon="1.10396">
        <ele>271</ele>
        <time>2016-10-02T08:01:44.000Z</time>
      </trkpt>
      <trkpt lat="45.93925" lon="1.10405">
        <ele>270</ele>
        <time>2016-10-02T08:01:49.000Z</time>
      </trkpt>
      <trkpt lat="45.93971" lon="1.10382">
        <ele>269</ele>
        <time>2016-10-02T08:01:58.000Z</time>
      </trkpt>
      <trkpt lat="45.93976" lon="1.10381">
        <ele>269</ele>
        <time>2016-10-02T08:01:59.000Z</time>
      </trkpt>
      <trkpt lat="45.94021" lon="1.10364">
        <ele>270</ele>
        <time>2016-10-02T08:02:09.000Z</time>
      </trkpt>
      <trkpt lat="45.94025" lon="1.10362">
        <ele>270</ele>
        <time>2016-10-02T08:02:10.000Z</time>
      </trkpt>
      <trkpt lat="45.94071" lon="1.1035">
        <ele>271</ele>
        <time>2016-10-02T08:02:21.000Z</time>
      </trkpt>
      <trkpt lat="45.94075" lon="1.10349">
        <ele>271</ele>
        <time>2016-10-02T08:02:22.000Z</time>
      </trkpt>
      <trkpt lat="45.94107" lon="1.10344">
        <ele>271</ele>
        <time>2016-10-02T08:02:29.000Z</time>
      </trkpt>
      <trkpt lat="45.94143" lon="1.10335">
        <ele>269</ele>
        <time>2016-10-02T08:02:36.000Z</time>
      </trkpt>
      <trkpt lat="45.94153" lon="1.10329">
        <ele>269</ele>
        <time>2016-10-02T08:02:38.000Z</time>
      </trkpt>
      <trkpt lat="45.94189" lon="1.10287">
        <ele>269</ele>
        <time>2016-10-02T08:02:47.000Z</time>
      </trkpt>
      <trkpt lat="45.94193" lon="1.10283">
        <ele>269</ele>
        <time>2016-10-02T08:02:48.000Z</time>
      </trkpt>
      <trkpt lat="45.94232" lon="1.1025">
        <ele>269</ele>
        <time>2016-10-02T08:02:57.000Z</time>
      </trkpt>
      <trkpt lat="45.94238" lon="1.10248">
        <ele>269</ele>
        <time>2016-10-02T08:02:58.000Z</time>
      </trkpt>
      <trkpt lat="45.94284" lon="1.10239">
        <ele>270</ele>
        <time>2016-10-02T08:03:07.000Z</time>
      </trkpt>
      <trkpt lat="45.94289" lon="1.10238">
        <ele>270</ele>
        <time>2016-10-02T08:03:08.000Z</time>
      </trkpt>
      <trkpt lat="45.94313" lon="1.10229">
        <ele>269</ele>
        <time>2016-10-02T08:03:13.000Z</time>
      </trkpt>
      <trkpt lat="45.94337" lon="1.10194">
        <ele>268</ele>
        <time>2016-10-02T08:03:21.000Z</time>
      </trkpt>
      <trkpt lat="45.94385" lon="1.10195">
        <ele>269</ele>
        <time>2016-10-02T08:03:31.000Z</time>
      </trkpt>
      <trkpt lat="45.94391" lon="1.10195">
        <ele>269</ele>
        <time>2016-10-02T08:03:32.000Z</time>
      </trkpt>
      <trkpt lat="45.94438" lon="1.10199">
        <ele>270</ele>
        <time>2016-10-02T08:03:40.000Z</time>
      </trkpt>
      <trkpt lat="45.94443" lon="1.102">
        <ele>270</ele>
        <time>2016-10-02T08:03:41.000Z</time>
      </trkpt>
      <trkpt lat="45.94468" lon="1.10202">
        <ele>271</ele>
        <time>2016-10-02T08:03:46.000Z</time>
      </trkpt>
      <trkpt lat="45.94508" lon="1.10241">
        <ele>273</ele>
        <time>2016-10-02T08:03:55.000Z</time>
      </trkpt>
      <trkpt lat="45.94512" lon="1.10246">
        <ele>273</ele>
        <time>2016-10-02T08:03:56.000Z</time>
      </trkpt>
      <trkpt lat="45.9455" lon="1.10284">
        <ele>274</ele>
        <time>2016-10-02T08:04:05.000Z</time>
      </trkpt>
      <trkpt lat="45.94554" lon="1.10286">
        <ele>274</ele>
        <time>2016-10-02T08:04:06.000Z</time>
      </trkpt>
      <trkpt lat="45.94561" lon="1.10287">
        <ele>274</ele>
        <time>2016-10-02T08:04:08.000Z</time>
      </trkpt>
      <trkpt lat="45.94576" lon="1.10292">
        <ele>275</ele>
        <time>2016-10-02T08:04:12.000Z</time>
      </trkpt>
      <trkpt lat="45.94619" lon="1.10322">
        <ele>282</ele>
        <time>2016-10-02T08:04:25.000Z</time>
      </trkpt>
      <trkpt lat="45.94621" lon="1.10325">
        <ele>282</ele>
        <time>2016-10-02T08:04:26.000Z</time>
      </trkpt>
      <trkpt lat="45.94663" lon="1.10354">
        <ele>284</ele>
        <time>2016-10-02T08:04:37.000Z</time>
      </trkpt>
      <trkpt lat="45.94667" lon="1.10357">
        <ele>284</ele>
        <time>2016-10-02T08:04:38.000Z</time>
      </trkpt>
      <trkpt lat="45.94709" lon="1.10384">
        <ele>287</ele>
        <time>2016-10-02T08:04:50.000Z</time>
      </trkpt>
      <trkpt lat="45.94712" lon="1.10387">
        <ele>287</ele>
        <time>2016-10-02T08:04:51.000Z</time>
      </trkpt>
      <trkpt lat="45.94756" lon="1.10416">
        <ele>291</ele>
        <time>2016-10-02T08:05:02.000Z</time>
      </trkpt>
      <trkpt lat="45.94761" lon="1.10419">
        <ele>291</ele>
        <time>2016-10-02T08:05:03.000Z</time>
      </trkpt>
      <trkpt lat="45.94807" lon="1.10445">
        <ele>287</ele>
        <time>2016-10-02T08:05:15.000Z</time>
      </trkpt>
      <trkpt lat="45.9481" lon="1.10448">
        <ele>287</ele>
        <time>2016-10-02T08:05:16.000Z</time>
      </trkpt>
      <trkpt lat="45.94822" lon="1.10453">
        <ele>287</ele>
        <time>2016-10-02T08:05:20.000Z</time>
      </trkpt>
      <trkpt lat="45.94832" lon="1.10443">
        <ele>287</ele>
        <time>2016-10-02T08:05:23.000Z</time>
      </trkpt>
      <trkpt lat="45.9486" lon="1.1039">
        <ele>287</ele>
        <time>2016-10-02T08:05:34.000Z</time>
      </trkpt>
      <trkpt lat="45.94862" lon="1.10385">
        <ele>287</ele>
        <time>2016-10-02T08:05:35.000Z</time>
      </trkpt>
      <trkpt lat="45.94891" lon="1.10322">
        <ele>285</ele>
        <time>2016-10-02T08:05:43.000Z</time>
      </trkpt>
      <trkpt lat="45.94894" lon="1.10312">
        <ele>284</ele>
        <time>2016-10-02T08:05:44.000Z</time>
      </trkpt>
      <trkpt lat="45.94917" lon="1.10254">
        <ele>282</ele>
        <time>2016-10-02T08:05:50.000Z</time>
      </trkpt>
      <trkpt lat="45.94921" lon="1.10244">
        <ele>282</ele>
        <time>2016-10-02T08:05:51.000Z</time>
      </trkpt>
      <trkpt lat="45.94949" lon="1.10192">
        <ele>281</ele>
        <time>2016-10-02T08:05:57.000Z</time>
      </trkpt>
      <trkpt lat="45.94954" lon="1.10184">
        <ele>281</ele>
        <time>2016-10-02T08:05:58.000Z</time>
      </trkpt>
      <trkpt lat="45.94965" lon="1.10151">
        <ele>282</ele>
        <time>2016-10-02T08:06:02.000Z</time>
      </trkpt>
      <trkpt lat="45.94965" lon="1.10125">
        <ele>283</ele>
        <time>2016-10-02T08:06:05.000Z</time>
      </trkpt>
      <trkpt lat="45.94962" lon="1.10109">
        <ele>284</ele>
        <time>2016-10-02T08:06:07.000Z</time>
      </trkpt>
      <trkpt lat="45.94957" lon="1.10079">
        <ele>285</ele>
        <time>2016-10-02T08:06:10.000Z</time>
      </trkpt>
      <trkpt lat="45.94964" lon="1.10026">
        <ele>283</ele>
        <time>2016-10-02T08:06:14.000Z</time>
      </trkpt>
      <trkpt lat="45.94969" lon="1.10013">
        <ele>282</ele>
        <time>2016-10-02T08:06:15.000Z</time>
      </trkpt>
      <trkpt lat="45.94997" lon="1.09956">
        <ele>276</ele>
        <time>2016-10-02T08:06:20.000Z</time>
      </trkpt>
      <trkpt lat="45.95003" lon="1.09946">
        <ele>275</ele>
        <time>2016-10-02T08:06:21.000Z</time>
      </trkpt>
      <trkpt lat="45.95043" lon="1.09904">
        <ele>270</ele>
        <time>2016-10-02T08:06:27.000Z</time>
      </trkpt>
      <trkpt lat="45.9505" lon="1.09898">
        <ele>270</ele>
        <time>2016-10-02T08:06:28.000Z</time>
      </trkpt>
      <trkpt lat="45.95056" lon="1.09894">
        <ele>269</ele>
        <time>2016-10-02T08:06:29.000Z</time>
      </trkpt>
      <trkpt lat="45.95086" lon="1.09871">
        <ele>267</ele>
        <time>2016-10-02T08:06:34.000Z</time>
      </trkpt>
      <trkpt lat="45.95102" lon="1.09863">
        <ele>267</ele>
        <time>2016-10-02T08:06:37.000Z</time>
      </trkpt>
      <trkpt lat="45.95149" lon="1.0985">
        <ele>269</ele>
        <time>2016-10-02T08:06:48.000Z</time>
      </trkpt>
      <trkpt lat="45.95153" lon="1.09849">
        <ele>270</ele>
        <time>2016-10-02T08:06:49.000Z</time>
      </trkpt>
      <trkpt lat="45.95197" lon="1.09842">
        <ele>275</ele>
        <time>2016-10-02T08:07:00.000Z</time>
      </trkpt>
      <trkpt lat="45.95201" lon="1.09843">
        <ele>275</ele>
        <time>2016-10-02T08:07:01.000Z</time>
      </trkpt>
      <trkpt lat="45.95224" lon="1.09843">
        <ele>277</ele>
        <time>2016-10-02T08:07:07.000Z</time>
      </trkpt>
      <trkpt lat="45.95236" lon="1.09838">
        <ele>279</ele>
        <time>2016-10-02T08:07:11.000Z</time>
      </trkpt>
      <trkpt lat="45.95241" lon="1.09833">
        <ele>279</ele>
        <time>2016-10-02T08:07:13.000Z</time>
      </trkpt>
      <trkpt lat="45.95249" lon="1.09818">
        <ele>279</ele>
        <time>2016-10-02T08:07:17.000Z</time>
      </trkpt>
      <trkpt lat="45.95266" lon="1.09754">
        <ele>278</ele>
        <time>2016-10-02T08:07:29.000Z</time>
      </trkpt>
      <trkpt lat="45.95267" lon="1.09748">
        <ele>278</ele>
        <time>2016-10-02T08:07:30.000Z</time>
      </trkpt>
      <trkpt lat="45.9527" lon="1.09726">
        <ele>279</ele>
        <time>2016-10-02T08:07:34.000Z</time>
      </trkpt>
      <trkpt lat="45.9528" lon="1.09667">
        <ele>280</ele>
        <time>2016-10-02T08:07:46.000Z</time>
      </trkpt>
      <trkpt lat="45.95281" lon="1.09662">
        <ele>281</ele>
        <time>2016-10-02T08:07:47.000Z</time>
      </trkpt>
      <trkpt lat="45.9529" lon="1.09638">
        <ele>283</ele>
        <time>2016-10-02T08:07:54.000Z</time>
      </trkpt>
      <trkpt lat="45.95301" lon="1.09635">
        <ele>285</ele>
        <time>2016-10-02T08:07:58.000Z</time>
      </trkpt>
      <trkpt lat="45.95339" lon="1.0965">
        <ele>288</ele>
        <time>2016-10-02T08:08:11.000Z</time>
      </trkpt>
      <trkpt lat="45.95385" lon="1.09671">
        <ele>290</ele>
        <time>2016-10-02T08:08:25.000Z</time>
      </trkpt>
      <trkpt lat="45.95388" lon="1.09672">
        <ele>290</ele>
        <time>2016-10-02T08:08:26.000Z</time>
      </trkpt>
      <trkpt lat="45.95403" lon="1.09676">
        <ele>290</ele>
        <time>2016-10-02T08:08:30.000Z</time>
      </trkpt>
      <trkpt lat="45.95448" lon="1.09689">
        <ele>289</ele>
        <time>2016-10-02T08:08:42.000Z</time>
      </trkpt>
      <trkpt lat="45.95451" lon="1.0969">
        <ele>289</ele>
        <time>2016-10-02T08:08:43.000Z</time>
      </trkpt>
      <trkpt lat="45.95498" lon="1.09702">
        <ele>291</ele>
        <time>2016-10-02T08:08:57.000Z</time>
      </trkpt>
      <trkpt lat="45.95501" lon="1.09703">
        <ele>291</ele>
        <time>2016-10-02T08:08:58.000Z</time>
      </trkpt>
      <trkpt lat="45.95546" lon="1.09717">
        <ele>292</ele>
        <time>2016-10-02T08:09:12.000Z</time>
      </trkpt>
      <trkpt lat="45.9555" lon="1.09718">
        <ele>292</ele>
        <time>2016-10-02T08:09:13.000Z</time>
      </trkpt>
      <trkpt lat="45.95597" lon="1.09733">
        <ele>292</ele>
        <time>2016-10-02T08:09:24.000Z</time>
      </trkpt>
      <trkpt lat="45.95603" lon="1.09735">
        <ele>292</ele>
        <time>2016-10-02T08:09:25.000Z</time>
      </trkpt>
      <trkpt lat="45.95651" lon="1.0975">
        <ele>290</ele>
        <time>2016-10-02T08:09:34.000Z</time>
      </trkpt>
      <trkpt lat="45.95657" lon="1.09752">
        <ele>290</ele>
        <time>2016-10-02T08:09:35.000Z</time>
      </trkpt>
      <trkpt lat="45.95703" lon="1.09768">
        <ele>290</ele>
        <time>2016-10-02T08:09:44.000Z</time>
      </trkpt>
      <trkpt lat="45.95707" lon="1.09768">
        <ele>290</ele>
        <time>2016-10-02T08:09:45.000Z</time>
      </trkpt>
      <trkpt lat="45.95711" lon="1.09767">
        <ele>291</ele>
        <time>2016-10-02T08:09:46.000Z</time>
      </trkpt>
      <trkpt lat="45.95716" lon="1.09758">
        <ele>291</ele>
        <time>2016-10-02T08:09:48.000Z</time>
      </trkpt>
      <trkpt lat="45.95729" lon="1.09692">
        <ele>291</ele>
        <time>2016-10-02T08:09:57.000Z</time>
      </trkpt>
      <trkpt lat="45.9573" lon="1.09683">
        <ele>291</ele>
        <time>2016-10-02T08:09:58.000Z</time>
      </trkpt>
      <trkpt lat="45.95735" lon="1.09613">
        <ele>290</ele>
        <time>2016-10-02T08:10:05.000Z</time>
      </trkpt>
      <trkpt lat="45.95735" lon="1.09602">
        <ele>290</ele>
        <time>2016-10-02T08:10:06.000Z</time>
      </trkpt>
      <trkpt lat="45.95739" lon="1.09535">
        <ele>289</ele>
        <time>2016-10-02T08:10:12.000Z</time>
      </trkpt>
      <trkpt lat="45.9574" lon="1.09523">
        <ele>289</ele>
        <time>2016-10-02T08:10:13.000Z</time>
      </trkpt>
      <trkpt lat="45.95744" lon="1.0945">
        <ele>289</ele>
        <time>2016-10-02T08:10:20.000Z</time>
      </trkpt>
      <trkpt lat="45.95745" lon="1.09439">
        <ele>289</ele>
        <time>2016-10-02T08:10:21.000Z</time>
      </trkpt>
      <trkpt lat="45.95748" lon="1.09369">
        <ele>289</ele>
        <time>2016-10-02T08:10:28.000Z</time>
      </trkpt>
      <trkpt lat="45.95748" lon="1.09359">
        <ele>289</ele>
        <time>2016-10-02T08:10:29.000Z</time>
      </trkpt>
      <trkpt lat="45.95753" lon="1.0934">
        <ele>289</ele>
        <time>2016-10-02T08:10:32.000Z</time>
      </trkpt>
      <trkpt lat="45.95759" lon="1.09341">
        <ele>289</ele>
        <time>2016-10-02T08:10:34.000Z</time>
      </trkpt>
      <trkpt lat="45.95792" lon="1.09392">
        <ele>290</ele>
        <time>2016-10-02T08:10:47.000Z</time>
      </trkpt>
      <trkpt lat="45.95795" lon="1.09396">
        <ele>290</ele>
        <time>2016-10-02T08:10:48.000Z</time>
      </trkpt>
      <trkpt lat="45.95828" lon="1.09444">
        <ele>290</ele>
        <time>2016-10-02T08:11:00.000Z</time>
      </trkpt>
      <trkpt lat="45.95831" lon="1.09448">
        <ele>290</ele>
        <time>2016-10-02T08:11:01.000Z</time>
      </trkpt>
      <trkpt lat="45.95865" lon="1.09498">
        <ele>291</ele>
        <time>2016-10-02T08:11:13.000Z</time>
      </trkpt>
      <trkpt lat="45.95867" lon="1.09502">
        <ele>292</ele>
        <time>2016-10-02T08:11:14.000Z</time>
      </trkpt>
      <trkpt lat="45.95899" lon="1.09552">
        <ele>292</ele>
        <time>2016-10-02T08:11:28.000Z</time>
      </trkpt>
      <trkpt lat="45.95901" lon="1.09555">
        <ele>293</ele>
        <time>2016-10-02T08:11:29.000Z</time>
      </trkpt>
      <trkpt lat="45.95934" lon="1.09605">
        <ele>293</ele>
        <time>2016-10-02T08:11:43.000Z</time>
      </trkpt>
      <trkpt lat="45.95937" lon="1.09608">
        <ele>293</ele>
        <time>2016-10-02T08:11:44.000Z</time>
      </trkpt>
      <trkpt lat="45.95967" lon="1.09656">
        <ele>295</ele>
        <time>2016-10-02T08:11:57.000Z</time>
      </trkpt>
      <trkpt lat="45.9597" lon="1.09659">
        <ele>295</ele>
        <time>2016-10-02T08:11:58.000Z</time>
      </trkpt>
      <trkpt lat="45.95994" lon="1.09692">
        <ele>296</ele>
        <time>2016-10-02T08:12:08.000Z</time>
      </trkpt>
      <trkpt lat="45.96035" lon="1.09721">
        <ele>296</ele>
        <time>2016-10-02T08:12:20.000Z</time>
      </trkpt>
      <trkpt lat="45.96038" lon="1.09724">
        <ele>297</ele>
        <time>2016-10-02T08:12:21.000Z</time>
      </trkpt>
      <trkpt lat="45.96078" lon="1.09757">
        <ele>299</ele>
        <time>2016-10-02T08:12:34.000Z</time>
      </trkpt>
      <trkpt lat="45.96081" lon="1.0976">
        <ele>299</ele>
        <time>2016-10-02T08:12:35.000Z</time>
      </trkpt>
      <trkpt lat="45.96096" lon="1.09779">
        <ele>300</ele>
        <time>2016-10-02T08:12:41.000Z</time>
      </trkpt>
      <trkpt lat="45.96129" lon="1.09824">
        <ele>305</ele>
        <time>2016-10-02T08:12:56.000Z</time>
      </trkpt>
      <trkpt lat="45.96131" lon="1.09827">
        <ele>305</ele>
        <time>2016-10-02T08:12:57.000Z</time>
      </trkpt>
      <trkpt lat="45.96154" lon="1.09862">
        <ele>307</ele>
        <time>2016-10-02T08:13:09.000Z</time>
      </trkpt>
      <trkpt lat="45.96193" lon="1.09902">
        <ele>311</ele>
        <time>2016-10-02T08:13:21.000Z</time>
      </trkpt>
      <trkpt lat="45.96196" lon="1.09906">
        <ele>311</ele>
        <time>2016-10-02T08:13:22.000Z</time>
      </trkpt>
      <trkpt lat="45.96235" lon="1.09947">
        <ele>311</ele>
        <time>2016-10-02T08:13:32.000Z</time>
      </trkpt>
      <trkpt lat="45.96239" lon="1.0995">
        <ele>311</ele>
        <time>2016-10-02T08:13:33.000Z</time>
      </trkpt>
      <trkpt lat="45.96279" lon="1.09992">
        <ele>311</ele>
        <time>2016-10-02T08:13:43.000Z</time>
      </trkpt>
      <trkpt lat="45.96283" lon="1.09995">
        <ele>311</ele>
        <time>2016-10-02T08:13:44.000Z</time>
      </trkpt>
      <trkpt lat="45.96291" lon="1.10002">
        <ele>311</ele>
        <time>2016-10-02T08:13:46.000Z</time>
      </trkpt>
      <trkpt lat="45.96299" lon="1.10002">
        <ele>311</ele>
        <time>2016-10-02T08:13:48.000Z</time>
      </trkpt>
      <trkpt lat="45.96307" lon="1.09996">
        <ele>310</ele>
        <time>2016-10-02T08:13:50.000Z</time>
      </trkpt>
      <trkpt lat="45.96317" lon="1.09973">
        <ele>310</ele>
        <time>2016-10-02T08:13:53.000Z</time>
      </trkpt>
      <trkpt lat="45.9634" lon="1.09908">
        <ele>309</ele>
        <time>2016-10-02T08:14:00.000Z</time>
      </trkpt>
      <trkpt lat="45.96344" lon="1.09898">
        <ele>309</ele>
        <time>2016-10-02T08:14:01.000Z</time>
      </trkpt>
      <trkpt lat="45.96365" lon="1.09838">
        <ele>307</ele>
        <time>2016-10-02T08:14:07.000Z</time>
      </trkpt>
      <trkpt lat="45.96369" lon="1.09829">
        <ele>307</ele>
        <time>2016-10-02T08:14:08.000Z</time>
      </trkpt>
      <trkpt lat="45.96383" lon="1.09802">
        <ele>305</ele>
        <time>2016-10-02T08:14:11.000Z</time>
      </trkpt>
      <trkpt lat="45.96419" lon="1.09759">
        <ele>302</ele>
        <time>2016-10-02T08:14:17.000Z</time>
      </trkpt>
      <trkpt lat="45.96425" lon="1.09752">
        <ele>302</ele>
        <time>2016-10-02T08:14:18.000Z</time>
      </trkpt>
      <trkpt lat="45.96467" lon="1.0971">
        <ele>299</ele>
        <time>2016-10-02T08:14:24.000Z</time>
      </trkpt>
      <trkpt lat="45.96474" lon="1.09703">
        <ele>298</ele>
        <time>2016-10-02T08:14:25.000Z</time>
      </trkpt>
      <trkpt lat="45.96515" lon="1.09661">
        <ele>294</ele>
        <time>2016-10-02T08:14:31.000Z</time>
      </trkpt>
      <trkpt lat="45.96521" lon="1.09653">
        <ele>293</ele>
        <time>2016-10-02T08:14:32.000Z</time>
      </trkpt>
      <trkpt lat="45.96559" lon="1.09611">
        <ele>289</ele>
        <time>2016-10-02T08:14:39.000Z</time>
      </trkpt>
      <trkpt lat="45.96561" lon="1.09605">
        <ele>289</ele>
        <time>2016-10-02T08:14:40.000Z</time>
      </trkpt>
      <trkpt lat="45.96561" lon="1.09598">
        <ele>288</ele>
        <time>2016-10-02T08:14:41.000Z</time>
      </trkpt>
      <trkpt lat="45.96558" lon="1.09585">
        <ele>288</ele>
        <time>2016-10-02T08:14:43.000Z</time>
      </trkpt>
      <trkpt lat="45.96542" lon="1.09538">
        <ele>287</ele>
        <time>2016-10-02T08:14:50.000Z</time>
      </trkpt>
      <trkpt lat="45.96515" lon="1.09481">
        <ele>288</ele>
        <time>2016-10-02T08:14:59.000Z</time>
      </trkpt>
      <trkpt lat="45.96512" lon="1.09475">
        <ele>289</ele>
        <time>2016-10-02T08:15:00.000Z</time>
      </trkpt>
      <trkpt lat="45.96494" lon="1.09429">
        <ele>290</ele>
        <time>2016-10-02T08:15:08.000Z</time>
      </trkpt>
      <trkpt lat="45.96481" lon="1.09366">
        <ele>290</ele>
        <time>2016-10-02T08:15:18.000Z</time>
      </trkpt>
      <trkpt lat="45.9648" lon="1.0936">
        <ele>290</ele>
        <time>2016-10-02T08:15:19.000Z</time>
      </trkpt>
      <trkpt lat="45.9647" lon="1.09296">
        <ele>292</ele>
        <time>2016-10-02T08:15:30.000Z</time>
      </trkpt>
      <trkpt lat="45.96469" lon="1.09291">
        <ele>292</ele>
        <time>2016-10-02T08:15:31.000Z</time>
      </trkpt>
      <trkpt lat="45.96461" lon="1.09222">
        <ele>294</ele>
        <time>2016-10-02T08:15:42.000Z</time>
      </trkpt>
      <trkpt lat="45.9646" lon="1.09216">
        <ele>294</ele>
        <time>2016-10-02T08:15:43.000Z</time>
      </trkpt>
      <trkpt lat="45.96449" lon="1.09149">
        <ele>294</ele>
        <time>2016-10-02T08:15:53.000Z</time>
      </trkpt>
      <trkpt lat="45.96449" lon="1.09142">
        <ele>293</ele>
        <time>2016-10-02T08:15:54.000Z</time>
      </trkpt>
      <trkpt lat="45.96452" lon="1.09132">
        <ele>293</ele>
        <time>2016-10-02T08:15:56.000Z</time>
      </trkpt>
      <trkpt lat="45.9646" lon="1.0913">
        <ele>293</ele>
        <time>2016-10-02T08:15:58.000Z</time>
      </trkpt>
      <trkpt lat="45.96486" lon="1.09131">
        <ele>292</ele>
        <time>2016-10-02T08:16:03.000Z</time>
      </trkpt>
      <trkpt lat="45.96518" lon="1.09141">
        <ele>292</ele>
        <time>2016-10-02T08:16:09.000Z</time>
      </trkpt>
      <trkpt lat="45.96532" lon="1.09139">
        <ele>292</ele>
        <time>2016-10-02T08:16:12.000Z</time>
      </trkpt>
      <trkpt lat="45.96547" lon="1.09126">
        <ele>293</ele>
        <time>2016-10-02T08:16:17.000Z</time>
      </trkpt>
      <trkpt lat="45.96582" lon="1.09084">
        <ele>298</ele>
        <time>2016-10-02T08:16:35.000Z</time>
      </trkpt>
      <trkpt lat="45.96584" lon="1.09082">
        <ele>299</ele>
        <time>2016-10-02T08:16:36.000Z</time>
      </trkpt>
      <trkpt lat="45.96619" lon="1.09038">
        <ele>303</ele>
        <time>2016-10-02T08:16:55.000Z</time>
      </trkpt>
      <trkpt lat="45.9662" lon="1.09036">
        <ele>303</ele>
        <time>2016-10-02T08:16:56.000Z</time>
      </trkpt>
      <trkpt lat="45.96624" lon="1.09029">
        <ele>303</ele>
        <time>2016-10-02T08:16:59.000Z</time>
      </trkpt>
      <trkpt lat="45.9663" lon="1.0902">
        <ele>303</ele>
        <time>2016-10-02T08:17:03.000Z</time>
      </trkpt>
      <trkpt lat="45.96632" lon="1.09008">
        <ele>305</ele>
        <time>2016-10-02T08:17:07.000Z</time>
      </trkpt>
      <trkpt lat="45.96633" lon="1.08987">
        <ele>307</ele>
        <time>2016-10-02T08:17:13.000Z</time>
      </trkpt>
      <trkpt lat="45.96643" lon="1.08952">
        <ele>311</ele>
        <time>2016-10-02T08:17:23.000Z</time>
      </trkpt>
      <trkpt lat="45.96663" lon="1.08905">
        <ele>312</ele>
        <time>2016-10-02T08:17:35.000Z</time>
      </trkpt>
      <trkpt lat="45.96671" lon="1.08904">
        <ele>312</ele>
        <time>2016-10-02T08:17:37.000Z</time>
      </trkpt>
      <trkpt lat="45.96717" lon="1.08922">
        <ele>311</ele>
        <time>2016-10-02T08:17:47.000Z</time>
      </trkpt>
      <trkpt lat="45.96722" lon="1.08924">
        <ele>311</ele>
        <time>2016-10-02T08:17:48.000Z</time>
      </trkpt>
      <trkpt lat="45.96746" lon="1.08928">
        <ele>311</ele>
        <time>2016-10-02T08:17:52.000Z</time>
      </trkpt>
      <trkpt lat="45.96795" lon="1.08928">
        <ele>307</ele>
        <time>2016-10-02T08:17:58.000Z</time>
      </trkpt>
      <trkpt lat="45.96804" lon="1.08928">
        <ele>306</ele>
        <time>2016-10-02T08:17:59.000Z</time>
      </trkpt>
      <trkpt lat="45.96851" lon="1.08929">
        <ele>302</ele>
        <time>2016-10-02T08:18:05.000Z</time>
      </trkpt>
      <trkpt lat="45.96858" lon="1.08929">
        <ele>302</ele>
        <time>2016-10-02T08:18:06.000Z</time>
      </trkpt>
      <trkpt lat="45.96909" lon="1.0893">
        <ele>302</ele>
        <time>2016-10-02T08:18:14.000Z</time>
      </trkpt>
      <trkpt lat="45.96914" lon="1.0893">
        <ele>302</ele>
        <time>2016-10-02T08:18:15.000Z</time>
      </trkpt>
      <trkpt lat="45.96961" lon="1.08932">
        <ele>304</ele>
        <time>2016-10-02T08:18:23.000Z</time>
      </trkpt>
      <trkpt lat="45.96967" lon="1.08932">
        <ele>304</ele>
        <time>2016-10-02T08:18:24.000Z</time>
      </trkpt>
      <trkpt lat="45.96986" lon="1.08933">
        <ele>306</ele>
        <time>2016-10-02T08:18:28.000Z</time>
      </trkpt>
      <trkpt lat="45.97035" lon="1.08936">
        <ele>309</ele>
        <time>2016-10-02T08:18:38.000Z</time>
      </trkpt>
      <trkpt lat="45.9704" lon="1.08935">
        <ele>310</ele>
        <time>2016-10-02T08:18:39.000Z</time>
      </trkpt>
      <trkpt lat="45.97086" lon="1.0894">
        <ele>313</ele>
        <time>2016-10-02T08:18:48.000Z</time>
      </trkpt>
      <trkpt lat="45.97092" lon="1.08939">
        <ele>313</ele>
        <time>2016-10-02T08:18:49.000Z</time>
      </trkpt>
      <trkpt lat="45.97141" lon="1.08938">
        <ele>313</ele>
        <time>2016-10-02T08:18:57.000Z</time>
      </trkpt>
      <trkpt lat="45.97147" lon="1.08938">
        <ele>314</ele>
        <time>2016-10-02T08:18:58.000Z</time>
      </trkpt>
      <trkpt lat="45.97192" lon="1.08938">
        <ele>314</ele>
        <time>2016-10-02T08:19:06.000Z</time>
      </trkpt>
      <trkpt lat="45.97197" lon="1.08937">
        <ele>314</ele>
        <time>2016-10-02T08:19:07.000Z</time>
      </trkpt>
      <trkpt lat="45.97243" lon="1.08942">
        <ele>317</ele>
        <time>2016-10-02T08:19:17.000Z</time>
      </trkpt>
      <trkpt lat="45.97247" lon="1.08943">
        <ele>317</ele>
        <time>2016-10-02T08:19:18.000Z</time>
      </trkpt>
      <trkpt lat="45.97264" lon="1.08944">
        <ele>319</ele>
        <time>2016-10-02T08:19:22.000Z</time>
      </trkpt>
      <trkpt lat="45.97294" lon="1.08947">
        <ele>320</ele>
        <time>2016-10-02T08:19:29.000Z</time>
      </trkpt>
      <trkpt lat="45.97321" lon="1.08952">
        <ele>320</ele>
        <time>2016-10-02T08:19:36.000Z</time>
      </trkpt>
      <trkpt lat="45.97345" lon="1.08947">
        <ele>320</ele>
        <time>2016-10-02T08:19:42.000Z</time>
      </trkpt>
      <trkpt lat="45.97357" lon="1.08943">
        <ele>319</ele>
        <time>2016-10-02T08:19:45.000Z</time>
      </trkpt>
      <trkpt lat="45.9739" lon="1.08932">
        <ele>317</ele>
        <time>2016-10-02T08:19:53.000Z</time>
      </trkpt>
      <trkpt lat="45.97425" lon="1.08918">
        <ele>317</ele>
        <time>2016-10-02T08:20:01.000Z</time>
      </trkpt>
      <trkpt lat="45.97459" lon="1.08896">
        <ele>317</ele>
        <time>2016-10-02T08:20:09.000Z</time>
      </trkpt>
      <trkpt lat="45.97496" lon="1.08861">
        <ele>316</ele>
        <time>2016-10-02T08:20:18.000Z</time>
      </trkpt>
      <trkpt lat="45.97499" lon="1.08855">
        <ele>316</ele>
        <time>2016-10-02T08:20:19.000Z</time>
      </trkpt>
      <trkpt lat="45.97519" lon="1.08823">
        <ele>316</ele>
        <time>2016-10-02T08:20:25.000Z</time>
      </trkpt>
      <trkpt lat="45.9754" lon="1.0876">
        <ele>315</ele>
        <time>2016-10-02T08:20:35.000Z</time>
      </trkpt>
      <trkpt lat="45.97543" lon="1.08755">
        <ele>315</ele>
        <time>2016-10-02T08:20:36.000Z</time>
      </trkpt>
      <trkpt lat="45.97554" lon="1.0873">
        <ele>315</ele>
        <time>2016-10-02T08:20:41.000Z</time>
      </trkpt>
      <trkpt lat="45.97565" lon="1.08709">
        <ele>316</ele>
        <time>2016-10-02T08:20:46.000Z</time>
      </trkpt>
      <trkpt lat="45.97578" lon="1.08686">
        <ele>317</ele>
        <time>2016-10-02T08:20:52.000Z</time>
      </trkpt>
      <trkpt lat="45.97591" lon="1.08664">
        <ele>317</ele>
        <time>2016-10-02T08:20:58.000Z</time>
      </trkpt>
      <trkpt lat="45.97599" lon="1.08657">
        <ele>318</ele>
        <time>2016-10-02T08:21:01.000Z</time>
      </trkpt>
      <trkpt lat="45.97622" lon="1.08642">
        <ele>317</ele>
        <time>2016-10-02T08:21:08.000Z</time>
      </trkpt>
      <trkpt lat="45.9767" lon="1.08631">
        <ele>314</ele>
        <time>2016-10-02T08:21:17.000Z</time>
      </trkpt>
      <trkpt lat="45.97676" lon="1.08629">
        <ele>314</ele>
        <time>2016-10-02T08:21:18.000Z</time>
      </trkpt>
      <trkpt lat="45.9772" lon="1.08608">
        <ele>314</ele>
        <time>2016-10-02T08:21:26.000Z</time>
      </trkpt>
      <trkpt lat="45.97725" lon="1.08606">
        <ele>314</ele>
        <time>2016-10-02T08:21:27.000Z</time>
      </trkpt>
      <trkpt lat="45.97765" lon="1.08586">
        <ele>315</ele>
        <time>2016-10-02T08:21:35.000Z</time>
      </trkpt>
      <trkpt lat="45.97769" lon="1.08582">
        <ele>315</ele>
        <time>2016-10-02T08:21:36.000Z</time>
      </trkpt>
      <trkpt lat="45.97794" lon="1.08564">
        <ele>315</ele>
        <time>2016-10-02T08:21:42.000Z</time>
      </trkpt>
      <trkpt lat="45.97812" lon="1.0856">
        <ele>315</ele>
        <time>2016-10-02T08:21:46.000Z</time>
      </trkpt>
      <trkpt lat="45.97825" lon="1.08564">
        <ele>315</ele>
        <time>2016-10-02T08:21:49.000Z</time>
      </trkpt>
      <trkpt lat="45.97869" lon="1.0859">
        <ele>317</ele>
        <time>2016-10-02T08:22:01.000Z</time>
      </trkpt>
      <trkpt lat="45.97873" lon="1.08591">
        <ele>318</ele>
        <time>2016-10-02T08:22:02.000Z</time>
      </trkpt>
      <trkpt lat="45.97919" lon="1.08603">
        <ele>323</ele>
        <time>2016-10-02T08:22:15.000Z</time>
      </trkpt>
      <trkpt lat="45.97923" lon="1.08603">
        <ele>323</ele>
        <time>2016-10-02T08:22:16.000Z</time>
      </trkpt>
      <trkpt lat="45.97944" lon="1.08607">
        <ele>323</ele>
        <time>2016-10-02T08:22:22.000Z</time>
      </trkpt>
      <trkpt lat="45.97978" lon="1.08598">
        <ele>325</ele>
        <time>2016-10-02T08:22:31.000Z</time>
      </trkpt>
      <trkpt lat="45.97982" lon="1.08606">
        <ele>326</ele>
        <time>2016-10-02T08:22:34.000Z</time>
      </trkpt>
      <trkpt lat="45.97979" lon="1.08672">
        <ele>326</ele>
        <time>2016-10-02T08:22:44.000Z</time>
      </trkpt>
      <trkpt lat="45.97978" lon="1.08682">
        <ele>326</ele>
        <time>2016-10-02T08:22:45.000Z</time>
      </trkpt>
      <trkpt lat="45.97975" lon="1.08701">
        <ele>326</ele>
        <time>2016-10-02T08:22:47.000Z</time>
      </trkpt>
      <trkpt lat="45.97961" lon="1.08772">
        <ele>327</ele>
        <time>2016-10-02T08:22:54.000Z</time>
      </trkpt>
      <trkpt lat="45.97958" lon="1.08783">
        <ele>327</ele>
        <time>2016-10-02T08:22:55.000Z</time>
      </trkpt>
      <trkpt lat="45.97943" lon="1.08851">
        <ele>325</ele>
        <time>2016-10-02T08:23:02.000Z</time>
      </trkpt>
      <trkpt lat="45.97942" lon="1.0886">
        <ele>324</ele>
        <time>2016-10-02T08:23:03.000Z</time>
      </trkpt>
      <trkpt lat="45.97931" lon="1.08901">
        <ele>322</ele>
        <time>2016-10-02T08:23:08.000Z</time>
      </trkpt>
      <trkpt lat="45.97913" lon="1.08923">
        <ele>321</ele>
        <time>2016-10-02T08:23:12.000Z</time>
      </trkpt>
      <trkpt lat="45.97897" lon="1.08943">
        <ele>319</ele>
        <time>2016-10-02T08:23:16.000Z</time>
      </trkpt>
      <trkpt lat="45.97876" lon="1.08977">
        <ele>318</ele>
        <time>2016-10-02T08:23:22.000Z</time>
      </trkpt>
      <trkpt lat="45.97872" lon="1.08991">
        <ele>318</ele>
        <time>2016-10-02T08:23:25.000Z</time>
      </trkpt>
      <trkpt lat="45.97875" lon="1.09">
        <ele>317</ele>
        <time>2016-10-02T08:23:27.000Z</time>
      </trkpt>
      <trkpt lat="45.97901" lon="1.09054">
        <ele>318</ele>
        <time>2016-10-02T08:23:38.000Z</time>
      </trkpt>
      <trkpt lat="45.97902" lon="1.09059">
        <ele>318</ele>
        <time>2016-10-02T08:23:39.000Z</time>
      </trkpt>
      <trkpt lat="45.97905" lon="1.0907">
        <ele>319</ele>
        <time>2016-10-02T08:23:41.000Z</time>
      </trkpt>
      <trkpt lat="45.97922" lon="1.09115">
        <ele>319</ele>
        <time>2016-10-02T08:23:49.000Z</time>
      </trkpt>
      <trkpt lat="45.9793" lon="1.09138">
        <ele>318</ele>
        <time>2016-10-02T08:23:53.000Z</time>
      </trkpt>
      <trkpt lat="45.97932" lon="1.09204">
        <ele>317</ele>
        <time>2016-10-02T08:24:05.000Z</time>
      </trkpt>
      <trkpt lat="45.97932" lon="1.09209">
        <ele>317</ele>
        <time>2016-10-02T08:24:06.000Z</time>
      </trkpt>
      <trkpt lat="45.97931" lon="1.09243">
        <ele>318</ele>
        <time>2016-10-02T08:24:13.000Z</time>
      </trkpt>
      <trkpt lat="45.97929" lon="1.09253">
        <ele>319</ele>
        <time>2016-10-02T08:24:15.000Z</time>
      </trkpt>
      <trkpt lat="45.97914" lon="1.09315">
        <ele>320</ele>
        <time>2016-10-02T08:24:27.000Z</time>
      </trkpt>
      <trkpt lat="45.97913" lon="1.0932">
        <ele>321</ele>
        <time>2016-10-02T08:24:28.000Z</time>
      </trkpt>
      <trkpt lat="45.97908" lon="1.09337">
        <ele>322</ele>
        <time>2016-10-02T08:24:31.000Z</time>
      </trkpt>
      <trkpt lat="45.97902" lon="1.09359">
        <ele>324</ele>
        <time>2016-10-02T08:24:35.000Z</time>
      </trkpt>
      <trkpt lat="45.979" lon="1.09377">
        <ele>324</ele>
        <time>2016-10-02T08:24:38.000Z</time>
      </trkpt>
      <trkpt lat="45.97904" lon="1.09385">
        <ele>324</ele>
        <time>2016-10-02T08:24:40.000Z</time>
      </trkpt>
      <trkpt lat="45.9791" lon="1.09391">
        <ele>325</ele>
        <time>2016-10-02T08:24:42.000Z</time>
      </trkpt>
      <trkpt lat="45.97954" lon="1.0942">
        <ele>325</ele>
        <time>2016-10-02T08:24:54.000Z</time>
      </trkpt>
      <trkpt lat="45.97957" lon="1.09422">
        <ele>325</ele>
        <time>2016-10-02T08:24:55.000Z</time>
      </trkpt>
      <trkpt lat="45.97975" lon="1.09437">
        <ele>326</ele>
        <time>2016-10-02T08:25:01.000Z</time>
      </trkpt>
      <trkpt lat="45.97983" lon="1.09444">
        <ele>327</ele>
        <time>2016-10-02T08:25:04.000Z</time>
      </trkpt>
      <trkpt lat="45.98024" lon="1.09478">
        <ele>330</ele>
        <time>2016-10-02T08:25:17.000Z</time>
      </trkpt>
      <trkpt lat="45.98027" lon="1.0948">
        <ele>330</ele>
        <time>2016-10-02T08:25:18.000Z</time>
      </trkpt>
      <trkpt lat="45.98032" lon="1.09485">
        <ele>331</ele>
        <time>2016-10-02T08:25:20.000Z</time>
      </trkpt>
      <trkpt lat="45.98052" lon="1.0951">
        <ele>332</ele>
        <time>2016-10-02T08:25:29.000Z</time>
      </trkpt>
      <trkpt lat="45.98064" lon="1.09522">
        <ele>334</ele>
        <time>2016-10-02T08:25:34.000Z</time>
      </trkpt>
      <trkpt lat="45.98072" lon="1.09529">
        <ele>334</ele>
        <time>2016-10-02T08:25:37.000Z</time>
      </trkpt>
      <trkpt lat="45.98109" lon="1.09571">
        <ele>336</ele>
        <time>2016-10-02T08:25:51.000Z</time>
      </trkpt>
      <trkpt lat="45.98112" lon="1.09573">
        <ele>336</ele>
        <time>2016-10-02T08:25:52.000Z</time>
      </trkpt>
      <trkpt lat="45.9815" lon="1.09617">
        <ele>335</ele>
        <time>2016-10-02T08:26:05.000Z</time>
      </trkpt>
      <trkpt lat="45.98153" lon="1.0962">
        <ele>335</ele>
        <time>2016-10-02T08:26:06.000Z</time>
      </trkpt>
      <trkpt lat="45.98168" lon="1.0964">
        <ele>335</ele>
        <time>2016-10-02T08:26:11.000Z</time>
      </trkpt>
      <trkpt lat="45.98203" lon="1.09686">
        <ele>335</ele>
        <time>2016-10-02T08:26:23.000Z</time>
      </trkpt>
      <trkpt lat="45.98206" lon="1.09689">
        <ele>335</ele>
        <time>2016-10-02T08:26:24.000Z</time>
      </trkpt>
      <trkpt lat="45.98238" lon="1.09742">
        <ele>335</ele>
        <time>2016-10-02T08:26:36.000Z</time>
      </trkpt>
      <trkpt lat="45.98241" lon="1.09747">
        <ele>335</ele>
        <time>2016-10-02T08:26:37.000Z</time>
      </trkpt>
      <trkpt lat="45.98271" lon="1.09797">
        <ele>335</ele>
        <time>2016-10-02T08:26:47.000Z</time>
      </trkpt>
      <trkpt lat="45.98274" lon="1.09801">
        <ele>336</ele>
        <time>2016-10-02T08:26:48.000Z</time>
      </trkpt>
      <trkpt lat="45.98304" lon="1.0985">
        <ele>336</ele>
        <time>2016-10-02T08:26:58.000Z</time>
      </trkpt>
      <trkpt lat="45.98307" lon="1.09855">
        <ele>336</ele>
        <time>2016-10-02T08:26:59.000Z</time>
      </trkpt>
      <trkpt lat="45.98338" lon="1.09905">
        <ele>339</ele>
        <time>2016-10-02T08:27:10.000Z</time>
      </trkpt>
      <trkpt lat="45.98341" lon="1.0991">
        <ele>339</ele>
        <time>2016-10-02T08:27:11.000Z</time>
      </trkpt>
      <trkpt lat="45.98372" lon="1.0996">
        <ele>341</ele>
        <time>2016-10-02T08:27:22.000Z</time>
      </trkpt>
      <trkpt lat="45.98375" lon="1.09964">
        <ele>341</ele>
        <time>2016-10-02T08:27:23.000Z</time>
      </trkpt>
      <trkpt lat="45.98407" lon="1.10012">
        <ele>341</ele>
        <time>2016-10-02T08:27:34.000Z</time>
      </trkpt>
      <trkpt lat="45.9841" lon="1.10017">
        <ele>342</ele>
        <time>2016-10-02T08:27:35.000Z</time>
      </trkpt>
      <trkpt lat="45.98441" lon="1.10065">
        <ele>346</ele>
        <time>2016-10-02T08:27:47.000Z</time>
      </trkpt>
      <trkpt lat="45.98443" lon="1.10069">
        <ele>346</ele>
        <time>2016-10-02T08:27:48.000Z</time>
      </trkpt>
      <trkpt lat="45.98457" lon="1.10097">
        <ele>352</ele>
        <time>2016-10-02T08:27:56.000Z</time>
      </trkpt>
      <trkpt lat="45.98457" lon="1.10107">
        <ele>353</ele>
        <time>2016-10-02T08:27:58.000Z</time>
      </trkpt>
      <trkpt lat="45.98454" lon="1.10114">
        <ele>356</ele>
        <time>2016-10-02T08:28:00.000Z</time>
      </trkpt>
      <trkpt lat="45.98426" lon="1.10173">
        <ele>362</ele>
        <time>2016-10-02T08:28:11.000Z</time>
      </trkpt>
      <trkpt lat="45.98422" lon="1.1018">
        <ele>363</ele>
        <time>2016-10-02T08:28:12.000Z</time>
      </trkpt>
      <trkpt lat="45.98406" lon="1.10206">
        <ele>365</ele>
        <time>2016-10-02T08:28:16.000Z</time>
      </trkpt>
      <trkpt lat="45.98381" lon="1.1025">
        <ele>368</ele>
        <time>2016-10-02T08:28:23.000Z</time>
      </trkpt>
      <trkpt lat="45.98377" lon="1.10257">
        <ele>369</ele>
        <time>2016-10-02T08:28:24.000Z</time>
      </trkpt>
      <trkpt lat="45.98345" lon="1.1031">
        <ele>367</ele>
        <time>2016-10-02T08:28:31.000Z</time>
      </trkpt>
      <trkpt lat="45.9834" lon="1.10318">
        <ele>367</ele>
        <time>2016-10-02T08:28:32.000Z</time>
      </trkpt>
      <trkpt lat="45.98304" lon="1.10364">
        <ele>361</ele>
        <time>2016-10-02T08:28:39.000Z</time>
      </trkpt>
      <trkpt lat="45.98299" lon="1.10364">
        <ele>360</ele>
        <time>2016-10-02T08:28:40.000Z</time>
      </trkpt>
      <trkpt lat="45.98294" lon="1.10361">
        <ele>359</ele>
        <time>2016-10-02T08:28:41.000Z</time>
      </trkpt>
      <trkpt lat="45.98257" lon="1.10327">
        <ele>349</ele>
        <time>2016-10-02T08:28:48.000Z</time>
      </trkpt>
      <trkpt lat="45.9825" lon="1.10325">
        <ele>348</ele>
        <time>2016-10-02T08:28:49.000Z</time>
      </trkpt>
      <trkpt lat="45.98201" lon="1.10319">
        <ele>344</ele>
        <time>2016-10-02T08:28:57.000Z</time>
      </trkpt>
      <trkpt lat="45.98196" lon="1.10317">
        <ele>344</ele>
        <time>2016-10-02T08:28:58.000Z</time>
      </trkpt>
      <trkpt lat="45.98147" lon="1.10308">
        <ele>346</ele>
        <time>2016-10-02T08:29:07.000Z</time>
      </trkpt>
      <trkpt lat="45.98141" lon="1.10306">
        <ele>346</ele>
        <time>2016-10-02T08:29:08.000Z</time>
      </trkpt>
      <trkpt lat="45.98124" lon="1.10298">
        <ele>347</ele>
        <time>2016-10-02T08:29:11.000Z</time>
      </trkpt>
      <trkpt lat="45.98082" lon="1.10264">
        <ele>344</ele>
        <time>2016-10-02T08:29:18.000Z</time>
      </trkpt>
      <trkpt lat="45.98074" lon="1.10258">
        <ele>343</ele>
        <time>2016-10-02T08:29:19.000Z</time>
      </trkpt>
      <trkpt lat="45.98033" lon="1.10226">
        <ele>339</ele>
        <time>2016-10-02T08:29:24.000Z</time>
      </trkpt>
      <trkpt lat="45.98023" lon="1.10219">
        <ele>338</ele>
        <time>2016-10-02T08:29:25.000Z</time>
      </trkpt>
      <trkpt lat="45.97975" lon="1.1018">
        <ele>333</ele>
        <time>2016-10-02T08:29:30.000Z</time>
      </trkpt>
      <trkpt lat="45.97966" lon="1.10173">
        <ele>332</ele>
        <time>2016-10-02T08:29:31.000Z</time>
      </trkpt>
      <trkpt lat="45.97923" lon="1.10137">
        <ele>328</ele>
        <time>2016-10-02T08:29:36.000Z</time>
      </trkpt>
      <trkpt lat="45.97914" lon="1.1013">
        <ele>327</ele>
        <time>2016-10-02T08:29:37.000Z</time>
      </trkpt>
      <trkpt lat="45.97869" lon="1.10094">
        <ele>324</ele>
        <time>2016-10-02T08:29:43.000Z</time>
      </trkpt>
      <trkpt lat="45.97863" lon="1.10089">
        <ele>323</ele>
        <time>2016-10-02T08:29:44.000Z</time>
      </trkpt>
      <trkpt lat="45.97823" lon="1.10055">
        <ele>320</ele>
        <time>2016-10-02T08:29:50.000Z</time>
      </trkpt>
      <trkpt lat="45.97816" lon="1.10048">
        <ele>320</ele>
        <time>2016-10-02T08:29:51.000Z</time>
      </trkpt>
      <trkpt lat="45.9777" lon="1.10012">
        <ele>317</ele>
        <time>2016-10-02T08:29:57.000Z</time>
      </trkpt>
      <trkpt lat="45.97763" lon="1.10006">
        <ele>317</ele>
        <time>2016-10-02T08:29:58.000Z</time>
      </trkpt>
      <trkpt lat="45.97722" lon="1.09973">
        <ele>315</ele>
        <time>2016-10-02T08:30:03.000Z</time>
      </trkpt>
      <trkpt lat="45.97714" lon="1.09967">
        <ele>314</ele>
        <time>2016-10-02T08:30:04.000Z</time>
      </trkpt>
      <trkpt lat="45.97669" lon="1.09934">
        <ele>314</ele>
        <time>2016-10-02T08:30:10.000Z</time>
      </trkpt>
      <trkpt lat="45.97663" lon="1.09929">
        <ele>314</ele>
        <time>2016-10-02T08:30:11.000Z</time>
      </trkpt>
      <trkpt lat="45.97655" lon="1.09927">
        <ele>313</ele>
        <time>2016-10-02T08:30:13.000Z</time>
      </trkpt>
      <trkpt lat="45.97648" lon="1.09936">
        <ele>313</ele>
        <time>2016-10-02T08:30:15.000Z</time>
      </trkpt>
      <trkpt lat="45.97625" lon="1.10002">
        <ele>311</ele>
        <time>2016-10-02T08:30:22.000Z</time>
      </trkpt>
      <trkpt lat="45.97621" lon="1.10012">
        <ele>311</ele>
        <time>2016-10-02T08:30:23.000Z</time>
      </trkpt>
      <trkpt lat="45.97597" lon="1.10075">
        <ele>310</ele>
        <time>2016-10-02T08:30:29.000Z</time>
      </trkpt>
      <trkpt lat="45.97593" lon="1.10086">
        <ele>310</ele>
        <time>2016-10-02T08:30:30.000Z</time>
      </trkpt>
      <trkpt lat="45.97571" lon="1.10151">
        <ele>309</ele>
        <time>2016-10-02T08:30:36.000Z</time>
      </trkpt>
      <trkpt lat="45.97567" lon="1.10162">
        <ele>309</ele>
        <time>2016-10-02T08:30:37.000Z</time>
      </trkpt>
      <trkpt lat="45.97556" lon="1.10216">
        <ele>309</ele>
        <time>2016-10-02T08:30:42.000Z</time>
      </trkpt>
      <trkpt lat="45.97556" lon="1.10227">
        <ele>309</ele>
        <time>2016-10-02T08:30:43.000Z</time>
      </trkpt>
      <trkpt lat="45.97559" lon="1.10255">
        <ele>309</ele>
        <time>2016-10-02T08:30:46.000Z</time>
      </trkpt>
      <trkpt lat="45.97573" lon="1.10293">
        <ele>307</ele>
        <time>2016-10-02T08:30:51.000Z</time>
      </trkpt>
      <trkpt lat="45.97593" lon="1.10336">
        <ele>306</ele>
        <time>2016-10-02T08:30:58.000Z</time>
      </trkpt>
      <trkpt lat="45.97598" lon="1.10353">
        <ele>307</ele>
        <time>2016-10-02T08:31:01.000Z</time>
      </trkpt>
      <trkpt lat="45.97595" lon="1.10376">
        <ele>309</ele>
        <time>2016-10-02T08:31:05.000Z</time>
      </trkpt>
      <trkpt lat="45.97592" lon="1.10387">
        <ele>311</ele>
        <time>2016-10-02T08:31:07.000Z</time>
      </trkpt>
      <trkpt lat="45.97575" lon="1.10421">
        <ele>321</ele>
        <time>2016-10-02T08:31:14.000Z</time>
      </trkpt>
      <trkpt lat="45.97557" lon="1.10448">
        <ele>331</ele>
        <time>2016-10-02T08:31:21.000Z</time>
      </trkpt>
      <trkpt lat="45.97543" lon="1.10463">
        <ele>335</ele>
        <time>2016-10-02T08:31:25.000Z</time>
      </trkpt>
      <trkpt lat="45.97533" lon="1.10467">
        <ele>336</ele>
        <time>2016-10-02T08:31:27.000Z</time>
      </trkpt>
      <trkpt lat="45.97489" lon="1.10464">
        <ele>333</ele>
        <time>2016-10-02T08:31:35.000Z</time>
      </trkpt>
      <trkpt lat="45.97483" lon="1.10464">
        <ele>333</ele>
        <time>2016-10-02T08:31:36.000Z</time>
      </trkpt>
      <trkpt lat="45.97433" lon="1.10472">
        <ele>328</ele>
        <time>2016-10-02T08:31:44.000Z</time>
      </trkpt>
      <trkpt lat="45.97427" lon="1.10474">
        <ele>328</ele>
        <time>2016-10-02T08:31:45.000Z</time>
      </trkpt>
      <trkpt lat="45.9738" lon="1.10489">
        <ele>323</ele>
        <time>2016-10-02T08:31:53.000Z</time>
      </trkpt>
      <trkpt lat="45.97377" lon="1.10493">
        <ele>323</ele>
        <time>2016-10-02T08:31:54.000Z</time>
      </trkpt>
      <trkpt lat="45.9737" lon="1.10503">
        <ele>323</ele>
        <time>2016-10-02T08:31:56.000Z</time>
      </trkpt>
      <trkpt lat="45.97346" lon="1.10566">
        <ele>323</ele>
        <time>2016-10-02T08:32:05.000Z</time>
      </trkpt>
      <trkpt lat="45.97343" lon="1.10573">
        <ele>323</ele>
        <time>2016-10-02T08:32:06.000Z</time>
      </trkpt>
      <trkpt lat="45.97322" lon="1.10634">
        <ele>329</ele>
        <time>2016-10-02T08:32:15.000Z</time>
      </trkpt>
      <trkpt lat="45.97319" lon="1.10641">
        <ele>330</ele>
        <time>2016-10-02T08:32:16.000Z</time>
      </trkpt>
      <trkpt lat="45.973" lon="1.10701">
        <ele>339</ele>
        <time>2016-10-02T08:32:26.000Z</time>
      </trkpt>
      <trkpt lat="45.97298" lon="1.10706">
        <ele>340</ele>
        <time>2016-10-02T08:32:27.000Z</time>
      </trkpt>
      <trkpt lat="45.97289" lon="1.10766">
        <ele>338</ele>
        <time>2016-10-02T08:32:37.000Z</time>
      </trkpt>
      <trkpt lat="45.9729" lon="1.10773">
        <ele>337</ele>
        <time>2016-10-02T08:32:38.000Z</time>
      </trkpt>
      <trkpt lat="45.97293" lon="1.108">
        <ele>335</ele>
        <time>2016-10-02T08:32:42.000Z</time>
      </trkpt>
      <trkpt lat="45.97303" lon="1.10823">
        <ele>332</ele>
        <time>2016-10-02T08:32:46.000Z</time>
      </trkpt>
      <trkpt lat="45.97327" lon="1.10835">
        <ele>327</ele>
        <time>2016-10-02T08:32:54.000Z</time>
      </trkpt>
      <trkpt lat="45.97368" lon="1.10844">
        <ele>330</ele>
        <time>2016-10-02T08:33:11.000Z</time>
      </trkpt>
      <trkpt lat="45.97412" lon="1.10857">
        <ele>333</ele>
        <time>2016-10-02T08:33:30.000Z</time>
      </trkpt>
      <trkpt lat="45.97414" lon="1.10857">
        <ele>333</ele>
        <time>2016-10-02T08:33:31.000Z</time>
      </trkpt>
      <trkpt lat="45.97428" lon="1.10861">
        <ele>334</ele>
        <time>2016-10-02T08:33:39.000Z</time>
      </trkpt>
      <trkpt lat="45.97463" lon="1.10903">
        <ele>341</ele>
        <time>2016-10-02T08:33:53.000Z</time>
      </trkpt>
      <trkpt lat="45.97466" lon="1.10907">
        <ele>341</ele>
        <time>2016-10-02T08:33:54.000Z</time>
      </trkpt>
      <trkpt lat="45.97495" lon="1.10946">
        <ele>340</ele>
        <time>2016-10-02T08:34:03.000Z</time>
      </trkpt>
      <trkpt lat="45.97504" lon="1.10955">
        <ele>341</ele>
        <time>2016-10-02T08:34:06.000Z</time>
      </trkpt>
      <trkpt lat="45.97536" lon="1.10973">
        <ele>343</ele>
        <time>2016-10-02T08:34:17.000Z</time>
      </trkpt>
      <trkpt lat="45.97553" lon="1.10983">
        <ele>344</ele>
        <time>2016-10-02T08:34:24.000Z</time>
      </trkpt>
      <trkpt lat="45.97587" lon="1.11029">
        <ele>343</ele>
        <time>2016-10-02T08:34:38.000Z</time>
      </trkpt>
      <trkpt lat="45.97589" lon="1.11032">
        <ele>343</ele>
        <time>2016-10-02T08:34:39.000Z</time>
      </trkpt>
      <trkpt lat="45.97623" lon="1.11081">
        <ele>346</ele>
        <time>2016-10-02T08:34:53.000Z</time>
      </trkpt>
      <trkpt lat="45.97626" lon="1.11084">
        <ele>346</ele>
        <time>2016-10-02T08:34:54.000Z</time>
      </trkpt>
      <trkpt lat="45.97645" lon="1.11113">
        <ele>349</ele>
        <time>2016-10-02T08:35:03.000Z</time>
      </trkpt>
      <trkpt lat="45.97649" lon="1.11119">
        <ele>349</ele>
        <time>2016-10-02T08:35:05.000Z</time>
      </trkpt>
      <trkpt lat="45.9766" lon="1.11136">
        <ele>350</ele>
        <time>2016-10-02T08:35:11.000Z</time>
      </trkpt>
      <trkpt lat="45.97661" lon="1.11143">
        <ele>350</ele>
        <time>2016-10-02T08:35:13.000Z</time>
      </trkpt>
      <trkpt lat="45.97659" lon="1.11159">
        <ele>351</ele>
        <time>2016-10-02T08:35:17.000Z</time>
      </trkpt>
      <trkpt lat="45.97652" lon="1.11171">
        <ele>351</ele>
        <time>2016-10-02T08:35:20.000Z</time>
      </trkpt>
      <trkpt lat="45.97622" lon="1.11205">
        <ele>352</ele>
        <time>2016-10-02T08:35:28.000Z</time>
      </trkpt>
      <trkpt lat="45.97596" lon="1.11224">
        <ele>353</ele>
        <time>2016-10-02T08:35:34.000Z</time>
      </trkpt>
      <trkpt lat="45.97567" lon="1.11236">
        <ele>352</ele>
        <time>2016-10-02T08:35:40.000Z</time>
      </trkpt>
      <trkpt lat="45.97551" lon="1.11239">
        <ele>352</ele>
        <time>2016-10-02T08:35:43.000Z</time>
      </trkpt>
      <trkpt lat="45.9752" lon="1.11239">
        <ele>353</ele>
        <time>2016-10-02T08:35:48.000Z</time>
      </trkpt>
      <trkpt lat="45.97474" lon="1.11252">
        <ele>353</ele>
        <time>2016-10-02T08:35:56.000Z</time>
      </trkpt>
      <trkpt lat="45.97468" lon="1.11255">
        <ele>352</ele>
        <time>2016-10-02T08:35:57.000Z</time>
      </trkpt>
      <trkpt lat="45.97421" lon="1.11286">
        <ele>349</ele>
        <time>2016-10-02T08:36:04.000Z</time>
      </trkpt>
      <trkpt lat="45.97413" lon="1.11291">
        <ele>349</ele>
        <time>2016-10-02T08:36:05.000Z</time>
      </trkpt>
      <trkpt lat="45.97371" lon="1.11323">
        <ele>347</ele>
        <time>2016-10-02T08:36:11.000Z</time>
      </trkpt>
      <trkpt lat="45.97364" lon="1.11328">
        <ele>346</ele>
        <time>2016-10-02T08:36:12.000Z</time>
      </trkpt>
      <trkpt lat="45.97351" lon="1.11341">
        <ele>346</ele>
        <time>2016-10-02T08:36:14.000Z</time>
      </trkpt>
      <trkpt lat="45.97311" lon="1.11381">
        <ele>344</ele>
        <time>2016-10-02T08:36:20.000Z</time>
      </trkpt>
      <trkpt lat="45.97303" lon="1.11386">
        <ele>344</ele>
        <time>2016-10-02T08:36:21.000Z</time>
      </trkpt>
      <trkpt lat="45.97296" lon="1.11391">
        <ele>343</ele>
        <time>2016-10-02T08:36:22.000Z</time>
      </trkpt>
      <trkpt lat="45.97253" lon="1.11418">
        <ele>341</ele>
        <time>2016-10-02T08:36:28.000Z</time>
      </trkpt>
      <trkpt lat="45.97247" lon="1.11423">
        <ele>341</ele>
        <time>2016-10-02T08:36:29.000Z</time>
      </trkpt>
      <trkpt lat="45.97202" lon="1.11459">
        <ele>340</ele>
        <time>2016-10-02T08:36:36.000Z</time>
      </trkpt>
      <trkpt lat="45.97196" lon="1.11465">
        <ele>340</ele>
        <time>2016-10-02T08:36:37.000Z</time>
      </trkpt>
      <trkpt lat="45.97151" lon="1.11496">
        <ele>341</ele>
        <time>2016-10-02T08:36:45.000Z</time>
      </trkpt>
      <trkpt lat="45.97146" lon="1.11499">
        <ele>341</ele>
        <time>2016-10-02T08:36:46.000Z</time>
      </trkpt>
      <trkpt lat="45.97141" lon="1.11502">
        <ele>341</ele>
        <time>2016-10-02T08:36:47.000Z</time>
      </trkpt>
      <trkpt lat="45.97095" lon="1.11522">
        <ele>341</ele>
        <time>2016-10-02T08:36:56.000Z</time>
      </trkpt>
      <trkpt lat="45.97089" lon="1.11525">
        <ele>341</ele>
        <time>2016-10-02T08:36:57.000Z</time>
      </trkpt>
      <trkpt lat="45.97044" lon="1.11543">
        <ele>340</ele>
        <time>2016-10-02T08:37:05.000Z</time>
      </trkpt>
      <trkpt lat="45.97039" lon="1.11545">
        <ele>340</ele>
        <time>2016-10-02T08:37:06.000Z</time>
      </trkpt>
      <trkpt lat="45.96989" lon="1.11561">
        <ele>339</ele>
        <time>2016-10-02T08:37:14.000Z</time>
      </trkpt>
      <trkpt lat="45.96983" lon="1.11563">
        <ele>338</ele>
        <time>2016-10-02T08:37:15.000Z</time>
      </trkpt>
      <trkpt lat="45.96938" lon="1.11579">
        <ele>339</ele>
        <time>2016-10-02T08:37:22.000Z</time>
      </trkpt>
      <trkpt lat="45.96932" lon="1.11581">
        <ele>339</ele>
        <time>2016-10-02T08:37:23.000Z</time>
      </trkpt>
      <trkpt lat="45.96886" lon="1.11601">
        <ele>339</ele>
        <time>2016-10-02T08:37:30.000Z</time>
      </trkpt>
      <trkpt lat="45.96881" lon="1.11604">
        <ele>339</ele>
        <time>2016-10-02T08:37:31.000Z</time>
      </trkpt>
      <trkpt lat="45.96833" lon="1.11625">
        <ele>340</ele>
        <time>2016-10-02T08:37:39.000Z</time>
      </trkpt>
      <trkpt lat="45.96827" lon="1.11628">
        <ele>340</ele>
        <time>2016-10-02T08:37:40.000Z</time>
      </trkpt>
      <trkpt lat="45.96782" lon="1.11645">
        <ele>338</ele>
        <time>2016-10-02T08:37:47.000Z</time>
      </trkpt>
      <trkpt lat="45.96775" lon="1.11647">
        <ele>338</ele>
        <time>2016-10-02T08:37:48.000Z</time>
      </trkpt>
      <trkpt lat="45.96725" lon="1.11665">
        <ele>335</ele>
        <time>2016-10-02T08:37:55.000Z</time>
      </trkpt>
      <trkpt lat="45.96718" lon="1.11669">
        <ele>335</ele>
        <time>2016-10-02T08:37:56.000Z</time>
      </trkpt>
      <trkpt lat="45.96671" lon="1.1169">
        <ele>334</ele>
        <time>2016-10-02T08:38:03.000Z</time>
      </trkpt>
      <trkpt lat="45.96665" lon="1.11694">
        <ele>334</ele>
        <time>2016-10-02T08:38:04.000Z</time>
      </trkpt>
      <trkpt lat="45.96621" lon="1.11721">
        <ele>333</ele>
        <time>2016-10-02T08:38:11.000Z</time>
      </trkpt>
      <trkpt lat="45.96614" lon="1.11725">
        <ele>332</ele>
        <time>2016-10-02T08:38:12.000Z</time>
      </trkpt>
      <trkpt lat="45.96569" lon="1.11752">
        <ele>331</ele>
        <time>2016-10-02T08:38:19.000Z</time>
      </trkpt>
      <trkpt lat="45.96562" lon="1.11756">
        <ele>331</ele>
        <time>2016-10-02T08:38:20.000Z</time>
      </trkpt>
      <trkpt lat="45.96515" lon="1.11778">
        <ele>330</ele>
        <time>2016-10-02T08:38:27.000Z</time>
      </trkpt>
      <trkpt lat="45.96508" lon="1.11781">
        <ele>330</ele>
        <time>2016-10-02T08:38:28.000Z</time>
      </trkpt>
      <trkpt lat="45.96461" lon="1.11802">
        <ele>328</ele>
        <time>2016-10-02T08:38:35.000Z</time>
      </trkpt>
      <trkpt lat="45.96455" lon="1.11805">
        <ele>328</ele>
        <time>2016-10-02T08:38:36.000Z</time>
      </trkpt>
      <trkpt lat="45.96427" lon="1.11813">
        <ele>326</ele>
        <time>2016-10-02T08:38:40.000Z</time>
      </trkpt>
      <trkpt lat="45.96401" lon="1.11819">
        <ele>326</ele>
        <time>2016-10-02T08:38:44.000Z</time>
      </trkpt>
      <trkpt lat="45.96385" lon="1.1184">
        <ele>325</ele>
        <time>2016-10-02T08:38:48.000Z</time>
      </trkpt>
      <trkpt lat="45.96384" lon="1.11853">
        <ele>325</ele>
        <time>2016-10-02T08:38:50.000Z</time>
      </trkpt>
      <trkpt lat="45.964" lon="1.11919">
        <ele>323</ele>
        <time>2016-10-02T08:38:56.000Z</time>
      </trkpt>
      <trkpt lat="45.96403" lon="1.11931">
        <ele>322</ele>
        <time>2016-10-02T08:38:57.000Z</time>
      </trkpt>
      <trkpt lat="45.9642" lon="1.12003">
        <ele>319</ele>
        <time>2016-10-02T08:39:03.000Z</time>
      </trkpt>
      <trkpt lat="45.96423" lon="1.12015">
        <ele>318</ele>
        <time>2016-10-02T08:39:04.000Z</time>
      </trkpt>
      <trkpt lat="45.96436" lon="1.12083">
        <ele>316</ele>
        <time>2016-10-02T08:39:10.000Z</time>
      </trkpt>
      <trkpt lat="45.9644" lon="1.12094">
        <ele>316</ele>
        <time>2016-10-02T08:39:11.000Z</time>
      </trkpt>
      <trkpt lat="45.9645" lon="1.12128">
        <ele>315</ele>
        <time>2016-10-02T08:39:14.000Z</time>
      </trkpt>
      <trkpt lat="45.96475" lon="1.12188">
        <ele>312</ele>
        <time>2016-10-02T08:39:20.000Z</time>
      </trkpt>
      <trkpt lat="45.96479" lon="1.12197">
        <ele>312</ele>
        <time>2016-10-02T08:39:21.000Z</time>
      </trkpt>
      <trkpt lat="45.96506" lon="1.12251">
        <ele>312</ele>
        <time>2016-10-02T08:39:28.000Z</time>
      </trkpt>
      <trkpt lat="45.96509" lon="1.12258">
        <ele>312</ele>
        <time>2016-10-02T08:39:29.000Z</time>
      </trkpt>
      <trkpt lat="45.96517" lon="1.12285">
        <ele>313</ele>
        <time>2016-10-02T08:39:33.000Z</time>
      </trkpt>
      <trkpt lat="45.96532" lon="1.12346">
        <ele>315</ele>
        <time>2016-10-02T08:39:42.000Z</time>
      </trkpt>
      <trkpt lat="45.96534" lon="1.12353">
        <ele>315</ele>
        <time>2016-10-02T08:39:43.000Z</time>
      </trkpt>
      <trkpt lat="45.96537" lon="1.12372">
        <ele>316</ele>
        <time>2016-10-02T08:39:46.000Z</time>
      </trkpt>
      <trkpt lat="45.96541" lon="1.12393">
        <ele>317</ele>
        <time>2016-10-02T08:39:50.000Z</time>
      </trkpt>
      <trkpt lat="45.96548" lon="1.12398">
        <ele>318</ele>
        <time>2016-10-02T08:39:53.000Z</time>
      </trkpt>
      <trkpt lat="45.96593" lon="1.12386">
        <ele>319</ele>
        <time>2016-10-02T08:40:04.000Z</time>
      </trkpt>
      <trkpt lat="45.96598" lon="1.12385">
        <ele>319</ele>
        <time>2016-10-02T08:40:05.000Z</time>
      </trkpt>
      <trkpt lat="45.96648" lon="1.12372">
        <ele>318</ele>
        <time>2016-10-02T08:40:15.000Z</time>
      </trkpt>
      <trkpt lat="45.96654" lon="1.12371">
        <ele>318</ele>
        <time>2016-10-02T08:40:16.000Z</time>
      </trkpt>
      <trkpt lat="45.96701" lon="1.12357">
        <ele>317</ele>
        <time>2016-10-02T08:40:24.000Z</time>
      </trkpt>
      <trkpt lat="45.96706" lon="1.12355">
        <ele>317</ele>
        <time>2016-10-02T08:40:25.000Z</time>
      </trkpt>
      <trkpt lat="45.9675" lon="1.12342">
        <ele>317</ele>
        <time>2016-10-02T08:40:37.000Z</time>
      </trkpt>
      <trkpt lat="45.96752" lon="1.12341">
        <ele>317</ele>
        <time>2016-10-02T08:40:38.000Z</time>
      </trkpt>
      <trkpt lat="45.96758" lon="1.12339">
        <ele>317</ele>
        <time>2016-10-02T08:40:41.000Z</time>
      </trkpt>
      <trkpt lat="45.96762" lon="1.12337">
        <ele>317</ele>
        <time>2016-10-02T08:40:45.000Z</time>
      </trkpt>
      <trkpt lat="45.96763" lon="1.12346">
        <ele>333</ele>
        <time>2016-10-02T08:41:22.000Z</time>
      </trkpt>
      <trkpt lat="45.96763" lon="1.12345">
        <ele>330</ele>
        <time>2016-10-02T08:42:55.000Z</time>
      </trkpt>
      <trkpt lat="45.96769" lon="1.12344">
        <ele>334</ele>
        <time>2016-10-02T08:43:05.000Z</time>
      </trkpt>
      <trkpt lat="45.96809" lon="1.12331">
        <ele>341</ele>
        <time>2016-10-02T08:43:17.000Z</time>
      </trkpt>
      <trkpt lat="45.96854" lon="1.1232">
        <ele>348</ele>
        <time>2016-10-02T08:43:27.000Z</time>
      </trkpt>
      <trkpt lat="45.96859" lon="1.12319">
        <ele>349</ele>
        <time>2016-10-02T08:43:28.000Z</time>
      </trkpt>
      <trkpt lat="45.96908" lon="1.12305">
        <ele>348</ele>
        <time>2016-10-02T08:43:38.000Z</time>
      </trkpt>
      <trkpt lat="45.96913" lon="1.12304">
        <ele>347</ele>
        <time>2016-10-02T08:43:39.000Z</time>
      </trkpt>
      <trkpt lat="45.9696" lon="1.12287">
        <ele>340</ele>
        <time>2016-10-02T08:43:49.000Z</time>
      </trkpt>
      <trkpt lat="45.96964" lon="1.12286">
        <ele>339</ele>
        <time>2016-10-02T08:43:50.000Z</time>
      </trkpt>
      <trkpt lat="45.97009" lon="1.12271">
        <ele>332</ele>
        <time>2016-10-02T08:44:00.000Z</time>
      </trkpt>
      <trkpt lat="45.97014" lon="1.1227">
        <ele>332</ele>
        <time>2016-10-02T08:44:01.000Z</time>
      </trkpt>
      <trkpt lat="45.97062" lon="1.12257">
        <ele>331</ele>
        <time>2016-10-02T08:44:12.000Z</time>
      </trkpt>
      <trkpt lat="45.97066" lon="1.12255">
        <ele>332</ele>
        <time>2016-10-02T08:44:13.000Z</time>
      </trkpt>
      <trkpt lat="45.97113" lon="1.12243">
        <ele>340</ele>
        <time>2016-10-02T08:44:23.000Z</time>
      </trkpt>
      <trkpt lat="45.97118" lon="1.12241">
        <ele>340</ele>
        <time>2016-10-02T08:44:24.000Z</time>
      </trkpt>
      <trkpt lat="45.97134" lon="1.12239">
        <ele>342</ele>
        <time>2016-10-02T08:44:28.000Z</time>
      </trkpt>
      <trkpt lat="45.97141" lon="1.12244">
        <ele>342</ele>
        <time>2016-10-02T08:44:30.000Z</time>
      </trkpt>
      <trkpt lat="45.97142" lon="1.12255">
        <ele>342</ele>
        <time>2016-10-02T08:44:32.000Z</time>
      </trkpt>
      <trkpt lat="45.97144" lon="1.12321">
        <ele>338</ele>
        <time>2016-10-02T08:44:42.000Z</time>
      </trkpt>
      <trkpt lat="45.97144" lon="1.12328">
        <ele>337</ele>
        <time>2016-10-02T08:44:43.000Z</time>
      </trkpt>
      <trkpt lat="45.97145" lon="1.12394">
        <ele>332</ele>
        <time>2016-10-02T08:44:52.000Z</time>
      </trkpt>
      <trkpt lat="45.97144" lon="1.12402">
        <ele>331</ele>
        <time>2016-10-02T08:44:53.000Z</time>
      </trkpt>
      <trkpt lat="45.97142" lon="1.12471">
        <ele>329</ele>
        <time>2016-10-02T08:45:01.000Z</time>
      </trkpt>
      <trkpt lat="45.97142" lon="1.1248">
        <ele>329</ele>
        <time>2016-10-02T08:45:02.000Z</time>
      </trkpt>
      <trkpt lat="45.97144" lon="1.12537">
        <ele>328</ele>
        <time>2016-10-02T08:45:10.000Z</time>
      </trkpt>
      <trkpt lat="45.97156" lon="1.12601">
        <ele>329</ele>
        <time>2016-10-02T08:45:19.000Z</time>
      </trkpt>
      <trkpt lat="45.97157" lon="1.12608">
        <ele>329</ele>
        <time>2016-10-02T08:45:20.000Z</time>
      </trkpt>
      <trkpt lat="45.97171" lon="1.12672">
        <ele>325</ele>
        <time>2016-10-02T08:45:28.000Z</time>
      </trkpt>
      <trkpt lat="45.97173" lon="1.12681">
        <ele>324</ele>
        <time>2016-10-02T08:45:29.000Z</time>
      </trkpt>
      <trkpt lat="45.97177" lon="1.12709">
        <ele>321</ele>
        <time>2016-10-02T08:45:32.000Z</time>
      </trkpt>
      <trkpt lat="45.97179" lon="1.12781">
        <ele>316</ele>
        <time>2016-10-02T08:45:39.000Z</time>
      </trkpt>
      <trkpt lat="45.97179" lon="1.12792">
        <ele>316</ele>
        <time>2016-10-02T08:45:40.000Z</time>
      </trkpt>
      <trkpt lat="45.97178" lon="1.12864">
        <ele>314</ele>
        <time>2016-10-02T08:45:47.000Z</time>
      </trkpt>
      <trkpt lat="45.97178" lon="1.12874">
        <ele>314</ele>
        <time>2016-10-02T08:45:48.000Z</time>
      </trkpt>
      <trkpt lat="45.97179" lon="1.12946">
        <ele>313</ele>
        <time>2016-10-02T08:45:55.000Z</time>
      </trkpt>
      <trkpt lat="45.97178" lon="1.12957">
        <ele>313</ele>
        <time>2016-10-02T08:45:56.000Z</time>
      </trkpt>
      <trkpt lat="45.97165" lon="1.13029">
        <ele>314</ele>
        <time>2016-10-02T08:46:03.000Z</time>
      </trkpt>
      <trkpt lat="45.97161" lon="1.13038">
        <ele>314</ele>
        <time>2016-10-02T08:46:04.000Z</time>
      </trkpt>
      <trkpt lat="45.97143" lon="1.131">
        <ele>318</ele>
        <time>2016-10-02T08:46:11.000Z</time>
      </trkpt>
      <trkpt lat="45.97141" lon="1.13108">
        <ele>318</ele>
        <time>2016-10-02T08:46:12.000Z</time>
      </trkpt>
      <trkpt lat="45.97139" lon="1.13116">
        <ele>319</ele>
        <time>2016-10-02T08:46:13.000Z</time>
      </trkpt>
      <trkpt lat="45.97124" lon="1.13186">
        <ele>320</ele>
        <time>2016-10-02T08:46:21.000Z</time>
      </trkpt>
      <trkpt lat="45.97123" lon="1.13195">
        <ele>320</ele>
        <time>2016-10-02T08:46:22.000Z</time>
      </trkpt>
      <trkpt lat="45.97115" lon="1.13254">
        <ele>319</ele>
        <time>2016-10-02T08:46:29.000Z</time>
      </trkpt>
      <trkpt lat="45.97115" lon="1.13262">
        <ele>319</ele>
        <time>2016-10-02T08:46:30.000Z</time>
      </trkpt>
      <trkpt lat="45.9711" lon="1.13332">
        <ele>319</ele>
        <time>2016-10-02T08:46:38.000Z</time>
      </trkpt>
      <trkpt lat="45.9711" lon="1.13339">
        <ele>319</ele>
        <time>2016-10-02T08:46:39.000Z</time>
      </trkpt>
      <trkpt lat="45.97106" lon="1.13387">
        <ele>321</ele>
        <time>2016-10-02T08:46:45.000Z</time>
      </trkpt>
      <trkpt lat="45.97096" lon="1.13423">
        <ele>321</ele>
        <time>2016-10-02T08:46:50.000Z</time>
      </trkpt>
      <trkpt lat="45.97089" lon="1.13441">
        <ele>321</ele>
        <time>2016-10-02T08:46:53.000Z</time>
      </trkpt>
      <trkpt lat="45.97075" lon="1.13505">
        <ele>320</ele>
        <time>2016-10-02T08:47:01.000Z</time>
      </trkpt>
      <trkpt lat="45.97073" lon="1.13513">
        <ele>320</ele>
        <time>2016-10-02T08:47:02.000Z</time>
      </trkpt>
      <trkpt lat="45.97066" lon="1.13572">
        <ele>320</ele>
        <time>2016-10-02T08:47:09.000Z</time>
      </trkpt>
      <trkpt lat="45.97065" lon="1.13581">
        <ele>320</ele>
        <time>2016-10-02T08:47:10.000Z</time>
      </trkpt>
      <trkpt lat="45.97063" lon="1.13654">
        <ele>319</ele>
        <time>2016-10-02T08:47:18.000Z</time>
      </trkpt>
      <trkpt lat="45.97062" lon="1.13663">
        <ele>319</ele>
        <time>2016-10-02T08:47:19.000Z</time>
      </trkpt>
      <trkpt lat="45.97054" lon="1.13727">
        <ele>318</ele>
        <time>2016-10-02T08:47:26.000Z</time>
      </trkpt>
      <trkpt lat="45.97054" lon="1.13737">
        <ele>318</ele>
        <time>2016-10-02T08:47:27.000Z</time>
      </trkpt>
      <trkpt lat="45.97046" lon="1.13805">
        <ele>317</ele>
        <time>2016-10-02T08:47:34.000Z</time>
      </trkpt>
      <trkpt lat="45.97044" lon="1.13814">
        <ele>317</ele>
        <time>2016-10-02T08:47:35.000Z</time>
      </trkpt>
      <trkpt lat="45.97034" lon="1.13858">
        <ele>317</ele>
        <time>2016-10-02T08:47:40.000Z</time>
      </trkpt>
      <trkpt lat="45.9701" lon="1.13914">
        <ele>317</ele>
        <time>2016-10-02T08:47:48.000Z</time>
      </trkpt>
      <trkpt lat="45.97007" lon="1.13919">
        <ele>317</ele>
        <time>2016-10-02T08:47:49.000Z</time>
      </trkpt>
      <trkpt lat="45.97" lon="1.13932">
        <ele>318</ele>
        <time>2016-10-02T08:47:51.000Z</time>
      </trkpt>
      <trkpt lat="45.96977" lon="1.1399">
        <ele>319</ele>
        <time>2016-10-02T08:48:00.000Z</time>
      </trkpt>
      <trkpt lat="45.96975" lon="1.13996">
        <ele>320</ele>
        <time>2016-10-02T08:48:01.000Z</time>
      </trkpt>
      <trkpt lat="45.96963" lon="1.14037">
        <ele>323</ele>
        <time>2016-10-02T08:48:09.000Z</time>
      </trkpt>
      <trkpt lat="45.96958" lon="1.14077">
        <ele>324</ele>
        <time>2016-10-02T08:48:17.000Z</time>
      </trkpt>
      <trkpt lat="45.96954" lon="1.14084">
        <ele>324</ele>
        <time>2016-10-02T08:48:19.000Z</time>
      </trkpt>
      <trkpt lat="45.96946" lon="1.14081">
        <ele>325</ele>
        <time>2016-10-02T08:48:22.000Z</time>
      </trkpt>
      <trkpt lat="45.96906" lon="1.14045">
        <ele>328</ele>
        <time>2016-10-02T08:48:30.000Z</time>
      </trkpt>
      <trkpt lat="45.96899" lon="1.14044">
        <ele>329</ele>
        <time>2016-10-02T08:48:31.000Z</time>
      </trkpt>
      <trkpt lat="45.96888" lon="1.14046">
        <ele>329</ele>
        <time>2016-10-02T08:48:33.000Z</time>
      </trkpt>
      <trkpt lat="45.96862" lon="1.14059">
        <ele>329</ele>
        <time>2016-10-02T08:48:37.000Z</time>
      </trkpt>
      <trkpt lat="45.96817" lon="1.14089">
        <ele>324</ele>
        <time>2016-10-02T08:48:44.000Z</time>
      </trkpt>
      <trkpt lat="45.96811" lon="1.14093">
        <ele>323</ele>
        <time>2016-10-02T08:48:45.000Z</time>
      </trkpt>
      <trkpt lat="45.96768" lon="1.14124">
        <ele>319</ele>
        <time>2016-10-02T08:48:52.000Z</time>
      </trkpt>
      <trkpt lat="45.96762" lon="1.14128">
        <ele>319</ele>
        <time>2016-10-02T08:48:53.000Z</time>
      </trkpt>
      <trkpt lat="45.96714" lon="1.14147">
        <ele>319</ele>
        <time>2016-10-02T08:49:00.000Z</time>
      </trkpt>
      <trkpt lat="45.96708" lon="1.14149">
        <ele>319</ele>
        <time>2016-10-02T08:49:01.000Z</time>
      </trkpt>
      <trkpt lat="45.96663" lon="1.14168">
        <ele>321</ele>
        <time>2016-10-02T08:49:08.000Z</time>
      </trkpt>
      <trkpt lat="45.96656" lon="1.14171">
        <ele>321</ele>
        <time>2016-10-02T08:49:09.000Z</time>
      </trkpt>
      <trkpt lat="45.96625" lon="1.14182">
        <ele>320</ele>
        <time>2016-10-02T08:49:13.000Z</time>
      </trkpt>
      <trkpt lat="45.96577" lon="1.14188">
        <ele>317</ele>
        <time>2016-10-02T08:49:19.000Z</time>
      </trkpt>
      <trkpt lat="45.96569" lon="1.14187">
        <ele>317</ele>
        <time>2016-10-02T08:49:20.000Z</time>
      </trkpt>
      <trkpt lat="45.96524" lon="1.14175">
        <ele>314</ele>
        <time>2016-10-02T08:49:26.000Z</time>
      </trkpt>
      <trkpt lat="45.96517" lon="1.14172">
        <ele>313</ele>
        <time>2016-10-02T08:49:27.000Z</time>
      </trkpt>
      <trkpt lat="45.96476" lon="1.14143">
        <ele>311</ele>
        <time>2016-10-02T08:49:33.000Z</time>
      </trkpt>
      <trkpt lat="45.96471" lon="1.14138">
        <ele>310</ele>
        <time>2016-10-02T08:49:34.000Z</time>
      </trkpt>
      <trkpt lat="45.96458" lon="1.14127">
        <ele>309</ele>
        <time>2016-10-02T08:49:36.000Z</time>
      </trkpt>
      <trkpt lat="45.96415" lon="1.14092">
        <ele>307</ele>
        <time>2016-10-02T08:49:43.000Z</time>
      </trkpt>
      <trkpt lat="45.96409" lon="1.14093">
        <ele>307</ele>
        <time>2016-10-02T08:49:44.000Z</time>
      </trkpt>
      <trkpt lat="45.96405" lon="1.14097">
        <ele>307</ele>
        <time>2016-10-02T08:49:45.000Z</time>
      </trkpt>
      <trkpt lat="45.96401" lon="1.14111">
        <ele>307</ele>
        <time>2016-10-02T08:49:47.000Z</time>
      </trkpt>
      <trkpt lat="45.96391" lon="1.14145">
        <ele>307</ele>
        <time>2016-10-02T08:49:52.000Z</time>
      </trkpt>
      <trkpt lat="45.96389" lon="1.14156">
        <ele>308</ele>
        <time>2016-10-02T08:49:57.000Z</time>
      </trkpt>
      <trkpt lat="45.96392" lon="1.14151">
        <ele>309</ele>
        <time>2016-10-02T08:50:01.000Z</time>
      </trkpt>
      <trkpt lat="45.96385" lon="1.14147">
        <ele>310</ele>
        <time>2016-10-02T08:50:04.000Z</time>
      </trkpt>
      <trkpt lat="45.96374" lon="1.1414">
        <ele>310</ele>
        <time>2016-10-02T08:50:07.000Z</time>
      </trkpt>
      <trkpt lat="45.96341" lon="1.14101">
        <ele>312</ele>
        <time>2016-10-02T08:50:15.000Z</time>
      </trkpt>
      <trkpt lat="45.96336" lon="1.14101">
        <ele>312</ele>
        <time>2016-10-02T08:50:16.000Z</time>
      </trkpt>
      <trkpt lat="45.96331" lon="1.14103">
        <ele>312</ele>
        <time>2016-10-02T08:50:17.000Z</time>
      </trkpt>
      <trkpt lat="45.96324" lon="1.14113">
        <ele>312</ele>
        <time>2016-10-02T08:50:19.000Z</time>
      </trkpt>
      <trkpt lat="45.96315" lon="1.14181">
        <ele>310</ele>
        <time>2016-10-02T08:50:26.000Z</time>
      </trkpt>
      <trkpt lat="45.96313" lon="1.14188">
        <ele>309</ele>
        <time>2016-10-02T08:50:27.000Z</time>
      </trkpt>
      <trkpt lat="45.96312" lon="1.14194">
        <ele>309</ele>
        <time>2016-10-02T08:50:28.000Z</time>
      </trkpt>
      <trkpt lat="45.96306" lon="1.14199">
        <ele>308</ele>
        <time>2016-10-02T08:50:30.000Z</time>
      </trkpt>
      <trkpt lat="45.96256" lon="1.14196">
        <ele>302</ele>
        <time>2016-10-02T08:50:39.000Z</time>
      </trkpt>
      <trkpt lat="45.9625" lon="1.14196">
        <ele>302</ele>
        <time>2016-10-02T08:50:40.000Z</time>
      </trkpt>
      <trkpt lat="45.962" lon="1.14191">
        <ele>297</ele>
        <time>2016-10-02T08:50:48.000Z</time>
      </trkpt>
      <trkpt lat="45.96193" lon="1.1419">
        <ele>297</ele>
        <time>2016-10-02T08:50:49.000Z</time>
      </trkpt>
      <trkpt lat="45.96148" lon="1.14185">
        <ele>293</ele>
        <time>2016-10-02T08:50:56.000Z</time>
      </trkpt>
      <trkpt lat="45.96141" lon="1.14184">
        <ele>293</ele>
        <time>2016-10-02T08:50:57.000Z</time>
      </trkpt>
      <trkpt lat="45.96095" lon="1.1418">
        <ele>294</ele>
        <time>2016-10-02T08:51:05.000Z</time>
      </trkpt>
      <trkpt lat="45.96088" lon="1.1418">
        <ele>295</ele>
        <time>2016-10-02T08:51:06.000Z</time>
      </trkpt>
      <trkpt lat="45.96043" lon="1.14175">
        <ele>296</ele>
        <time>2016-10-02T08:51:13.000Z</time>
      </trkpt>
      <trkpt lat="45.96037" lon="1.14174">
        <ele>296</ele>
        <time>2016-10-02T08:51:14.000Z</time>
      </trkpt>
      <trkpt lat="45.95989" lon="1.1417">
        <ele>296</ele>
        <time>2016-10-02T08:51:21.000Z</time>
      </trkpt>
      <trkpt lat="45.95983" lon="1.14169">
        <ele>296</ele>
        <time>2016-10-02T08:51:22.000Z</time>
      </trkpt>
      <trkpt lat="45.95933" lon="1.14162">
        <ele>295</ele>
        <time>2016-10-02T08:51:29.000Z</time>
      </trkpt>
      <trkpt lat="45.95927" lon="1.14161">
        <ele>295</ele>
        <time>2016-10-02T08:51:30.000Z</time>
      </trkpt>
      <trkpt lat="45.95877" lon="1.14157">
        <ele>295</ele>
        <time>2016-10-02T08:51:37.000Z</time>
      </trkpt>
      <trkpt lat="45.9587" lon="1.14156">
        <ele>295</ele>
        <time>2016-10-02T08:51:38.000Z</time>
      </trkpt>
      <trkpt lat="45.95842" lon="1.14151">
        <ele>294</ele>
        <time>2016-10-02T08:51:42.000Z</time>
      </trkpt>
      <trkpt lat="45.95794" lon="1.14141">
        <ele>294</ele>
        <time>2016-10-02T08:51:49.000Z</time>
      </trkpt>
      <trkpt lat="45.95787" lon="1.14143">
        <ele>294</ele>
        <time>2016-10-02T08:51:50.000Z</time>
      </trkpt>
      <trkpt lat="45.95741" lon="1.14163">
        <ele>292</ele>
        <time>2016-10-02T08:51:58.000Z</time>
      </trkpt>
      <trkpt lat="45.95738" lon="1.1416">
        <ele>292</ele>
        <time>2016-10-02T08:51:59.000Z</time>
      </trkpt>
      <trkpt lat="45.95736" lon="1.14155">
        <ele>292</ele>
        <time>2016-10-02T08:52:00.000Z</time>
      </trkpt>
      <trkpt lat="45.95715" lon="1.14094">
        <ele>290</ele>
        <time>2016-10-02T08:52:09.000Z</time>
      </trkpt>
      <trkpt lat="45.95712" lon="1.14085">
        <ele>290</ele>
        <time>2016-10-02T08:52:10.000Z</time>
      </trkpt>
      <trkpt lat="45.95697" lon="1.14052">
        <ele>289</ele>
        <time>2016-10-02T08:52:14.000Z</time>
      </trkpt>
      <trkpt lat="45.95676" lon="1.13993">
        <ele>289</ele>
        <time>2016-10-02T08:52:20.000Z</time>
      </trkpt>
      <trkpt lat="45.95673" lon="1.13983">
        <ele>289</ele>
        <time>2016-10-02T08:52:21.000Z</time>
      </trkpt>
      <trkpt lat="45.95648" lon="1.13919">
        <ele>289</ele>
        <time>2016-10-02T08:52:28.000Z</time>
      </trkpt>
      <trkpt lat="45.95644" lon="1.1391">
        <ele>289</ele>
        <time>2016-10-02T08:52:29.000Z</time>
      </trkpt>
      <trkpt lat="45.95626" lon="1.13877">
        <ele>289</ele>
        <time>2016-10-02T08:52:33.000Z</time>
      </trkpt>
      <trkpt lat="45.95589" lon="1.13832">
        <ele>291</ele>
        <time>2016-10-02T08:52:40.000Z</time>
      </trkpt>
      <trkpt lat="45.95584" lon="1.13825">
        <ele>291</ele>
        <time>2016-10-02T08:52:41.000Z</time>
      </trkpt>
      <trkpt lat="45.95576" lon="1.13809">
        <ele>292</ele>
        <time>2016-10-02T08:52:43.000Z</time>
      </trkpt>
      <trkpt lat="45.95556" lon="1.13744">
        <ele>294</ele>
        <time>2016-10-02T08:52:50.000Z</time>
      </trkpt>
      <trkpt lat="45.95553" lon="1.13735">
        <ele>294</ele>
        <time>2016-10-02T08:52:51.000Z</time>
      </trkpt>
      <trkpt lat="45.95535" lon="1.13675">
        <ele>297</ele>
        <time>2016-10-02T08:52:58.000Z</time>
      </trkpt>
      <trkpt lat="45.95533" lon="1.13668">
        <ele>297</ele>
        <time>2016-10-02T08:52:59.000Z</time>
      </trkpt>
      <trkpt lat="45.95521" lon="1.13621">
        <ele>298</ele>
        <time>2016-10-02T08:53:05.000Z</time>
      </trkpt>
      <trkpt lat="45.95516" lon="1.13599">
        <ele>298</ele>
        <time>2016-10-02T08:53:08.000Z</time>
      </trkpt>
      <trkpt lat="45.95509" lon="1.13585">
        <ele>297</ele>
        <time>2016-10-02T08:53:10.000Z</time>
      </trkpt>
      <trkpt lat="45.95471" lon="1.13538">
        <ele>294</ele>
        <time>2016-10-02T08:53:17.000Z</time>
      </trkpt>
      <trkpt lat="45.95464" lon="1.13529">
        <ele>293</ele>
        <time>2016-10-02T08:53:18.000Z</time>
      </trkpt>
      <trkpt lat="45.95426" lon="1.1348">
        <ele>288</ele>
        <time>2016-10-02T08:53:23.000Z</time>
      </trkpt>
      <trkpt lat="45.95416" lon="1.13471">
        <ele>287</ele>
        <time>2016-10-02T08:53:24.000Z</time>
      </trkpt>
      <trkpt lat="45.95406" lon="1.13464">
        <ele>285</ele>
        <time>2016-10-02T08:53:25.000Z</time>
      </trkpt>
      <trkpt lat="45.95362" lon="1.13453">
        <ele>282</ele>
        <time>2016-10-02T08:53:30.000Z</time>
      </trkpt>
      <trkpt lat="45.95359" lon="1.13446">
        <ele>282</ele>
        <time>2016-10-02T08:53:31.000Z</time>
      </trkpt>
      <trkpt lat="45.95357" lon="1.13438">
        <ele>282</ele>
        <time>2016-10-02T08:53:32.000Z</time>
      </trkpt>
      <trkpt lat="45.95358" lon="1.13412">
        <ele>282</ele>
        <time>2016-10-02T08:53:35.000Z</time>
      </trkpt>
      <trkpt lat="45.95356" lon="1.13377">
        <ele>283</ele>
        <time>2016-10-02T08:53:39.000Z</time>
      </trkpt>
      <trkpt lat="45.95348" lon="1.13308">
        <ele>283</ele>
        <time>2016-10-02T08:53:47.000Z</time>
      </trkpt>
      <trkpt lat="45.95347" lon="1.13299">
        <ele>283</ele>
        <time>2016-10-02T08:53:48.000Z</time>
      </trkpt>
      <trkpt lat="45.95343" lon="1.13282">
        <ele>283</ele>
        <time>2016-10-02T08:53:50.000Z</time>
      </trkpt>
      <trkpt lat="45.95331" lon="1.13239">
        <ele>282</ele>
        <time>2016-10-02T08:53:55.000Z</time>
      </trkpt>
      <trkpt lat="45.95309" lon="1.13203">
        <ele>281</ele>
        <time>2016-10-02T08:54:00.000Z</time>
      </trkpt>
      <trkpt lat="45.95276" lon="1.1317">
        <ele>280</ele>
        <time>2016-10-02T08:54:06.000Z</time>
      </trkpt>
      <trkpt lat="45.95271" lon="1.13166">
        <ele>280</ele>
        <time>2016-10-02T08:54:07.000Z</time>
      </trkpt>
      <trkpt lat="45.95236" lon="1.13145">
        <ele>280</ele>
        <time>2016-10-02T08:54:15.000Z</time>
      </trkpt>
      <trkpt lat="45.95229" lon="1.13148">
        <ele>280</ele>
        <time>2016-10-02T08:54:17.000Z</time>
      </trkpt>
      <trkpt lat="45.95222" lon="1.13162">
        <ele>281</ele>
        <time>2016-10-02T08:54:20.000Z</time>
      </trkpt>
      <trkpt lat="45.95218" lon="1.13173">
        <ele>281</ele>
        <time>2016-10-02T08:54:22.000Z</time>
      </trkpt>
      <trkpt lat="45.95211" lon="1.13174">
        <ele>281</ele>
        <time>2016-10-02T08:54:25.000Z</time>
      </trkpt>
      <trkpt lat="45.95205" lon="1.13179">
        <ele>281</ele>
        <time>2016-10-02T08:54:29.000Z</time>
      </trkpt>
      <trkpt lat="45.95198" lon="1.13187">
        <ele>282</ele>
        <time>2016-10-02T08:54:35.000Z</time>
      </trkpt>
      <trkpt lat="45.95156" lon="1.13213">
        <ele>289</ele>
        <time>2016-10-02T08:54:59.000Z</time>
      </trkpt>
      <trkpt lat="45.95155" lon="1.13215">
        <ele>289</ele>
        <time>2016-10-02T08:55:00.000Z</time>
      </trkpt>
      <trkpt lat="45.95133" lon="1.13225">
        <ele>293</ele>
        <time>2016-10-02T08:55:11.000Z</time>
      </trkpt>
      <trkpt lat="45.95126" lon="1.13225">
        <ele>294</ele>
        <time>2016-10-02T08:55:15.000Z</time>
      </trkpt>
      <trkpt lat="45.9511" lon="1.13231">
        <ele>295</ele>
        <time>2016-10-02T08:55:23.000Z</time>
      </trkpt>
      <trkpt lat="45.95101" lon="1.13237">
        <ele>296</ele>
        <time>2016-10-02T08:55:29.000Z</time>
      </trkpt>
      <trkpt lat="45.95102" lon="1.13245">
        <ele>297</ele>
        <time>2016-10-02T08:55:34.000Z</time>
      </trkpt>
      <trkpt lat="45.95103" lon="1.13252">
        <ele>297</ele>
        <time>2016-10-02T08:55:38.000Z</time>
      </trkpt>
      <trkpt lat="45.951" lon="1.13261">
        <ele>297</ele>
        <time>2016-10-02T08:55:42.000Z</time>
      </trkpt>
      <trkpt lat="45.95093" lon="1.13266">
        <ele>297</ele>
        <time>2016-10-02T08:55:45.000Z</time>
      </trkpt>
      <trkpt lat="45.95054" lon="1.13277">
        <ele>300</ele>
        <time>2016-10-02T08:55:57.000Z</time>
      </trkpt>
      <trkpt lat="45.95044" lon="1.13274">
        <ele>301</ele>
        <time>2016-10-02T08:56:00.000Z</time>
      </trkpt>
      <trkpt lat="45.95" lon="1.13246">
        <ele>304</ele>
        <time>2016-10-02T08:56:12.000Z</time>
      </trkpt>
      <trkpt lat="45.94996" lon="1.13244">
        <ele>304</ele>
        <time>2016-10-02T08:56:13.000Z</time>
      </trkpt>
      <trkpt lat="45.94949" lon="1.13221">
        <ele>304</ele>
        <time>2016-10-02T08:56:24.000Z</time>
      </trkpt>
      <trkpt lat="45.94944" lon="1.13219">
        <ele>304</ele>
        <time>2016-10-02T08:56:25.000Z</time>
      </trkpt>
      <trkpt lat="45.94899" lon="1.13196">
        <ele>302</ele>
        <time>2016-10-02T08:56:32.000Z</time>
      </trkpt>
      <trkpt lat="45.94892" lon="1.13191">
        <ele>302</ele>
        <time>2016-10-02T08:56:33.000Z</time>
      </trkpt>
      <trkpt lat="45.94843" lon="1.13169">
        <ele>301</ele>
        <time>2016-10-02T08:56:40.000Z</time>
      </trkpt>
      <trkpt lat="45.94837" lon="1.13167">
        <ele>301</ele>
        <time>2016-10-02T08:56:41.000Z</time>
      </trkpt>
      <trkpt lat="45.9483" lon="1.13166">
        <ele>301</ele>
        <time>2016-10-02T08:56:42.000Z</time>
      </trkpt>
      <trkpt lat="45.94796" lon="1.13168">
        <ele>300</ele>
        <time>2016-10-02T08:56:47.000Z</time>
      </trkpt>
      <trkpt lat="45.94757" lon="1.13171">
        <ele>299</ele>
        <time>2016-10-02T08:56:53.000Z</time>
      </trkpt>
      <trkpt lat="45.94751" lon="1.13168">
        <ele>299</ele>
        <time>2016-10-02T08:56:54.000Z</time>
      </trkpt>
      <trkpt lat="45.94745" lon="1.13163">
        <ele>299</ele>
        <time>2016-10-02T08:56:55.000Z</time>
      </trkpt>
      <trkpt lat="45.94722" lon="1.13136">
        <ele>299</ele>
        <time>2016-10-02T08:57:00.000Z</time>
      </trkpt>
      <trkpt lat="45.94694" lon="1.13113">
        <ele>300</ele>
        <time>2016-10-02T08:57:06.000Z</time>
      </trkpt>
      <trkpt lat="45.94659" lon="1.1307">
        <ele>299</ele>
        <time>2016-10-02T08:57:12.000Z</time>
      </trkpt>
      <trkpt lat="45.94653" lon="1.13063">
        <ele>298</ele>
        <time>2016-10-02T08:57:13.000Z</time>
      </trkpt>
      <trkpt lat="45.94641" lon="1.13053">
        <ele>298</ele>
        <time>2016-10-02T08:57:15.000Z</time>
      </trkpt>
      <trkpt lat="45.94633" lon="1.13056">
        <ele>297</ele>
        <time>2016-10-02T08:57:17.000Z</time>
      </trkpt>
      <trkpt lat="45.94622" lon="1.13071">
        <ele>296</ele>
        <time>2016-10-02T08:57:24.000Z</time>
      </trkpt>
      <trkpt lat="45.9461" lon="1.13081">
        <ele>296</ele>
        <time>2016-10-02T08:57:29.000Z</time>
      </trkpt>
      <trkpt lat="45.94569" lon="1.13103">
        <ele>298</ele>
        <time>2016-10-02T08:57:44.000Z</time>
      </trkpt>
      <trkpt lat="45.94565" lon="1.13104">
        <ele>298</ele>
        <time>2016-10-02T08:57:45.000Z</time>
      </trkpt>
      <trkpt lat="45.94542" lon="1.13109">
        <ele>299</ele>
        <time>2016-10-02T08:57:52.000Z</time>
      </trkpt>
      <trkpt lat="45.945" lon="1.13106">
        <ele>300</ele>
        <time>2016-10-02T08:58:04.000Z</time>
      </trkpt>
      <trkpt lat="45.94456" lon="1.13107">
        <ele>301</ele>
        <time>2016-10-02T08:58:16.000Z</time>
      </trkpt>
      <trkpt lat="45.94452" lon="1.13108">
        <ele>301</ele>
        <time>2016-10-02T08:58:17.000Z</time>
      </trkpt>
      <trkpt lat="45.94405" lon="1.13118">
        <ele>304</ele>
        <time>2016-10-02T08:58:30.000Z</time>
      </trkpt>
      <trkpt lat="45.94402" lon="1.13118">
        <ele>304</ele>
        <time>2016-10-02T08:58:31.000Z</time>
      </trkpt>
      <trkpt lat="45.94379" lon="1.13123">
        <ele>306</ele>
        <time>2016-10-02T08:58:38.000Z</time>
      </trkpt>
      <trkpt lat="45.94372" lon="1.13134">
        <ele>307</ele>
        <time>2016-10-02T08:58:41.000Z</time>
      </trkpt>
      <trkpt lat="45.94362" lon="1.13183">
        <ele>309</ele>
        <time>2016-10-02T08:58:51.000Z</time>
      </trkpt>
      <trkpt lat="45.94359" lon="1.132">
        <ele>309</ele>
        <time>2016-10-02T08:58:54.000Z</time>
      </trkpt>
      <trkpt lat="45.94358" lon="1.13215">
        <ele>310</ele>
        <time>2016-10-02T08:58:57.000Z</time>
      </trkpt>
      <trkpt lat="45.94358" lon="1.13235">
        <ele>310</ele>
        <time>2016-10-02T08:59:01.000Z</time>
      </trkpt>
      <trkpt lat="45.9436" lon="1.13304">
        <ele>309</ele>
        <time>2016-10-02T08:59:14.000Z</time>
      </trkpt>
      <trkpt lat="45.9436" lon="1.13311">
        <ele>309</ele>
        <time>2016-10-02T08:59:15.000Z</time>
      </trkpt>
      <trkpt lat="45.94364" lon="1.13359">
        <ele>309</ele>
        <time>2016-10-02T08:59:23.000Z</time>
      </trkpt>
      <trkpt lat="45.94368" lon="1.13371">
        <ele>309</ele>
        <time>2016-10-02T08:59:25.000Z</time>
      </trkpt>
      <trkpt lat="45.94385" lon="1.13402">
        <ele>309</ele>
        <time>2016-10-02T08:59:30.000Z</time>
      </trkpt>
      <trkpt lat="45.94416" lon="1.13451">
        <ele>307</ele>
        <time>2016-10-02T08:59:37.000Z</time>
      </trkpt>
      <trkpt lat="45.94421" lon="1.13459">
        <ele>307</ele>
        <time>2016-10-02T08:59:38.000Z</time>
      </trkpt>
      <trkpt lat="45.94438" lon="1.13477">
        <ele>307</ele>
        <time>2016-10-02T08:59:41.000Z</time>
      </trkpt>
      <trkpt lat="45.94459" lon="1.13489">
        <ele>306</ele>
        <time>2016-10-02T08:59:45.000Z</time>
      </trkpt>
      <trkpt lat="45.94492" lon="1.13501">
        <ele>306</ele>
        <time>2016-10-02T08:59:53.000Z</time>
      </trkpt>
      <trkpt lat="45.94537" lon="1.13495">
        <ele>305</ele>
        <time>2016-10-02T09:00:00.000Z</time>
      </trkpt>
      <trkpt lat="45.94544" lon="1.13493">
        <ele>305</ele>
        <time>2016-10-02T09:00:01.000Z</time>
      </trkpt>
      <trkpt lat="45.94595" lon="1.13482">
        <ele>306</ele>
        <time>2016-10-02T09:00:08.000Z</time>
      </trkpt>
      <trkpt lat="45.94602" lon="1.1348">
        <ele>306</ele>
        <time>2016-10-02T09:00:09.000Z</time>
      </trkpt>
      <trkpt lat="45.94647" lon="1.1347">
        <ele>308</ele>
        <time>2016-10-02T09:00:16.000Z</time>
      </trkpt>
      <trkpt lat="45.94653" lon="1.13468">
        <ele>309</ele>
        <time>2016-10-02T09:00:17.000Z</time>
      </trkpt>
      <trkpt lat="45.94695" lon="1.13459">
        <ele>310</ele>
        <time>2016-10-02T09:00:24.000Z</time>
      </trkpt>
      <trkpt lat="45.947" lon="1.13457">
        <ele>310</ele>
        <time>2016-10-02T09:00:25.000Z</time>
      </trkpt>
      <trkpt lat="45.94718" lon="1.13456">
        <ele>311</ele>
        <time>2016-10-02T09:00:29.000Z</time>
      </trkpt>
      <trkpt lat="45.9472" lon="1.13466">
        <ele>311</ele>
        <time>2016-10-02T09:00:31.000Z</time>
      </trkpt>
      <trkpt lat="45.9472" lon="1.13489">
        <ele>311</ele>
        <time>2016-10-02T09:00:36.000Z</time>
      </trkpt>
      <trkpt lat="45.94717" lon="1.13555">
        <ele>312</ele>
        <time>2016-10-02T09:00:49.000Z</time>
      </trkpt>
      <trkpt lat="45.94716" lon="1.13561">
        <ele>312</ele>
        <time>2016-10-02T09:00:50.000Z</time>
      </trkpt>
      <trkpt lat="45.94713" lon="1.13604">
        <ele>313</ele>
        <time>2016-10-02T09:00:58.000Z</time>
      </trkpt>
      <trkpt lat="45.94717" lon="1.13613">
        <ele>313</ele>
        <time>2016-10-02T09:01:00.000Z</time>
      </trkpt>
      <trkpt lat="45.94723" lon="1.13619">
        <ele>313</ele>
        <time>2016-10-02T09:01:02.000Z</time>
      </trkpt>
      <trkpt lat="45.94758" lon="1.13648">
        <ele>314</ele>
        <time>2016-10-02T09:01:12.000Z</time>
      </trkpt>
      <trkpt lat="45.94784" lon="1.13683">
        <ele>314</ele>
        <time>2016-10-02T09:01:20.000Z</time>
      </trkpt>
      <trkpt lat="45.94786" lon="1.13698">
        <ele>314</ele>
        <time>2016-10-02T09:01:23.000Z</time>
      </trkpt>
      <trkpt lat="45.94807" lon="1.13758">
        <ele>315</ele>
        <time>2016-10-02T09:01:34.000Z</time>
      </trkpt>
      <trkpt lat="45.94809" lon="1.13764">
        <ele>315</ele>
        <time>2016-10-02T09:01:35.000Z</time>
      </trkpt>
      <trkpt lat="45.94833" lon="1.13824">
        <ele>314</ele>
        <time>2016-10-02T09:01:44.000Z</time>
      </trkpt>
      <trkpt lat="45.94836" lon="1.13831">
        <ele>314</ele>
        <time>2016-10-02T09:01:45.000Z</time>
      </trkpt>
      <trkpt lat="45.94862" lon="1.13894">
        <ele>313</ele>
        <time>2016-10-02T09:01:53.000Z</time>
      </trkpt>
      <trkpt lat="45.94865" lon="1.13902">
        <ele>313</ele>
        <time>2016-10-02T09:01:54.000Z</time>
      </trkpt>
      <trkpt lat="45.94876" lon="1.13924">
        <ele>312</ele>
        <time>2016-10-02T09:01:57.000Z</time>
      </trkpt>
      <trkpt lat="45.94887" lon="1.1393">
        <ele>312</ele>
        <time>2016-10-02T09:01:59.000Z</time>
      </trkpt>
      <trkpt lat="45.94904" lon="1.13935">
        <ele>312</ele>
        <time>2016-10-02T09:02:03.000Z</time>
      </trkpt>
      <trkpt lat="45.94906" lon="1.13944">
        <ele>312</ele>
        <time>2016-10-02T09:02:05.000Z</time>
      </trkpt>
      <trkpt lat="45.949" lon="1.14014">
        <ele>316</ele>
        <time>2016-10-02T09:02:19.000Z</time>
      </trkpt>
      <trkpt lat="45.949" lon="1.14019">
        <ele>316</ele>
        <time>2016-10-02T09:02:20.000Z</time>
      </trkpt>
      <trkpt lat="45.94899" lon="1.14058">
        <ele>318</ele>
        <time>2016-10-02T09:02:27.000Z</time>
      </trkpt>
      <trkpt lat="45.94903" lon="1.14072">
        <ele>319</ele>
        <time>2016-10-02T09:02:30.000Z</time>
      </trkpt>
      <trkpt lat="45.94909" lon="1.14076">
        <ele>320</ele>
        <time>2016-10-02T09:02:32.000Z</time>
      </trkpt>
      <trkpt lat="45.94926" lon="1.14083">
        <ele>320</ele>
        <time>2016-10-02T09:02:37.000Z</time>
      </trkpt>
      <trkpt lat="45.94968" lon="1.14112">
        <ele>316</ele>
        <time>2016-10-02T09:02:45.000Z</time>
      </trkpt>
      <trkpt lat="45.94975" lon="1.14117">
        <ele>316</ele>
        <time>2016-10-02T09:02:46.000Z</time>
      </trkpt>
      <trkpt lat="45.9502" lon="1.14155">
        <ele>311</ele>
        <time>2016-10-02T09:02:53.000Z</time>
      </trkpt>
      <trkpt lat="45.95027" lon="1.14159">
        <ele>310</ele>
        <time>2016-10-02T09:02:54.000Z</time>
      </trkpt>
      <trkpt lat="45.95057" lon="1.14171">
        <ele>308</ele>
        <time>2016-10-02T09:02:58.000Z</time>
      </trkpt>
      <trkpt lat="45.95089" lon="1.14167">
        <ele>306</ele>
        <time>2016-10-02T09:03:02.000Z</time>
      </trkpt>
      <trkpt lat="45.95134" lon="1.14143">
        <ele>302</ele>
        <time>2016-10-02T09:03:07.000Z</time>
      </trkpt>
      <trkpt lat="45.95143" lon="1.14139">
        <ele>301</ele>
        <time>2016-10-02T09:03:08.000Z</time>
      </trkpt>
      <trkpt lat="45.95189" lon="1.14122">
        <ele>297</ele>
        <time>2016-10-02T09:03:14.000Z</time>
      </trkpt>
      <trkpt lat="45.95198" lon="1.14121">
        <ele>297</ele>
        <time>2016-10-02T09:03:15.000Z</time>
      </trkpt>
      <trkpt lat="45.95206" lon="1.1412">
        <ele>297</ele>
        <time>2016-10-02T09:03:16.000Z</time>
      </trkpt>
      <trkpt lat="45.9526" lon="1.14115">
        <ele>296</ele>
        <time>2016-10-02T09:03:22.000Z</time>
      </trkpt>
      <trkpt lat="45.95268" lon="1.14113">
        <ele>296</ele>
        <time>2016-10-02T09:03:23.000Z</time>
      </trkpt>
      <trkpt lat="45.95284" lon="1.14109">
        <ele>296</ele>
        <time>2016-10-02T09:03:25.000Z</time>
      </trkpt>
      <trkpt lat="45.95319" lon="1.14097">
        <ele>295</ele>
        <time>2016-10-02T09:03:30.000Z</time>
      </trkpt>
      <trkpt lat="45.95367" lon="1.14113">
        <ele>294</ele>
        <time>2016-10-02T09:03:36.000Z</time>
      </trkpt>
      <trkpt lat="45.95375" lon="1.14116">
        <ele>293</ele>
        <time>2016-10-02T09:03:37.000Z</time>
      </trkpt>
      <trkpt lat="45.95428" lon="1.14127">
        <ele>290</ele>
        <time>2016-10-02T09:03:43.000Z</time>
      </trkpt>
      <trkpt lat="45.95436" lon="1.14128">
        <ele>290</ele>
        <time>2016-10-02T09:03:44.000Z</time>
      </trkpt>
      <trkpt lat="45.9545" lon="1.14135">
        <ele>289</ele>
        <time>2016-10-02T09:03:46.000Z</time>
      </trkpt>
      <trkpt lat="45.95464" lon="1.14155">
        <ele>287</ele>
        <time>2016-10-02T09:03:49.000Z</time>
      </trkpt>
      <trkpt lat="45.9547" lon="1.14196">
        <ele>286</ele>
        <time>2016-10-02T09:03:54.000Z</time>
      </trkpt>
      <trkpt lat="45.95475" lon="1.14223">
        <ele>286</ele>
        <time>2016-10-02T09:03:58.000Z</time>
      </trkpt>
      <trkpt lat="45.95482" lon="1.14232">
        <ele>286</ele>
        <time>2016-10-02T09:04:00.000Z</time>
      </trkpt>
      <trkpt lat="45.95523" lon="1.14261">
        <ele>289</ele>
        <time>2016-10-02T09:04:07.000Z</time>
      </trkpt>
      <trkpt lat="45.9553" lon="1.14266">
        <ele>289</ele>
        <time>2016-10-02T09:04:08.000Z</time>
      </trkpt>
      <trkpt lat="45.95571" lon="1.14295">
        <ele>290</ele>
        <time>2016-10-02T09:04:15.000Z</time>
      </trkpt>
      <trkpt lat="45.95577" lon="1.14298">
        <ele>290</ele>
        <time>2016-10-02T09:04:16.000Z</time>
      </trkpt>
      <trkpt lat="45.95584" lon="1.14301">
        <ele>290</ele>
        <time>2016-10-02T09:04:17.000Z</time>
      </trkpt>
      <trkpt lat="45.9561" lon="1.14318">
        <ele>289</ele>
        <time>2016-10-02T09:04:21.000Z</time>
      </trkpt>
      <trkpt lat="45.9562" lon="1.14331">
        <ele>288</ele>
        <time>2016-10-02T09:04:23.000Z</time>
      </trkpt>
      <trkpt lat="45.95625" lon="1.14345">
        <ele>288</ele>
        <time>2016-10-02T09:04:25.000Z</time>
      </trkpt>
      <trkpt lat="45.95626" lon="1.14362">
        <ele>288</ele>
        <time>2016-10-02T09:04:28.000Z</time>
      </trkpt>
      <trkpt lat="45.95625" lon="1.14374">
        <ele>289</ele>
        <time>2016-10-02T09:04:31.000Z</time>
      </trkpt>
      <trkpt lat="45.95625" lon="1.14391">
        <ele>290</ele>
        <time>2016-10-02T09:04:35.000Z</time>
      </trkpt>
      <trkpt lat="45.95626" lon="1.14403">
        <ele>292</ele>
        <time>2016-10-02T09:04:38.000Z</time>
      </trkpt>
      <trkpt lat="45.95626" lon="1.14411">
        <ele>293</ele>
        <time>2016-10-02T09:04:40.000Z</time>
      </trkpt>
      <trkpt lat="45.95629" lon="1.14478">
        <ele>300</ele>
        <time>2016-10-02T09:04:56.000Z</time>
      </trkpt>
      <trkpt lat="45.9563" lon="1.14482">
        <ele>300</ele>
        <time>2016-10-02T09:04:57.000Z</time>
      </trkpt>
      <trkpt lat="45.9563" lon="1.14547">
        <ele>303</ele>
        <time>2016-10-02T09:05:14.000Z</time>
      </trkpt>
      <trkpt lat="45.9563" lon="1.1455">
        <ele>303</ele>
        <time>2016-10-02T09:05:15.000Z</time>
      </trkpt>
      <trkpt lat="45.95629" lon="1.14553">
        <ele>303</ele>
        <time>2016-10-02T09:05:16.000Z</time>
      </trkpt>
      <trkpt lat="45.95619" lon="1.14573">
        <ele>304</ele>
        <time>2016-10-02T09:05:24.000Z</time>
      </trkpt>
      <trkpt lat="45.95598" lon="1.1461">
        <ele>308</ele>
        <time>2016-10-02T09:05:40.000Z</time>
      </trkpt>
      <trkpt lat="45.95588" lon="1.14651">
        <ele>313</ele>
        <time>2016-10-02T09:05:55.000Z</time>
      </trkpt>
      <trkpt lat="45.95587" lon="1.14686">
        <ele>315</ele>
        <time>2016-10-02T09:06:07.000Z</time>
      </trkpt>
      <trkpt lat="45.95583" lon="1.147">
        <ele>314</ele>
        <time>2016-10-02T09:06:13.000Z</time>
      </trkpt>
      <trkpt lat="45.95566" lon="1.14761">
        <ele>320</ele>
        <time>2016-10-02T09:06:43.000Z</time>
      </trkpt>
      <trkpt lat="45.95566" lon="1.14762">
        <ele>320</ele>
        <time>2016-10-02T09:06:44.000Z</time>
      </trkpt>
      <trkpt lat="45.95565" lon="1.14764">
        <ele>320</ele>
        <time>2016-10-02T09:06:45.000Z</time>
      </trkpt>
      <trkpt lat="45.95556" lon="1.14782">
        <ele>323</ele>
        <time>2016-10-02T09:06:55.000Z</time>
      </trkpt>
      <trkpt lat="45.95552" lon="1.14789">
        <ele>324</ele>
        <time>2016-10-02T09:06:59.000Z</time>
      </trkpt>
      <trkpt lat="45.95514" lon="1.14827">
        <ele>327</ele>
        <time>2016-10-02T09:07:24.000Z</time>
      </trkpt>
      <trkpt lat="45.95513" lon="1.14828">
        <ele>327</ele>
        <time>2016-10-02T09:07:25.000Z</time>
      </trkpt>
      <trkpt lat="45.95509" lon="1.14831">
        <ele>328</ele>
        <time>2016-10-02T09:07:27.000Z</time>
      </trkpt>
      <trkpt lat="45.95493" lon="1.14841">
        <ele>331</ele>
        <time>2016-10-02T09:07:37.000Z</time>
      </trkpt>
      <trkpt lat="45.95449" lon="1.14856">
        <ele>333</ele>
        <time>2016-10-02T09:07:59.000Z</time>
      </trkpt>
      <trkpt lat="45.95447" lon="1.14857">
        <ele>333</ele>
        <time>2016-10-02T09:08:00.000Z</time>
      </trkpt>
      <trkpt lat="45.95429" lon="1.14868">
        <ele>335</ele>
        <time>2016-10-02T09:08:09.000Z</time>
      </trkpt>
      <trkpt lat="45.95396" lon="1.14917">
        <ele>337</ele>
        <time>2016-10-02T09:08:25.000Z</time>
      </trkpt>
      <trkpt lat="45.95394" lon="1.1492">
        <ele>337</ele>
        <time>2016-10-02T09:08:26.000Z</time>
      </trkpt>
      <trkpt lat="45.95388" lon="1.14931">
        <ele>338</ele>
        <time>2016-10-02T09:08:29.000Z</time>
      </trkpt>
      <trkpt lat="45.95378" lon="1.14957">
        <ele>339</ele>
        <time>2016-10-02T09:08:36.000Z</time>
      </trkpt>
      <trkpt lat="45.95376" lon="1.14964">
        <ele>339</ele>
        <time>2016-10-02T09:08:38.000Z</time>
      </trkpt>
      <trkpt lat="45.9536" lon="1.14996">
        <ele>342</ele>
        <time>2016-10-02T09:08:47.000Z</time>
      </trkpt>
      <trkpt lat="45.95326" lon="1.15043">
        <ele>344</ele>
        <time>2016-10-02T09:09:01.000Z</time>
      </trkpt>
      <trkpt lat="45.95323" lon="1.15047">
        <ele>344</ele>
        <time>2016-10-02T09:09:02.000Z</time>
      </trkpt>
      <trkpt lat="45.95292" lon="1.15093">
        <ele>344</ele>
        <time>2016-10-02T09:09:12.000Z</time>
      </trkpt>
      <trkpt lat="45.95288" lon="1.15098">
        <ele>344</ele>
        <time>2016-10-02T09:09:13.000Z</time>
      </trkpt>
      <trkpt lat="45.95254" lon="1.15152">
        <ele>343</ele>
        <time>2016-10-02T09:09:22.000Z</time>
      </trkpt>
      <trkpt lat="45.95249" lon="1.15157">
        <ele>343</ele>
        <time>2016-10-02T09:09:23.000Z</time>
      </trkpt>
      <trkpt lat="45.95216" lon="1.15202">
        <ele>343</ele>
        <time>2016-10-02T09:09:31.000Z</time>
      </trkpt>
      <trkpt lat="45.95212" lon="1.15208">
        <ele>343</ele>
        <time>2016-10-02T09:09:32.000Z</time>
      </trkpt>
      <trkpt lat="45.95177" lon="1.15257">
        <ele>344</ele>
        <time>2016-10-02T09:09:42.000Z</time>
      </trkpt>
      <trkpt lat="45.95176" lon="1.15263">
        <ele>344</ele>
        <time>2016-10-02T09:09:43.000Z</time>
      </trkpt>
      <trkpt lat="45.95184" lon="1.15308">
        <ele>346</ele>
        <time>2016-10-02T09:09:50.000Z</time>
      </trkpt>
      <trkpt lat="45.95193" lon="1.15367">
        <ele>347</ele>
        <time>2016-10-02T09:09:59.000Z</time>
      </trkpt>
      <trkpt lat="45.95192" lon="1.15373">
        <ele>347</ele>
        <time>2016-10-02T09:10:00.000Z</time>
      </trkpt>
      <trkpt lat="45.95189" lon="1.15377">
        <ele>347</ele>
        <time>2016-10-02T09:10:01.000Z</time>
      </trkpt>
      <trkpt lat="45.95181" lon="1.15375">
        <ele>347</ele>
        <time>2016-10-02T09:10:03.000Z</time>
      </trkpt>
      <trkpt lat="45.95139" lon="1.15336">
        <ele>349</ele>
        <time>2016-10-02T09:10:12.000Z</time>
      </trkpt>
      <trkpt lat="45.95134" lon="1.15331">
        <ele>349</ele>
        <time>2016-10-02T09:10:13.000Z</time>
      </trkpt>
      <trkpt lat="45.9509" lon="1.15297">
        <ele>350</ele>
        <time>2016-10-02T09:10:21.000Z</time>
      </trkpt>
      <trkpt lat="45.95084" lon="1.15293">
        <ele>350</ele>
        <time>2016-10-02T09:10:22.000Z</time>
      </trkpt>
      <trkpt lat="45.95072" lon="1.15286">
        <ele>350</ele>
        <time>2016-10-02T09:10:24.000Z</time>
      </trkpt>
      <trkpt lat="45.95026" lon="1.15262">
        <ele>350</ele>
        <time>2016-10-02T09:10:32.000Z</time>
      </trkpt>
      <trkpt lat="45.95021" lon="1.1526">
        <ele>350</ele>
        <time>2016-10-02T09:10:33.000Z</time>
      </trkpt>
      <trkpt lat="45.94975" lon="1.15236">
        <ele>351</ele>
        <time>2016-10-02T09:10:41.000Z</time>
      </trkpt>
      <trkpt lat="45.9497" lon="1.15233">
        <ele>352</ele>
        <time>2016-10-02T09:10:42.000Z</time>
      </trkpt>
      <trkpt lat="45.9495" lon="1.15217">
        <ele>352</ele>
        <time>2016-10-02T09:10:46.000Z</time>
      </trkpt>
      <trkpt lat="45.94938" lon="1.15206">
        <ele>352</ele>
        <time>2016-10-02T09:10:49.000Z</time>
      </trkpt>
      <trkpt lat="45.94923" lon="1.152">
        <ele>351</ele>
        <time>2016-10-02T09:10:52.000Z</time>
      </trkpt>
      <trkpt lat="45.94906" lon="1.15207">
        <ele>351</ele>
        <time>2016-10-02T09:10:55.000Z</time>
      </trkpt>
      <trkpt lat="45.94895" lon="1.15225">
        <ele>350</ele>
        <time>2016-10-02T09:10:58.000Z</time>
      </trkpt>
      <trkpt lat="45.94867" lon="1.15281">
        <ele>344</ele>
        <time>2016-10-02T09:11:06.000Z</time>
      </trkpt>
      <trkpt lat="45.94862" lon="1.15286">
        <ele>344</ele>
        <time>2016-10-02T09:11:07.000Z</time>
      </trkpt>
      <trkpt lat="45.94831" lon="1.15312">
        <ele>340</ele>
        <time>2016-10-02T09:11:13.000Z</time>
      </trkpt>
      <trkpt lat="45.94794" lon="1.15343">
        <ele>338</ele>
        <time>2016-10-02T09:11:22.000Z</time>
      </trkpt>
      <trkpt lat="45.94791" lon="1.15347">
        <ele>338</ele>
        <time>2016-10-02T09:11:23.000Z</time>
      </trkpt>
      <trkpt lat="45.94789" lon="1.15355">
        <ele>336</ele>
        <time>2016-10-02T09:11:25.000Z</time>
      </trkpt>
      <trkpt lat="45.94792" lon="1.15378">
        <ele>332</ele>
        <time>2016-10-02T09:11:29.000Z</time>
      </trkpt>
      <trkpt lat="45.94809" lon="1.15442">
        <ele>326</ele>
        <time>2016-10-02T09:11:35.000Z</time>
      </trkpt>
      <trkpt lat="45.94812" lon="1.15453">
        <ele>326</ele>
        <time>2016-10-02T09:11:36.000Z</time>
      </trkpt>
      <trkpt lat="45.94826" lon="1.15508">
        <ele>326</ele>
        <time>2016-10-02T09:11:41.000Z</time>
      </trkpt>
      <trkpt lat="45.94827" lon="1.15519">
        <ele>326</ele>
        <time>2016-10-02T09:11:42.000Z</time>
      </trkpt>
      <trkpt lat="45.94827" lon="1.15572">
        <ele>330</ele>
        <time>2016-10-02T09:11:48.000Z</time>
      </trkpt>
      <trkpt lat="45.94825" lon="1.15593">
        <ele>331</ele>
        <time>2016-10-02T09:11:51.000Z</time>
      </trkpt>
      <trkpt lat="45.94832" lon="1.15651">
        <ele>334</ele>
        <time>2016-10-02T09:12:01.000Z</time>
      </trkpt>
      <trkpt lat="45.94833" lon="1.15656">
        <ele>335</ele>
        <time>2016-10-02T09:12:02.000Z</time>
      </trkpt>
      <trkpt lat="45.9484" lon="1.15691">
        <ele>337</ele>
        <time>2016-10-02T09:12:09.000Z</time>
      </trkpt>
      <trkpt lat="45.94845" lon="1.15711">
        <ele>339</ele>
        <time>2016-10-02T09:12:14.000Z</time>
      </trkpt>
      <trkpt lat="45.94847" lon="1.15723">
        <ele>339</ele>
        <time>2016-10-02T09:12:17.000Z</time>
      </trkpt>
      <trkpt lat="45.94873" lon="1.15782">
        <ele>336</ele>
        <time>2016-10-02T09:12:30.000Z</time>
      </trkpt>
      <trkpt lat="45.94876" lon="1.15787">
        <ele>335</ele>
        <time>2016-10-02T09:12:31.000Z</time>
      </trkpt>
      <trkpt lat="45.94899" lon="1.15844">
        <ele>332</ele>
        <time>2016-10-02T09:12:40.000Z</time>
      </trkpt>
      <trkpt lat="45.94901" lon="1.15851">
        <ele>331</ele>
        <time>2016-10-02T09:12:41.000Z</time>
      </trkpt>
      <trkpt lat="45.94913" lon="1.15885">
        <ele>331</ele>
        <time>2016-10-02T09:12:46.000Z</time>
      </trkpt>
      <trkpt lat="45.94914" lon="1.15953">
        <ele>334</ele>
        <time>2016-10-02T09:12:58.000Z</time>
      </trkpt>
      <trkpt lat="45.94914" lon="1.15957">
        <ele>335</ele>
        <time>2016-10-02T09:12:59.000Z</time>
      </trkpt>
      <trkpt lat="45.94917" lon="1.16009">
        <ele>337</ele>
        <time>2016-10-02T09:13:11.000Z</time>
      </trkpt>
      <trkpt lat="45.9492" lon="1.16025">
        <ele>339</ele>
        <time>2016-10-02T09:13:15.000Z</time>
      </trkpt>
      <trkpt lat="45.94926" lon="1.16049">
        <ele>339</ele>
        <time>2016-10-02T09:13:21.000Z</time>
      </trkpt>
      <trkpt lat="45.94936" lon="1.16078">
        <ele>337</ele>
        <time>2016-10-02T09:13:28.000Z</time>
      </trkpt>
      <trkpt lat="45.94937" lon="1.16093">
        <ele>335</ele>
        <time>2016-10-02T09:13:32.000Z</time>
      </trkpt>
      <trkpt lat="45.94923" lon="1.16094">
        <ele>335</ele>
        <time>2016-10-02T09:13:37.000Z</time>
      </trkpt>
      <trkpt lat="45.94878" lon="1.161">
        <ele>329</ele>
        <time>2016-10-02T09:13:48.000Z</time>
      </trkpt>
      <trkpt lat="45.94875" lon="1.161">
        <ele>329</ele>
        <time>2016-10-02T09:13:49.000Z</time>
      </trkpt>
      <trkpt lat="45.94827" lon="1.16104">
        <ele>325</ele>
        <time>2016-10-02T09:13:58.000Z</time>
      </trkpt>
      <trkpt lat="45.94821" lon="1.16104">
        <ele>324</ele>
        <time>2016-10-02T09:13:59.000Z</time>
      </trkpt>
      <trkpt lat="45.94815" lon="1.16103">
        <ele>324</ele>
        <time>2016-10-02T09:14:00.000Z</time>
      </trkpt>
      <trkpt lat="45.94788" lon="1.16106">
        <ele>322</ele>
        <time>2016-10-02T09:14:05.000Z</time>
      </trkpt>
      <trkpt lat="45.94765" lon="1.16116">
        <ele>321</ele>
        <time>2016-10-02T09:14:10.000Z</time>
      </trkpt>
      <trkpt lat="45.94719" lon="1.16142">
        <ele>318</ele>
        <time>2016-10-02T09:14:20.000Z</time>
      </trkpt>
      <trkpt lat="45.94715" lon="1.16144">
        <ele>318</ele>
        <time>2016-10-02T09:14:21.000Z</time>
      </trkpt>
      <trkpt lat="45.94672" lon="1.16166">
        <ele>317</ele>
        <time>2016-10-02T09:14:31.000Z</time>
      </trkpt>
      <trkpt lat="45.94668" lon="1.16169">
        <ele>317</ele>
        <time>2016-10-02T09:14:32.000Z</time>
      </trkpt>
      <trkpt lat="45.94656" lon="1.16175">
        <ele>317</ele>
        <time>2016-10-02T09:14:35.000Z</time>
      </trkpt>
      <trkpt lat="45.94613" lon="1.16192">
        <ele>314</ele>
        <time>2016-10-02T09:14:45.000Z</time>
      </trkpt>
      <trkpt lat="45.94607" lon="1.16193">
        <ele>314</ele>
        <time>2016-10-02T09:14:46.000Z</time>
      </trkpt>
      <trkpt lat="45.94562" lon="1.16214">
        <ele>314</ele>
        <time>2016-10-02T09:14:56.000Z</time>
      </trkpt>
      <trkpt lat="45.94558" lon="1.16217">
        <ele>314</ele>
        <time>2016-10-02T09:14:57.000Z</time>
      </trkpt>
      <trkpt lat="45.94512" lon="1.16235">
        <ele>311</ele>
        <time>2016-10-02T09:15:06.000Z</time>
      </trkpt>
      <trkpt lat="45.94507" lon="1.16238">
        <ele>311</ele>
        <time>2016-10-02T09:15:07.000Z</time>
      </trkpt>
      <trkpt lat="45.94475" lon="1.16247">
        <ele>309</ele>
        <time>2016-10-02T09:15:13.000Z</time>
      </trkpt>
      <trkpt lat="45.94455" lon="1.16252">
        <ele>309</ele>
        <time>2016-10-02T09:15:17.000Z</time>
      </trkpt>
      <trkpt lat="45.94409" lon="1.16265">
        <ele>311</ele>
        <time>2016-10-02T09:15:27.000Z</time>
      </trkpt>
      <trkpt lat="45.94404" lon="1.16267">
        <ele>311</ele>
        <time>2016-10-02T09:15:28.000Z</time>
      </trkpt>
      <trkpt lat="45.9436" lon="1.16285">
        <ele>306</ele>
        <time>2016-10-02T09:15:36.000Z</time>
      </trkpt>
      <trkpt lat="45.94353" lon="1.16287">
        <ele>306</ele>
        <time>2016-10-02T09:15:37.000Z</time>
      </trkpt>
      <trkpt lat="45.94307" lon="1.16302">
        <ele>299</ele>
        <time>2016-10-02T09:15:44.000Z</time>
      </trkpt>
      <trkpt lat="45.94301" lon="1.16303">
        <ele>298</ele>
        <time>2016-10-02T09:15:45.000Z</time>
      </trkpt>
      <trkpt lat="45.94282" lon="1.16312">
        <ele>296</ele>
        <time>2016-10-02T09:15:49.000Z</time>
      </trkpt>
      <trkpt lat="45.94269" lon="1.16325">
        <ele>295</ele>
        <time>2016-10-02T09:15:52.000Z</time>
      </trkpt>
      <trkpt lat="45.9425" lon="1.16336">
        <ele>294</ele>
        <time>2016-10-02T09:15:56.000Z</time>
      </trkpt>
      <trkpt lat="45.94241" lon="1.16335">
        <ele>293</ele>
        <time>2016-10-02T09:15:58.000Z</time>
      </trkpt>
      <trkpt lat="45.94219" lon="1.16321">
        <ele>293</ele>
        <time>2016-10-02T09:16:03.000Z</time>
      </trkpt>
      <trkpt lat="45.94206" lon="1.16306">
        <ele>294</ele>
        <time>2016-10-02T09:16:07.000Z</time>
      </trkpt>
      <trkpt lat="45.94201" lon="1.16301">
        <ele>295</ele>
        <time>2016-10-02T09:16:10.000Z</time>
      </trkpt>
      <trkpt lat="45.94196" lon="1.16305">
        <ele>297</ele>
        <time>2016-10-02T09:16:12.000Z</time>
      </trkpt>
      <trkpt lat="45.94196" lon="1.16315">
        <ele>298</ele>
        <time>2016-10-02T09:16:14.000Z</time>
      </trkpt>
      <trkpt lat="45.94198" lon="1.16331">
        <ele>300</ele>
        <time>2016-10-02T09:16:17.000Z</time>
      </trkpt>
      <trkpt lat="45.94198" lon="1.16341">
        <ele>303</ele>
        <time>2016-10-02T09:16:19.000Z</time>
      </trkpt>
      <trkpt lat="45.94199" lon="1.16355">
        <ele>306</ele>
        <time>2016-10-02T09:16:23.000Z</time>
      </trkpt>
      <trkpt lat="45.94199" lon="1.1637">
        <ele>310</ele>
        <time>2016-10-02T09:16:28.000Z</time>
      </trkpt>
      <trkpt lat="45.94193" lon="1.16379">
        <ele>313</ele>
        <time>2016-10-02T09:16:32.000Z</time>
      </trkpt>
      <trkpt lat="45.94178" lon="1.16385">
        <ele>314</ele>
        <time>2016-10-02T09:16:38.000Z</time>
      </trkpt>
      <trkpt lat="45.94158" lon="1.16384">
        <ele>314</ele>
        <time>2016-10-02T09:16:46.000Z</time>
      </trkpt>
      <trkpt lat="45.94113" lon="1.16376">
        <ele>313</ele>
        <time>2016-10-02T09:17:05.000Z</time>
      </trkpt>
      <trkpt lat="45.94111" lon="1.16376">
        <ele>313</ele>
        <time>2016-10-02T09:17:06.000Z</time>
      </trkpt>
      <trkpt lat="45.9408" lon="1.16378">
        <ele>314</ele>
        <time>2016-10-02T09:17:19.000Z</time>
      </trkpt>
      <trkpt lat="45.94042" lon="1.16394">
        <ele>318</ele>
        <time>2016-10-02T09:17:34.000Z</time>
      </trkpt>
      <trkpt lat="45.9402" lon="1.16403">
        <ele>321</ele>
        <time>2016-10-02T09:17:43.000Z</time>
      </trkpt>
      <trkpt lat="45.94002" lon="1.16403">
        <ele>323</ele>
        <time>2016-10-02T09:17:51.000Z</time>
      </trkpt>
      <trkpt lat="45.93993" lon="1.16403">
        <ele>323</ele>
        <time>2016-10-02T09:17:54.000Z</time>
      </trkpt>
      <trkpt lat="45.93987" lon="1.16413">
        <ele>323</ele>
        <time>2016-10-02T09:17:57.000Z</time>
      </trkpt>
      <trkpt lat="45.93982" lon="1.16426">
        <ele>325</ele>
        <time>2016-10-02T09:18:00.000Z</time>
      </trkpt>
      <trkpt lat="45.93975" lon="1.1644">
        <ele>326</ele>
        <time>2016-10-02T09:18:04.000Z</time>
      </trkpt>
      <trkpt lat="45.93953" lon="1.16501">
        <ele>329</ele>
        <time>2016-10-02T09:18:16.000Z</time>
      </trkpt>
      <trkpt lat="45.93951" lon="1.16507">
        <ele>329</ele>
        <time>2016-10-02T09:18:17.000Z</time>
      </trkpt>
      <trkpt lat="45.93931" lon="1.16567">
        <ele>330</ele>
        <time>2016-10-02T09:18:26.000Z</time>
      </trkpt>
      <trkpt lat="45.93929" lon="1.16572">
        <ele>330</ele>
        <time>2016-10-02T09:18:27.000Z</time>
      </trkpt>
      <trkpt lat="45.93918" lon="1.16606">
        <ele>332</ele>
        <time>2016-10-02T09:18:33.000Z</time>
      </trkpt>
      <trkpt lat="45.93904" lon="1.1667">
        <ele>334</ele>
        <time>2016-10-02T09:18:45.000Z</time>
      </trkpt>
      <trkpt lat="45.93903" lon="1.16676">
        <ele>334</ele>
        <time>2016-10-02T09:18:46.000Z</time>
      </trkpt>
      <trkpt lat="45.93888" lon="1.16739">
        <ele>336</ele>
        <time>2016-10-02T09:18:58.000Z</time>
      </trkpt>
      <trkpt lat="45.93887" lon="1.16745">
        <ele>336</ele>
        <time>2016-10-02T09:18:59.000Z</time>
      </trkpt>
      <trkpt lat="45.93874" lon="1.16808">
        <ele>339</ele>
        <time>2016-10-02T09:19:10.000Z</time>
      </trkpt>
      <trkpt lat="45.93873" lon="1.16814">
        <ele>339</ele>
        <time>2016-10-02T09:19:11.000Z</time>
      </trkpt>
      <trkpt lat="45.93863" lon="1.16882">
        <ele>341</ele>
        <time>2016-10-02T09:19:23.000Z</time>
      </trkpt>
      <trkpt lat="45.93862" lon="1.16887">
        <ele>341</ele>
        <time>2016-10-02T09:19:24.000Z</time>
      </trkpt>
      <trkpt lat="45.93861" lon="1.16897">
        <ele>340</ele>
        <time>2016-10-02T09:19:26.000Z</time>
      </trkpt>
      <trkpt lat="45.9386" lon="1.16907">
        <ele>340</ele>
        <time>2016-10-02T09:19:28.000Z</time>
      </trkpt>
      <trkpt lat="45.93855" lon="1.16913">
        <ele>340</ele>
        <time>2016-10-02T09:19:30.000Z</time>
      </trkpt>
      <trkpt lat="45.93848" lon="1.1691">
        <ele>339</ele>
        <time>2016-10-02T09:19:32.000Z</time>
      </trkpt>
      <trkpt lat="45.93831" lon="1.16894">
        <ele>338</ele>
        <time>2016-10-02T09:19:36.000Z</time>
      </trkpt>
      <trkpt lat="45.93783" lon="1.16873">
        <ele>338</ele>
        <time>2016-10-02T09:19:45.000Z</time>
      </trkpt>
      <trkpt lat="45.93777" lon="1.16871">
        <ele>338</ele>
        <time>2016-10-02T09:19:46.000Z</time>
      </trkpt>
      <trkpt lat="45.93731" lon="1.16855">
        <ele>337</ele>
        <time>2016-10-02T09:19:54.000Z</time>
      </trkpt>
      <trkpt lat="45.93725" lon="1.16853">
        <ele>337</ele>
        <time>2016-10-02T09:19:55.000Z</time>
      </trkpt>
      <trkpt lat="45.93677" lon="1.16839">
        <ele>337</ele>
        <time>2016-10-02T09:20:03.000Z</time>
      </trkpt>
      <trkpt lat="45.93671" lon="1.16838">
        <ele>337</ele>
        <time>2016-10-02T09:20:04.000Z</time>
      </trkpt>
      <trkpt lat="45.93626" lon="1.16834">
        <ele>336</ele>
        <time>2016-10-02T09:20:11.000Z</time>
      </trkpt>
      <trkpt lat="45.9362" lon="1.16834">
        <ele>336</ele>
        <time>2016-10-02T09:20:12.000Z</time>
      </trkpt>
      <trkpt lat="45.93575" lon="1.1684">
        <ele>335</ele>
        <time>2016-10-02T09:20:19.000Z</time>
      </trkpt>
      <trkpt lat="45.93568" lon="1.16841">
        <ele>335</ele>
        <time>2016-10-02T09:20:20.000Z</time>
      </trkpt>
      <trkpt lat="45.93523" lon="1.16853">
        <ele>334</ele>
        <time>2016-10-02T09:20:27.000Z</time>
      </trkpt>
      <trkpt lat="45.93516" lon="1.16855">
        <ele>334</ele>
        <time>2016-10-02T09:20:28.000Z</time>
      </trkpt>
      <trkpt lat="45.93486" lon="1.16869">
        <ele>333</ele>
        <time>2016-10-02T09:20:33.000Z</time>
      </trkpt>
      <trkpt lat="45.93446" lon="1.169">
        <ele>332</ele>
        <time>2016-10-02T09:20:40.000Z</time>
      </trkpt>
      <trkpt lat="45.9344" lon="1.16904">
        <ele>332</ele>
        <time>2016-10-02T09:20:41.000Z</time>
      </trkpt>
      <trkpt lat="45.93395" lon="1.16932">
        <ele>330</ele>
        <time>2016-10-02T09:20:49.000Z</time>
      </trkpt>
      <trkpt lat="45.9339" lon="1.16931">
        <ele>329</ele>
        <time>2016-10-02T09:20:50.000Z</time>
      </trkpt>
      <trkpt lat="45.93382" lon="1.16924">
        <ele>329</ele>
        <time>2016-10-02T09:20:52.000Z</time>
      </trkpt>
      <trkpt lat="45.93352" lon="1.16874">
        <ele>325</ele>
        <time>2016-10-02T09:21:01.000Z</time>
      </trkpt>
      <trkpt lat="45.93347" lon="1.16868">
        <ele>325</ele>
        <time>2016-10-02T09:21:02.000Z</time>
      </trkpt>
      <trkpt lat="45.93342" lon="1.16863">
        <ele>325</ele>
        <time>2016-10-02T09:21:03.000Z</time>
      </trkpt>
      <trkpt lat="45.933" lon="1.16831">
        <ele>322</ele>
        <time>2016-10-02T09:21:10.000Z</time>
      </trkpt>
      <trkpt lat="45.93296" lon="1.16825">
        <ele>322</ele>
        <time>2016-10-02T09:21:11.000Z</time>
      </trkpt>
      <trkpt lat="45.93288" lon="1.168">
        <ele>321</ele>
        <time>2016-10-02T09:21:14.000Z</time>
      </trkpt>
      <trkpt lat="45.93272" lon="1.16736">
        <ele>321</ele>
        <time>2016-10-02T09:21:23.000Z</time>
      </trkpt>
      <trkpt lat="45.93269" lon="1.16729">
        <ele>321</ele>
        <time>2016-10-02T09:21:24.000Z</time>
      </trkpt>
      <trkpt lat="45.93267" lon="1.16722">
        <ele>321</ele>
        <time>2016-10-02T09:21:25.000Z</time>
      </trkpt>
      <trkpt lat="45.93259" lon="1.16711">
        <ele>321</ele>
        <time>2016-10-02T09:21:27.000Z</time>
      </trkpt>
      <trkpt lat="45.93241" lon="1.167">
        <ele>319</ele>
        <time>2016-10-02T09:21:30.000Z</time>
      </trkpt>
      <trkpt lat="45.93191" lon="1.16678">
        <ele>313</ele>
        <time>2016-10-02T09:21:36.000Z</time>
      </trkpt>
      <trkpt lat="45.93182" lon="1.16674">
        <ele>311</ele>
        <time>2016-10-02T09:21:37.000Z</time>
      </trkpt>
      <trkpt lat="45.93153" lon="1.16652">
        <ele>306</ele>
        <time>2016-10-02T09:21:41.000Z</time>
      </trkpt>
      <trkpt lat="45.93145" lon="1.16629">
        <ele>303</ele>
        <time>2016-10-02T09:21:43.000Z</time>
      </trkpt>
      <trkpt lat="45.93135" lon="1.16582">
        <ele>299</ele>
        <time>2016-10-02T09:21:47.000Z</time>
      </trkpt>
      <trkpt lat="45.93125" lon="1.16574">
        <ele>297</ele>
        <time>2016-10-02T09:21:49.000Z</time>
      </trkpt>
      <trkpt lat="45.93114" lon="1.16574">
        <ele>296</ele>
        <time>2016-10-02T09:21:52.000Z</time>
      </trkpt>
      <trkpt lat="45.93096" lon="1.16574">
        <ele>299</ele>
        <time>2016-10-02T09:21:59.000Z</time>
      </trkpt>
      <trkpt lat="45.93085" lon="1.16563">
        <ele>302</ele>
        <time>2016-10-02T09:22:05.000Z</time>
      </trkpt>
      <trkpt lat="45.93081" lon="1.16552">
        <ele>304</ele>
        <time>2016-10-02T09:22:09.000Z</time>
      </trkpt>
      <trkpt lat="45.93073" lon="1.16536">
        <ele>307</ele>
        <time>2016-10-02T09:22:15.000Z</time>
      </trkpt>
      <trkpt lat="45.93062" lon="1.16506">
        <ele>309</ele>
        <time>2016-10-02T09:22:24.000Z</time>
      </trkpt>
      <trkpt lat="45.93059" lon="1.16498">
        <ele>310</ele>
        <time>2016-10-02T09:22:28.000Z</time>
      </trkpt>
      <trkpt lat="45.93049" lon="1.16497">
        <ele>310</ele>
        <time>2016-10-02T09:22:31.000Z</time>
      </trkpt>
      <trkpt lat="45.93022" lon="1.16509">
        <ele>309</ele>
        <time>2016-10-02T09:22:36.000Z</time>
      </trkpt>
      <trkpt lat="45.92979" lon="1.16543">
        <ele>306</ele>
        <time>2016-10-02T09:22:42.000Z</time>
      </trkpt>
      <trkpt lat="45.92971" lon="1.1655">
        <ele>305</ele>
        <time>2016-10-02T09:22:43.000Z</time>
      </trkpt>
      <trkpt lat="45.92928" lon="1.16588">
        <ele>302</ele>
        <time>2016-10-02T09:22:48.000Z</time>
      </trkpt>
      <trkpt lat="45.92919" lon="1.16595">
        <ele>301</ele>
        <time>2016-10-02T09:22:49.000Z</time>
      </trkpt>
      <trkpt lat="45.92873" lon="1.16632">
        <ele>298</ele>
        <time>2016-10-02T09:22:54.000Z</time>
      </trkpt>
      <trkpt lat="45.92863" lon="1.16639">
        <ele>297</ele>
        <time>2016-10-02T09:22:55.000Z</time>
      </trkpt>
      <trkpt lat="45.92819" lon="1.16667">
        <ele>294</ele>
        <time>2016-10-02T09:23:00.000Z</time>
      </trkpt>
      <trkpt lat="45.9281" lon="1.1667">
        <ele>293</ele>
        <time>2016-10-02T09:23:01.000Z</time>
      </trkpt>
      <trkpt lat="45.928" lon="1.16672">
        <ele>293</ele>
        <time>2016-10-02T09:23:02.000Z</time>
      </trkpt>
      <trkpt lat="45.92751" lon="1.16674">
        <ele>288</ele>
        <time>2016-10-02T09:23:07.000Z</time>
      </trkpt>
      <trkpt lat="45.92741" lon="1.16674">
        <ele>288</ele>
        <time>2016-10-02T09:23:08.000Z</time>
      </trkpt>
      <trkpt lat="45.92704" lon="1.16668">
        <ele>286</ele>
        <time>2016-10-02T09:23:12.000Z</time>
      </trkpt>
      <trkpt lat="45.92696" lon="1.16664">
        <ele>286</ele>
        <time>2016-10-02T09:23:13.000Z</time>
      </trkpt>
      <trkpt lat="45.92682" lon="1.16652">
        <ele>285</ele>
        <time>2016-10-02T09:23:15.000Z</time>
      </trkpt>
      <trkpt lat="45.92644" lon="1.16605">
        <ele>285</ele>
        <time>2016-10-02T09:23:22.000Z</time>
      </trkpt>
      <trkpt lat="45.92638" lon="1.16602">
        <ele>285</ele>
        <time>2016-10-02T09:23:23.000Z</time>
      </trkpt>
      <trkpt lat="45.92625" lon="1.166">
        <ele>286</ele>
        <time>2016-10-02T09:23:25.000Z</time>
      </trkpt>
      <trkpt lat="45.92608" lon="1.16608">
        <ele>287</ele>
        <time>2016-10-02T09:23:28.000Z</time>
      </trkpt>
      <trkpt lat="45.92576" lon="1.16637">
        <ele>290</ele>
        <time>2016-10-02T09:23:35.000Z</time>
      </trkpt>
      <trkpt lat="45.92538" lon="1.16675">
        <ele>291</ele>
        <time>2016-10-02T09:23:44.000Z</time>
      </trkpt>
      <trkpt lat="45.92535" lon="1.16679">
        <ele>291</ele>
        <time>2016-10-02T09:23:45.000Z</time>
      </trkpt>
      <trkpt lat="45.92534" lon="1.16684">
        <ele>291</ele>
        <time>2016-10-02T09:23:46.000Z</time>
      </trkpt>
      <trkpt lat="45.92535" lon="1.16693">
        <ele>291</ele>
        <time>2016-10-02T09:23:48.000Z</time>
      </trkpt>
      <trkpt lat="45.9254" lon="1.16701">
        <ele>290</ele>
        <time>2016-10-02T09:23:50.000Z</time>
      </trkpt>
      <trkpt lat="45.92567" lon="1.16732">
        <ele>288</ele>
        <time>2016-10-02T09:23:57.000Z</time>
      </trkpt>
      <trkpt lat="45.92567" lon="1.16746">
        <ele>287</ele>
        <time>2016-10-02T09:23:59.000Z</time>
      </trkpt>
      <trkpt lat="45.92562" lon="1.16774">
        <ele>287</ele>
        <time>2016-10-02T09:24:03.000Z</time>
      </trkpt>
      <trkpt lat="45.92563" lon="1.16812">
        <ele>287</ele>
        <time>2016-10-02T09:24:09.000Z</time>
      </trkpt>
      <trkpt lat="45.92561" lon="1.16836">
        <ele>287</ele>
        <time>2016-10-02T09:24:13.000Z</time>
      </trkpt>
      <trkpt lat="45.92543" lon="1.16896">
        <ele>287</ele>
        <time>2016-10-02T09:24:24.000Z</time>
      </trkpt>
      <trkpt lat="45.9254" lon="1.16901">
        <ele>287</ele>
        <time>2016-10-02T09:24:25.000Z</time>
      </trkpt>
      <trkpt lat="45.92534" lon="1.1691">
        <ele>287</ele>
        <time>2016-10-02T09:24:27.000Z</time>
      </trkpt>
      <trkpt lat="45.92513" lon="1.1693">
        <ele>287</ele>
        <time>2016-10-02T09:24:33.000Z</time>
      </trkpt>
      <trkpt lat="45.92513" lon="1.16943">
        <ele>288</ele>
        <time>2016-10-02T09:24:35.000Z</time>
      </trkpt>
      <trkpt lat="45.92517" lon="1.16954">
        <ele>288</ele>
        <time>2016-10-02T09:24:37.000Z</time>
      </trkpt>
      <trkpt lat="45.92542" lon="1.17">
        <ele>290</ele>
        <time>2016-10-02T09:24:45.000Z</time>
      </trkpt>
      <trkpt lat="45.92544" lon="1.17007">
        <ele>290</ele>
        <time>2016-10-02T09:24:46.000Z</time>
      </trkpt>
      <trkpt lat="45.92558" lon="1.17041">
        <ele>293</ele>
        <time>2016-10-02T09:25:03.000Z</time>
      </trkpt>
      <trkpt lat="45.92566" lon="1.17047">
        <ele>294</ele>
        <time>2016-10-02T09:25:07.000Z</time>
      </trkpt>
      <trkpt lat="45.92569" lon="1.17055">
        <ele>294</ele>
        <time>2016-10-02T09:25:09.000Z</time>
      </trkpt>
      <trkpt lat="45.92577" lon="1.17073">
        <ele>294</ele>
        <time>2016-10-02T09:25:13.000Z</time>
      </trkpt>
      <trkpt lat="45.92606" lon="1.17127">
        <ele>294</ele>
        <time>2016-10-02T09:25:24.000Z</time>
      </trkpt>
      <trkpt lat="45.92609" lon="1.17133">
        <ele>294</ele>
        <time>2016-10-02T09:25:25.000Z</time>
      </trkpt>
      <trkpt lat="45.92613" lon="1.17151">
        <ele>293</ele>
        <time>2016-10-02T09:25:28.000Z</time>
      </trkpt>
      <trkpt lat="45.92612" lon="1.17167">
        <ele>293</ele>
        <time>2016-10-02T09:25:31.000Z</time>
      </trkpt>
      <trkpt lat="45.92604" lon="1.17183">
        <ele>294</ele>
        <time>2016-10-02T09:25:36.000Z</time>
      </trkpt>
      <trkpt lat="45.92595" lon="1.17194">
        <ele>299</ele>
        <time>2016-10-02T09:26:52.000Z</time>
      </trkpt>
      <trkpt lat="45.9259" lon="1.17201">
        <ele>299</ele>
        <time>2016-10-02T09:26:56.000Z</time>
      </trkpt>
      <trkpt lat="45.92559" lon="1.17237">
        <ele>297</ele>
        <time>2016-10-02T09:27:16.000Z</time>
      </trkpt>
      <trkpt lat="45.92553" lon="1.17232">
        <ele>297</ele>
        <time>2016-10-02T09:27:20.000Z</time>
      </trkpt>
      <trkpt lat="45.92513" lon="1.17201">
        <ele>300</ele>
        <time>2016-10-02T09:27:39.000Z</time>
      </trkpt>
      <trkpt lat="45.9251" lon="1.17198">
        <ele>300</ele>
        <time>2016-10-02T09:27:40.000Z</time>
      </trkpt>
      <trkpt lat="45.92475" lon="1.17172">
        <ele>306</ele>
        <time>2016-10-02T09:27:54.000Z</time>
      </trkpt>
      <trkpt lat="45.92466" lon="1.17171">
        <ele>307</ele>
        <time>2016-10-02T09:27:57.000Z</time>
      </trkpt>
      <trkpt lat="45.92457" lon="1.17172">
        <ele>308</ele>
        <time>2016-10-02T09:28:00.000Z</time>
      </trkpt>
      <trkpt lat="45.92419" lon="1.17164">
        <ele>309</ele>
        <time>2016-10-02T09:28:14.000Z</time>
      </trkpt>
      <trkpt lat="45.92402" lon="1.17159">
        <ele>307</ele>
        <time>2016-10-02T09:28:26.000Z</time>
      </trkpt>
      <trkpt lat="45.9239" lon="1.17172">
        <ele>305</ele>
        <time>2016-10-02T09:28:34.000Z</time>
      </trkpt>
      <trkpt lat="45.92393" lon="1.17181">
        <ele>303</ele>
        <time>2016-10-02T09:28:38.000Z</time>
      </trkpt>
      <trkpt lat="45.92395" lon="1.17188">
        <ele>302</ele>
        <time>2016-10-02T09:28:42.000Z</time>
      </trkpt>
      <trkpt lat="45.92394" lon="1.17189">
        <ele>308</ele>
        <time>2016-10-02T09:29:39.000Z</time>
      </trkpt>
    </trkseg>
  </trk>
</gpx>